<?xml version="1.0" encoding="UTF-8" standalone="no" ?>
<gpx xmlns="http://www.topografix.com/GPX/1/1" xmlns:xsi="http://www.w3.org/2001/XMLSchema-instance" xsi:schemaLocation="http://www.topografix.com/GPX/1/1 http://www.topografix.com/GPX/1/1/gpx.xsd" version="1.1" creator="VisuGPX - https://www.visugpx.com">
  <metadata>
    <name>CB : Oléron, Saint-Trojan</name>
    <desc><![CDATA[Petit tour à Oléron en août 2019, année quasiment blanche...]]></desc>
  </metadata>
  <trk>
    <name><![CDATA[2019-08-14 10:57 +02:00]]></name>
    <trkseg>
      <trkpt lat="45.8143" lon="-1.21707">
        <ele>61.41</ele>
        <time>2019-08-14T08:57:37.000Z</time>
      </trkpt>
      <trkpt lat="45.81423" lon="-1.21716">
        <ele>62.28</ele>
        <time>2019-08-14T08:58:00.000Z</time>
      </trkpt>
      <trkpt lat="45.8143" lon="-1.2173">
        <ele>62.08</ele>
        <time>2019-08-14T08:58:04.000Z</time>
      </trkpt>
      <trkpt lat="45.81438" lon="-1.21739">
        <ele>61.92</ele>
        <time>2019-08-14T08:58:07.000Z</time>
      </trkpt>
      <trkpt lat="45.81448" lon="-1.21748">
        <ele>61.33</ele>
        <time>2019-08-14T08:58:10.000Z</time>
      </trkpt>
      <trkpt lat="45.81455" lon="-1.21757">
        <ele>60.48</ele>
        <time>2019-08-14T08:58:12.000Z</time>
      </trkpt>
      <trkpt lat="45.81463" lon="-1.21768">
        <ele>60.14</ele>
        <time>2019-08-14T08:58:15.000Z</time>
      </trkpt>
      <trkpt lat="45.8147" lon="-1.21781">
        <ele>60.2</ele>
        <time>2019-08-14T08:58:19.000Z</time>
      </trkpt>
      <trkpt lat="45.81477" lon="-1.21795">
        <ele>60.25</ele>
        <time>2019-08-14T08:58:22.000Z</time>
      </trkpt>
      <trkpt lat="45.81484" lon="-1.21804">
        <ele>60.28</ele>
        <time>2019-08-14T08:58:25.000Z</time>
      </trkpt>
      <trkpt lat="45.81491" lon="-1.21816">
        <ele>60.26</ele>
        <time>2019-08-14T08:58:28.000Z</time>
      </trkpt>
      <trkpt lat="45.81499" lon="-1.21827">
        <ele>60.21</ele>
        <time>2019-08-14T08:58:31.000Z</time>
      </trkpt>
      <trkpt lat="45.81509" lon="-1.21848">
        <ele>60.14</ele>
        <time>2019-08-14T08:58:36.000Z</time>
      </trkpt>
      <trkpt lat="45.81514" lon="-1.21862">
        <ele>60.12</ele>
        <time>2019-08-14T08:58:39.000Z</time>
      </trkpt>
      <trkpt lat="45.81521" lon="-1.21872">
        <ele>60.18</ele>
        <time>2019-08-14T08:58:43.000Z</time>
      </trkpt>
      <trkpt lat="45.81527" lon="-1.21883">
        <ele>60.23</ele>
        <time>2019-08-14T08:58:46.000Z</time>
      </trkpt>
      <trkpt lat="45.81533" lon="-1.21896">
        <ele>60.32</ele>
        <time>2019-08-14T08:58:50.000Z</time>
      </trkpt>
      <trkpt lat="45.8154" lon="-1.21908">
        <ele>60.35</ele>
        <time>2019-08-14T08:58:53.000Z</time>
      </trkpt>
      <trkpt lat="45.81547" lon="-1.2192">
        <ele>60.39</ele>
        <time>2019-08-14T08:58:56.000Z</time>
      </trkpt>
      <trkpt lat="45.81554" lon="-1.21929">
        <ele>60.4</ele>
        <time>2019-08-14T08:58:59.000Z</time>
      </trkpt>
      <trkpt lat="45.8156" lon="-1.21938">
        <ele>60.42</ele>
        <time>2019-08-14T08:59:03.000Z</time>
      </trkpt>
      <trkpt lat="45.81565" lon="-1.21949">
        <ele>60.4</ele>
        <time>2019-08-14T08:59:08.000Z</time>
      </trkpt>
      <trkpt lat="45.8157" lon="-1.21959">
        <ele>60.4</ele>
        <time>2019-08-14T08:59:14.000Z</time>
      </trkpt>
      <trkpt lat="45.81577" lon="-1.21971">
        <ele>60.41</ele>
        <time>2019-08-14T08:59:18.000Z</time>
      </trkpt>
      <trkpt lat="45.81587" lon="-1.21973">
        <ele>60.43</ele>
        <time>2019-08-14T08:59:23.000Z</time>
      </trkpt>
      <trkpt lat="45.81597" lon="-1.2197">
        <ele>60.44</ele>
        <time>2019-08-14T08:59:26.000Z</time>
      </trkpt>
      <trkpt lat="45.81606" lon="-1.21959">
        <ele>60.46</ele>
        <time>2019-08-14T08:59:29.000Z</time>
      </trkpt>
      <trkpt lat="45.81615" lon="-1.21949">
        <ele>60.48</ele>
        <time>2019-08-14T08:59:32.000Z</time>
      </trkpt>
      <trkpt lat="45.81622" lon="-1.21941">
        <ele>60.53</ele>
        <time>2019-08-14T08:59:34.000Z</time>
      </trkpt>
      <trkpt lat="45.81632" lon="-1.21931">
        <ele>60.49</ele>
        <time>2019-08-14T08:59:36.999Z</time>
      </trkpt>
      <trkpt lat="45.81643" lon="-1.2192">
        <ele>60.28</ele>
        <time>2019-08-14T08:59:39.999Z</time>
      </trkpt>
      <trkpt lat="45.81652" lon="-1.21909">
        <ele>60.07</ele>
        <time>2019-08-14T08:59:42.999Z</time>
      </trkpt>
      <trkpt lat="45.81666" lon="-1.21893">
        <ele>59.49</ele>
        <time>2019-08-14T08:59:46.999Z</time>
      </trkpt>
      <trkpt lat="45.81675" lon="-1.21881">
        <ele>58.93</ele>
        <time>2019-08-14T08:59:49.999Z</time>
      </trkpt>
      <trkpt lat="45.81684" lon="-1.2187">
        <ele>58.57</ele>
        <time>2019-08-14T08:59:52.999Z</time>
      </trkpt>
      <trkpt lat="45.81693" lon="-1.21859">
        <ele>58.43</ele>
        <time>2019-08-14T08:59:55.999Z</time>
      </trkpt>
      <trkpt lat="45.81702" lon="-1.21847">
        <ele>58.21</ele>
        <time>2019-08-14T08:59:58.999Z</time>
      </trkpt>
      <trkpt lat="45.81711" lon="-1.21836">
        <ele>58.1</ele>
        <time>2019-08-14T09:00:01.999Z</time>
      </trkpt>
      <trkpt lat="45.81721" lon="-1.21824">
        <ele>58.13</ele>
        <time>2019-08-14T09:00:04.999Z</time>
      </trkpt>
      <trkpt lat="45.81733" lon="-1.21808">
        <ele>58.26</ele>
        <time>2019-08-14T09:00:08.999Z</time>
      </trkpt>
      <trkpt lat="45.8174" lon="-1.21799">
        <ele>58.36</ele>
        <time>2019-08-14T09:00:10.999Z</time>
      </trkpt>
      <trkpt lat="45.8175" lon="-1.21787">
        <ele>58.56</ele>
        <time>2019-08-14T09:00:13.999Z</time>
      </trkpt>
      <trkpt lat="45.8176" lon="-1.21774">
        <ele>58.71</ele>
        <time>2019-08-14T09:00:16.999Z</time>
      </trkpt>
      <trkpt lat="45.8177" lon="-1.21761">
        <ele>58.92</ele>
        <time>2019-08-14T09:00:19.999Z</time>
      </trkpt>
      <trkpt lat="45.8178" lon="-1.21748">
        <ele>59.27</ele>
        <time>2019-08-14T09:00:22.999Z</time>
      </trkpt>
      <trkpt lat="45.8179" lon="-1.21736">
        <ele>59.51</ele>
        <time>2019-08-14T09:00:25.999Z</time>
      </trkpt>
      <trkpt lat="45.81799" lon="-1.21725">
        <ele>59.72</ele>
        <time>2019-08-14T09:00:28.999Z</time>
      </trkpt>
      <trkpt lat="45.81808" lon="-1.21713">
        <ele>59.89</ele>
        <time>2019-08-14T09:00:31.999Z</time>
      </trkpt>
      <trkpt lat="45.81818" lon="-1.21701">
        <ele>60.05</ele>
        <time>2019-08-14T09:00:34.999Z</time>
      </trkpt>
      <trkpt lat="45.81826" lon="-1.21691">
        <ele>60.08</ele>
        <time>2019-08-14T09:00:37.999Z</time>
      </trkpt>
      <trkpt lat="45.81833" lon="-1.21683">
        <ele>60.13</ele>
        <time>2019-08-14T09:00:40.999Z</time>
      </trkpt>
      <trkpt lat="45.81841" lon="-1.21672">
        <ele>60.22</ele>
        <time>2019-08-14T09:00:44.999Z</time>
      </trkpt>
      <trkpt lat="45.8185" lon="-1.21661">
        <ele>60.27</ele>
        <time>2019-08-14T09:00:47.999Z</time>
      </trkpt>
      <trkpt lat="45.81858" lon="-1.21649">
        <ele>60.32</ele>
        <time>2019-08-14T09:00:50.999Z</time>
      </trkpt>
      <trkpt lat="45.81867" lon="-1.21643">
        <ele>60.37</ele>
        <time>2019-08-14T09:00:53.999Z</time>
      </trkpt>
      <trkpt lat="45.81874" lon="-1.21631">
        <ele>60.56</ele>
        <time>2019-08-14T09:00:56.999Z</time>
      </trkpt>
      <trkpt lat="45.81879" lon="-1.21614">
        <ele>60.72</ele>
        <time>2019-08-14T09:00:59.999Z</time>
      </trkpt>
      <trkpt lat="45.81882" lon="-1.21599">
        <ele>60.83</ele>
        <time>2019-08-14T09:01:02.999Z</time>
      </trkpt>
      <trkpt lat="45.81886" lon="-1.21581">
        <ele>61.04</ele>
        <time>2019-08-14T09:01:05.999Z</time>
      </trkpt>
      <trkpt lat="45.81888" lon="-1.21568">
        <ele>61.1</ele>
        <time>2019-08-14T09:01:07.999Z</time>
      </trkpt>
      <trkpt lat="45.81893" lon="-1.21553">
        <ele>61.26</ele>
        <time>2019-08-14T09:01:10.999Z</time>
      </trkpt>
      <trkpt lat="45.81896" lon="-1.2154">
        <ele>61.38</ele>
        <time>2019-08-14T09:01:12.999Z</time>
      </trkpt>
      <trkpt lat="45.81899" lon="-1.21522">
        <ele>61.52</ele>
        <time>2019-08-14T09:01:15.999Z</time>
      </trkpt>
      <trkpt lat="45.81903" lon="-1.21507">
        <ele>61.59</ele>
        <time>2019-08-14T09:01:18.999Z</time>
      </trkpt>
      <trkpt lat="45.81906" lon="-1.21488">
        <ele>61.65</ele>
        <time>2019-08-14T09:01:21.999Z</time>
      </trkpt>
      <trkpt lat="45.81909" lon="-1.21473">
        <ele>61.75</ele>
        <time>2019-08-14T09:01:23.999Z</time>
      </trkpt>
      <trkpt lat="45.81911" lon="-1.2146">
        <ele>61.86</ele>
        <time>2019-08-14T09:01:25.999Z</time>
      </trkpt>
      <trkpt lat="45.81914" lon="-1.21447">
        <ele>61.97</ele>
        <time>2019-08-14T09:01:27.999Z</time>
      </trkpt>
      <trkpt lat="45.81918" lon="-1.21429">
        <ele>62.14</ele>
        <time>2019-08-14T09:01:30.999Z</time>
      </trkpt>
      <trkpt lat="45.81921" lon="-1.21415">
        <ele>62.26</ele>
        <time>2019-08-14T09:01:32.999Z</time>
      </trkpt>
      <trkpt lat="45.81924" lon="-1.21403">
        <ele>62.36</ele>
        <time>2019-08-14T09:01:34.999Z</time>
      </trkpt>
      <trkpt lat="45.81928" lon="-1.21385">
        <ele>62.48</ele>
        <time>2019-08-14T09:01:37.999Z</time>
      </trkpt>
      <trkpt lat="45.81931" lon="-1.21373">
        <ele>62.59</ele>
        <time>2019-08-14T09:01:39.999Z</time>
      </trkpt>
      <trkpt lat="45.81934" lon="-1.2136">
        <ele>62.72</ele>
        <time>2019-08-14T09:01:41.999Z</time>
      </trkpt>
      <trkpt lat="45.81935" lon="-1.21347">
        <ele>62.89</ele>
        <time>2019-08-14T09:01:43.999Z</time>
      </trkpt>
      <trkpt lat="45.81937" lon="-1.21329">
        <ele>63</ele>
        <time>2019-08-14T09:01:46.999Z</time>
      </trkpt>
      <trkpt lat="45.81937" lon="-1.21315">
        <ele>63.04</ele>
        <time>2019-08-14T09:01:48.999Z</time>
      </trkpt>
      <trkpt lat="45.81942" lon="-1.21302">
        <ele>63.12</ele>
        <time>2019-08-14T09:01:50.999Z</time>
      </trkpt>
      <trkpt lat="45.81944" lon="-1.21289">
        <ele>63.22</ele>
        <time>2019-08-14T09:01:52.999Z</time>
      </trkpt>
      <trkpt lat="45.81946" lon="-1.21271">
        <ele>63.31</ele>
        <time>2019-08-14T09:01:55.999Z</time>
      </trkpt>
      <trkpt lat="45.81948" lon="-1.21254">
        <ele>63.31</ele>
        <time>2019-08-14T09:01:58.999Z</time>
      </trkpt>
      <trkpt lat="45.81951" lon="-1.21237">
        <ele>63.3</ele>
        <time>2019-08-14T09:02:01.999Z</time>
      </trkpt>
      <trkpt lat="45.81956" lon="-1.21219">
        <ele>63.27</ele>
        <time>2019-08-14T09:02:04.999Z</time>
      </trkpt>
      <trkpt lat="45.81959" lon="-1.21206">
        <ele>63.25</ele>
        <time>2019-08-14T09:02:06.999Z</time>
      </trkpt>
      <trkpt lat="45.81962" lon="-1.21187">
        <ele>63.23</ele>
        <time>2019-08-14T09:02:09.999Z</time>
      </trkpt>
      <trkpt lat="45.81966" lon="-1.21171">
        <ele>63.21</ele>
        <time>2019-08-14T09:02:12.999Z</time>
      </trkpt>
      <trkpt lat="45.81968" lon="-1.21157">
        <ele>63.21</ele>
        <time>2019-08-14T09:02:15.999Z</time>
      </trkpt>
      <trkpt lat="45.81972" lon="-1.21139">
        <ele>63.09</ele>
        <time>2019-08-14T09:02:18.999Z</time>
      </trkpt>
      <trkpt lat="45.81975" lon="-1.21124">
        <ele>63.03</ele>
        <time>2019-08-14T09:02:20.999Z</time>
      </trkpt>
      <trkpt lat="45.81978" lon="-1.21111">
        <ele>63</ele>
        <time>2019-08-14T09:02:22.999Z</time>
      </trkpt>
      <trkpt lat="45.8198" lon="-1.21098">
        <ele>63</ele>
        <time>2019-08-14T09:02:25.999Z</time>
      </trkpt>
      <trkpt lat="45.81981" lon="-1.21083">
        <ele>63</ele>
        <time>2019-08-14T09:02:28.999Z</time>
      </trkpt>
      <trkpt lat="45.8197" lon="-1.21076">
        <ele>63</ele>
        <time>2019-08-14T09:02:34.999Z</time>
      </trkpt>
      <trkpt lat="45.81968" lon="-1.2106">
        <ele>62.99</ele>
        <time>2019-08-14T09:02:39.999Z</time>
      </trkpt>
      <trkpt lat="45.81975" lon="-1.21048">
        <ele>62.99</ele>
        <time>2019-08-14T09:02:42.999Z</time>
      </trkpt>
      <trkpt lat="45.81983" lon="-1.21038">
        <ele>62.92</ele>
        <time>2019-08-14T09:02:45.999Z</time>
      </trkpt>
      <trkpt lat="45.81991" lon="-1.2103">
        <ele>62.88</ele>
        <time>2019-08-14T09:02:47.999Z</time>
      </trkpt>
      <trkpt lat="45.81999" lon="-1.2102">
        <ele>62.88</ele>
        <time>2019-08-14T09:02:49.999Z</time>
      </trkpt>
      <trkpt lat="45.82006" lon="-1.21012">
        <ele>62.89</ele>
        <time>2019-08-14T09:02:51.999Z</time>
      </trkpt>
      <trkpt lat="45.82013" lon="-1.21004">
        <ele>62.92</ele>
        <time>2019-08-14T09:02:53.999Z</time>
      </trkpt>
      <trkpt lat="45.8202" lon="-1.20995">
        <ele>62.96</ele>
        <time>2019-08-14T09:02:55.999Z</time>
      </trkpt>
      <trkpt lat="45.82027" lon="-1.20987">
        <ele>63.03</ele>
        <time>2019-08-14T09:02:57.999Z</time>
      </trkpt>
      <trkpt lat="45.82035" lon="-1.20978">
        <ele>63.12</ele>
        <time>2019-08-14T09:02:59.999Z</time>
      </trkpt>
      <trkpt lat="45.82042" lon="-1.2097">
        <ele>63.2</ele>
        <time>2019-08-14T09:03:01.999Z</time>
      </trkpt>
      <trkpt lat="45.8205" lon="-1.20961">
        <ele>63.26</ele>
        <time>2019-08-14T09:03:03.999Z</time>
      </trkpt>
      <trkpt lat="45.82058" lon="-1.20953">
        <ele>63.32</ele>
        <time>2019-08-14T09:03:05.999Z</time>
      </trkpt>
      <trkpt lat="45.82066" lon="-1.20944">
        <ele>63.4</ele>
        <time>2019-08-14T09:03:07.999Z</time>
      </trkpt>
      <trkpt lat="45.82074" lon="-1.20936">
        <ele>63.49</ele>
        <time>2019-08-14T09:03:09.999Z</time>
      </trkpt>
      <trkpt lat="45.82083" lon="-1.20927">
        <ele>63.57</ele>
        <time>2019-08-14T09:03:11.999Z</time>
      </trkpt>
      <trkpt lat="45.82092" lon="-1.20917">
        <ele>63.63</ele>
        <time>2019-08-14T09:03:13.999Z</time>
      </trkpt>
      <trkpt lat="45.821" lon="-1.20908">
        <ele>63.69</ele>
        <time>2019-08-14T09:03:15.999Z</time>
      </trkpt>
      <trkpt lat="45.82109" lon="-1.20898">
        <ele>63.77</ele>
        <time>2019-08-14T09:03:17.999Z</time>
      </trkpt>
      <trkpt lat="45.82118" lon="-1.20889">
        <ele>63.86</ele>
        <time>2019-08-14T09:03:19.999Z</time>
      </trkpt>
      <trkpt lat="45.82127" lon="-1.20879">
        <ele>63.96</ele>
        <time>2019-08-14T09:03:21.999Z</time>
      </trkpt>
      <trkpt lat="45.82136" lon="-1.20871">
        <ele>64.06</ele>
        <time>2019-08-14T09:03:23.999Z</time>
      </trkpt>
      <trkpt lat="45.82146" lon="-1.20861">
        <ele>64.16</ele>
        <time>2019-08-14T09:03:25.999Z</time>
      </trkpt>
      <trkpt lat="45.82154" lon="-1.20851">
        <ele>64.27</ele>
        <time>2019-08-14T09:03:27.999Z</time>
      </trkpt>
      <trkpt lat="45.82163" lon="-1.20842">
        <ele>64.39</ele>
        <time>2019-08-14T09:03:29.999Z</time>
      </trkpt>
      <trkpt lat="45.82173" lon="-1.20832">
        <ele>64.52</ele>
        <time>2019-08-14T09:03:31.999Z</time>
      </trkpt>
      <trkpt lat="45.82182" lon="-1.20822">
        <ele>64.66</ele>
        <time>2019-08-14T09:03:33.999Z</time>
      </trkpt>
      <trkpt lat="45.82191" lon="-1.20812">
        <ele>64.8</ele>
        <time>2019-08-14T09:03:35.999Z</time>
      </trkpt>
      <trkpt lat="45.82201" lon="-1.20802">
        <ele>64.94</ele>
        <time>2019-08-14T09:03:37.999Z</time>
      </trkpt>
      <trkpt lat="45.82211" lon="-1.20791">
        <ele>65.03</ele>
        <time>2019-08-14T09:03:39.999Z</time>
      </trkpt>
      <trkpt lat="45.82222" lon="-1.20781">
        <ele>65.15</ele>
        <time>2019-08-14T09:03:41.999Z</time>
      </trkpt>
      <trkpt lat="45.82234" lon="-1.20771">
        <ele>65.24</ele>
        <time>2019-08-14T09:03:43.999Z</time>
      </trkpt>
      <trkpt lat="45.82245" lon="-1.20761">
        <ele>65.36</ele>
        <time>2019-08-14T09:03:45.999Z</time>
      </trkpt>
      <trkpt lat="45.82255" lon="-1.20749">
        <ele>65.5</ele>
        <time>2019-08-14T09:03:47.999Z</time>
      </trkpt>
      <trkpt lat="45.82265" lon="-1.20737">
        <ele>65.54</ele>
        <time>2019-08-14T09:03:49.999Z</time>
      </trkpt>
      <trkpt lat="45.82276" lon="-1.20725">
        <ele>65.58</ele>
        <time>2019-08-14T09:03:51.999Z</time>
      </trkpt>
      <trkpt lat="45.82286" lon="-1.20714">
        <ele>65.65</ele>
        <time>2019-08-14T09:03:53.999Z</time>
      </trkpt>
      <trkpt lat="45.82296" lon="-1.20703">
        <ele>65.8</ele>
        <time>2019-08-14T09:03:55.999Z</time>
      </trkpt>
      <trkpt lat="45.82306" lon="-1.20691">
        <ele>66.07</ele>
        <time>2019-08-14T09:03:57.999Z</time>
      </trkpt>
      <trkpt lat="45.82315" lon="-1.20679">
        <ele>66.25</ele>
        <time>2019-08-14T09:03:59.999Z</time>
      </trkpt>
      <trkpt lat="45.82325" lon="-1.20669">
        <ele>66.46</ele>
        <time>2019-08-14T09:04:01.999Z</time>
      </trkpt>
      <trkpt lat="45.82335" lon="-1.2066">
        <ele>66.58</ele>
        <time>2019-08-14T09:04:03.999Z</time>
      </trkpt>
      <trkpt lat="45.82346" lon="-1.2065">
        <ele>66.65</ele>
        <time>2019-08-14T09:04:05.999Z</time>
      </trkpt>
      <trkpt lat="45.82355" lon="-1.2064">
        <ele>66.71</ele>
        <time>2019-08-14T09:04:07.999Z</time>
      </trkpt>
      <trkpt lat="45.82365" lon="-1.20629">
        <ele>66.79</ele>
        <time>2019-08-14T09:04:09.999Z</time>
      </trkpt>
      <trkpt lat="45.82375" lon="-1.20619">
        <ele>66.88</ele>
        <time>2019-08-14T09:04:11.999Z</time>
      </trkpt>
      <trkpt lat="45.82384" lon="-1.20608">
        <ele>67.03</ele>
        <time>2019-08-14T09:04:13.999Z</time>
      </trkpt>
      <trkpt lat="45.82394" lon="-1.20598">
        <ele>67.46</ele>
        <time>2019-08-14T09:04:15.999Z</time>
      </trkpt>
      <trkpt lat="45.82404" lon="-1.20587">
        <ele>67.79</ele>
        <time>2019-08-14T09:04:17.999Z</time>
      </trkpt>
      <trkpt lat="45.82414" lon="-1.20577">
        <ele>67.97</ele>
        <time>2019-08-14T09:04:19.999Z</time>
      </trkpt>
      <trkpt lat="45.82424" lon="-1.20567">
        <ele>68.13</ele>
        <time>2019-08-14T09:04:21.999Z</time>
      </trkpt>
      <trkpt lat="45.82434" lon="-1.20557">
        <ele>68.34</ele>
        <time>2019-08-14T09:04:23.999Z</time>
      </trkpt>
      <trkpt lat="45.82444" lon="-1.20545">
        <ele>68.43</ele>
        <time>2019-08-14T09:04:25.999Z</time>
      </trkpt>
      <trkpt lat="45.82453" lon="-1.20534">
        <ele>68.54</ele>
        <time>2019-08-14T09:04:27.999Z</time>
      </trkpt>
      <trkpt lat="45.82463" lon="-1.20522">
        <ele>68.73</ele>
        <time>2019-08-14T09:04:29.999Z</time>
      </trkpt>
      <trkpt lat="45.82472" lon="-1.20511">
        <ele>68.99</ele>
        <time>2019-08-14T09:04:31.999Z</time>
      </trkpt>
      <trkpt lat="45.82482" lon="-1.20499">
        <ele>69.24</ele>
        <time>2019-08-14T09:04:33.999Z</time>
      </trkpt>
      <trkpt lat="45.82492" lon="-1.20487">
        <ele>69.36</ele>
        <time>2019-08-14T09:04:35.999Z</time>
      </trkpt>
      <trkpt lat="45.82501" lon="-1.20476">
        <ele>69.4</ele>
        <time>2019-08-14T09:04:37.999Z</time>
      </trkpt>
      <trkpt lat="45.82509" lon="-1.20463">
        <ele>69.44</ele>
        <time>2019-08-14T09:04:39.999Z</time>
      </trkpt>
      <trkpt lat="45.82517" lon="-1.2045">
        <ele>69.39</ele>
        <time>2019-08-14T09:04:41.999Z</time>
      </trkpt>
      <trkpt lat="45.82526" lon="-1.20438">
        <ele>69.32</ele>
        <time>2019-08-14T09:04:43.999Z</time>
      </trkpt>
      <trkpt lat="45.82535" lon="-1.20425">
        <ele>69.35</ele>
        <time>2019-08-14T09:04:45.999Z</time>
      </trkpt>
      <trkpt lat="45.82544" lon="-1.20412">
        <ele>69.4</ele>
        <time>2019-08-14T09:04:47.999Z</time>
      </trkpt>
      <trkpt lat="45.82553" lon="-1.20399">
        <ele>69.45</ele>
        <time>2019-08-14T09:04:49.999Z</time>
      </trkpt>
      <trkpt lat="45.82562" lon="-1.20386">
        <ele>69.54</ele>
        <time>2019-08-14T09:04:51.999Z</time>
      </trkpt>
      <trkpt lat="45.82571" lon="-1.20373">
        <ele>69.65</ele>
        <time>2019-08-14T09:04:53.999Z</time>
      </trkpt>
      <trkpt lat="45.8258" lon="-1.2036">
        <ele>69.74</ele>
        <time>2019-08-14T09:04:55.999Z</time>
      </trkpt>
      <trkpt lat="45.8259" lon="-1.20347">
        <ele>69.79</ele>
        <time>2019-08-14T09:04:57.999Z</time>
      </trkpt>
      <trkpt lat="45.82598" lon="-1.20334">
        <ele>69.71</ele>
        <time>2019-08-14T09:04:59.999Z</time>
      </trkpt>
      <trkpt lat="45.82606" lon="-1.2032">
        <ele>69.73</ele>
        <time>2019-08-14T09:05:01.999Z</time>
      </trkpt>
      <trkpt lat="45.82615" lon="-1.20307">
        <ele>69.76</ele>
        <time>2019-08-14T09:05:03.999Z</time>
      </trkpt>
      <trkpt lat="45.82624" lon="-1.20295">
        <ele>69.86</ele>
        <time>2019-08-14T09:05:05.999Z</time>
      </trkpt>
      <trkpt lat="45.82632" lon="-1.20281">
        <ele>69.98</ele>
        <time>2019-08-14T09:05:07.999Z</time>
      </trkpt>
      <trkpt lat="45.8264" lon="-1.20268">
        <ele>70.15</ele>
        <time>2019-08-14T09:05:09.999Z</time>
      </trkpt>
      <trkpt lat="45.82648" lon="-1.20256">
        <ele>70.21</ele>
        <time>2019-08-14T09:05:11.999Z</time>
      </trkpt>
      <trkpt lat="45.82656" lon="-1.20244">
        <ele>70.3</ele>
        <time>2019-08-14T09:05:13.999Z</time>
      </trkpt>
      <trkpt lat="45.82663" lon="-1.20232">
        <ele>70.41</ele>
        <time>2019-08-14T09:05:15.999Z</time>
      </trkpt>
      <trkpt lat="45.8267" lon="-1.20223">
        <ele>70.56</ele>
        <time>2019-08-14T09:05:17.999Z</time>
      </trkpt>
      <trkpt lat="45.82676" lon="-1.20214">
        <ele>70.49</ele>
        <time>2019-08-14T09:05:19.999Z</time>
      </trkpt>
      <trkpt lat="45.82683" lon="-1.20205">
        <ele>70.41</ele>
        <time>2019-08-14T09:05:21.999Z</time>
      </trkpt>
      <trkpt lat="45.82689" lon="-1.20195">
        <ele>70.3</ele>
        <time>2019-08-14T09:05:23.999Z</time>
      </trkpt>
      <trkpt lat="45.82695" lon="-1.20185">
        <ele>70.22</ele>
        <time>2019-08-14T09:05:25.999Z</time>
      </trkpt>
      <trkpt lat="45.82703" lon="-1.20175">
        <ele>70.09</ele>
        <time>2019-08-14T09:05:27.999Z</time>
      </trkpt>
      <trkpt lat="45.8271" lon="-1.20164">
        <ele>70.06</ele>
        <time>2019-08-14T09:05:29.999Z</time>
      </trkpt>
      <trkpt lat="45.82717" lon="-1.20152">
        <ele>70.02</ele>
        <time>2019-08-14T09:05:31.999Z</time>
      </trkpt>
      <trkpt lat="45.82722" lon="-1.20138">
        <ele>70.02</ele>
        <time>2019-08-14T09:05:33.999Z</time>
      </trkpt>
      <trkpt lat="45.82725" lon="-1.20122">
        <ele>69.89</ele>
        <time>2019-08-14T09:05:35.999Z</time>
      </trkpt>
      <trkpt lat="45.82729" lon="-1.20105">
        <ele>69.71</ele>
        <time>2019-08-14T09:05:37.999Z</time>
      </trkpt>
      <trkpt lat="45.82732" lon="-1.20089">
        <ele>69.54</ele>
        <time>2019-08-14T09:05:39.999Z</time>
      </trkpt>
      <trkpt lat="45.82735" lon="-1.20073">
        <ele>69.46</ele>
        <time>2019-08-14T09:05:41.999Z</time>
      </trkpt>
      <trkpt lat="45.82738" lon="-1.20058">
        <ele>69.55</ele>
        <time>2019-08-14T09:05:43.999Z</time>
      </trkpt>
      <trkpt lat="45.82741" lon="-1.20044">
        <ele>69.74</ele>
        <time>2019-08-14T09:05:45.999Z</time>
      </trkpt>
      <trkpt lat="45.82744" lon="-1.2003">
        <ele>69.92</ele>
        <time>2019-08-14T09:05:47.999Z</time>
      </trkpt>
      <trkpt lat="45.82746" lon="-1.20017">
        <ele>70.11</ele>
        <time>2019-08-14T09:05:49.999Z</time>
      </trkpt>
      <trkpt lat="45.82749" lon="-1.20004">
        <ele>70.26</ele>
        <time>2019-08-14T09:05:51.999Z</time>
      </trkpt>
      <trkpt lat="45.82752" lon="-1.1999">
        <ele>70.44</ele>
        <time>2019-08-14T09:05:53.999Z</time>
      </trkpt>
      <trkpt lat="45.82755" lon="-1.19977">
        <ele>70.56</ele>
        <time>2019-08-14T09:05:55.999Z</time>
      </trkpt>
      <trkpt lat="45.82759" lon="-1.19959">
        <ele>70.77</ele>
        <time>2019-08-14T09:05:58.999Z</time>
      </trkpt>
      <trkpt lat="45.82763" lon="-1.19944">
        <ele>70.92</ele>
        <time>2019-08-14T09:06:01.999Z</time>
      </trkpt>
      <trkpt lat="45.82773" lon="-1.19933">
        <ele>71.03</ele>
        <time>2019-08-14T09:06:04.999Z</time>
      </trkpt>
      <trkpt lat="45.82784" lon="-1.19933">
        <ele>71.06</ele>
        <time>2019-08-14T09:06:06.999Z</time>
      </trkpt>
      <trkpt lat="45.82794" lon="-1.19932">
        <ele>71.06</ele>
        <time>2019-08-14T09:06:08.999Z</time>
      </trkpt>
      <trkpt lat="45.82806" lon="-1.19932">
        <ele>71.07</ele>
        <time>2019-08-14T09:06:11.999Z</time>
      </trkpt>
      <trkpt lat="45.82821" lon="-1.19932">
        <ele>71.01</ele>
        <time>2019-08-14T09:06:14.999Z</time>
      </trkpt>
      <trkpt lat="45.82832" lon="-1.19934">
        <ele>70.88</ele>
        <time>2019-08-14T09:06:16.999Z</time>
      </trkpt>
      <trkpt lat="45.82841" lon="-1.19935">
        <ele>70.71</ele>
        <time>2019-08-14T09:06:18.999Z</time>
      </trkpt>
      <trkpt lat="45.8285" lon="-1.19935">
        <ele>70.56</ele>
        <time>2019-08-14T09:06:20.999Z</time>
      </trkpt>
      <trkpt lat="45.8286" lon="-1.19934">
        <ele>70.41</ele>
        <time>2019-08-14T09:06:22.999Z</time>
      </trkpt>
      <trkpt lat="45.8287" lon="-1.19933">
        <ele>70.3</ele>
        <time>2019-08-14T09:06:24.999Z</time>
      </trkpt>
      <trkpt lat="45.82879" lon="-1.19933">
        <ele>70.22</ele>
        <time>2019-08-14T09:06:26.999Z</time>
      </trkpt>
      <trkpt lat="45.82889" lon="-1.19933">
        <ele>70.16</ele>
        <time>2019-08-14T09:06:28.999Z</time>
      </trkpt>
      <trkpt lat="45.829" lon="-1.19937">
        <ele>70.07</ele>
        <time>2019-08-14T09:06:30.999Z</time>
      </trkpt>
      <trkpt lat="45.8291" lon="-1.19943">
        <ele>69.98</ele>
        <time>2019-08-14T09:06:32.999Z</time>
      </trkpt>
      <trkpt lat="45.82918" lon="-1.19947">
        <ele>69.86</ele>
        <time>2019-08-14T09:06:34.999Z</time>
      </trkpt>
      <trkpt lat="45.82927" lon="-1.19951">
        <ele>69.71</ele>
        <time>2019-08-14T09:06:36.999Z</time>
      </trkpt>
      <trkpt lat="45.82938" lon="-1.19958">
        <ele>69.6</ele>
        <time>2019-08-14T09:06:39.999Z</time>
      </trkpt>
      <trkpt lat="45.82948" lon="-1.19967">
        <ele>69.37</ele>
        <time>2019-08-14T09:06:42.999Z</time>
      </trkpt>
      <trkpt lat="45.82957" lon="-1.19972">
        <ele>69.25</ele>
        <time>2019-08-14T09:06:44.999Z</time>
      </trkpt>
      <trkpt lat="45.82966" lon="-1.19977">
        <ele>69.15</ele>
        <time>2019-08-14T09:06:46.999Z</time>
      </trkpt>
      <trkpt lat="45.82974" lon="-1.19982">
        <ele>69.09</ele>
        <time>2019-08-14T09:06:48.999Z</time>
      </trkpt>
      <trkpt lat="45.82984" lon="-1.19987">
        <ele>69.04</ele>
        <time>2019-08-14T09:06:50.999Z</time>
      </trkpt>
      <trkpt lat="45.82993" lon="-1.19991">
        <ele>69.02</ele>
        <time>2019-08-14T09:06:52.999Z</time>
      </trkpt>
      <trkpt lat="45.83002" lon="-1.19996">
        <ele>69.02</ele>
        <time>2019-08-14T09:06:54.999Z</time>
      </trkpt>
      <trkpt lat="45.83011" lon="-1.20001">
        <ele>69.01</ele>
        <time>2019-08-14T09:06:56.999Z</time>
      </trkpt>
      <trkpt lat="45.83019" lon="-1.20006">
        <ele>69.02</ele>
        <time>2019-08-14T09:06:58.999Z</time>
      </trkpt>
      <trkpt lat="45.83028" lon="-1.20011">
        <ele>69.03</ele>
        <time>2019-08-14T09:07:00.999Z</time>
      </trkpt>
      <trkpt lat="45.83037" lon="-1.20015">
        <ele>69.05</ele>
        <time>2019-08-14T09:07:02.999Z</time>
      </trkpt>
      <trkpt lat="45.83046" lon="-1.2002">
        <ele>69.08</ele>
        <time>2019-08-14T09:07:04.999Z</time>
      </trkpt>
      <trkpt lat="45.83058" lon="-1.20028">
        <ele>69.11</ele>
        <time>2019-08-14T09:07:07.999Z</time>
      </trkpt>
      <trkpt lat="45.83067" lon="-1.20033">
        <ele>69.1</ele>
        <time>2019-08-14T09:07:09.999Z</time>
      </trkpt>
      <trkpt lat="45.83076" lon="-1.20038">
        <ele>69.05</ele>
        <time>2019-08-14T09:07:11.999Z</time>
      </trkpt>
      <trkpt lat="45.83084" lon="-1.20043">
        <ele>68.99</ele>
        <time>2019-08-14T09:07:13.999Z</time>
      </trkpt>
      <trkpt lat="45.83094" lon="-1.20047">
        <ele>68.95</ele>
        <time>2019-08-14T09:07:15.999Z</time>
      </trkpt>
      <trkpt lat="45.83104" lon="-1.2004">
        <ele>68.95</ele>
        <time>2019-08-14T09:07:17.999Z</time>
      </trkpt>
      <trkpt lat="45.83109" lon="-1.20027">
        <ele>68.97</ele>
        <time>2019-08-14T09:07:19.999Z</time>
      </trkpt>
      <trkpt lat="45.83112" lon="-1.20012">
        <ele>69.01</ele>
        <time>2019-08-14T09:07:21.999Z</time>
      </trkpt>
      <trkpt lat="45.83115" lon="-1.19997">
        <ele>69.05</ele>
        <time>2019-08-14T09:07:23.999Z</time>
      </trkpt>
      <trkpt lat="45.83118" lon="-1.19982">
        <ele>69.11</ele>
        <time>2019-08-14T09:07:25.999Z</time>
      </trkpt>
      <trkpt lat="45.83121" lon="-1.19967">
        <ele>69.16</ele>
        <time>2019-08-14T09:07:27.999Z</time>
      </trkpt>
      <trkpt lat="45.83124" lon="-1.19952">
        <ele>69.19</ele>
        <time>2019-08-14T09:07:29.999Z</time>
      </trkpt>
      <trkpt lat="45.83128" lon="-1.19936">
        <ele>69.21</ele>
        <time>2019-08-14T09:07:31.999Z</time>
      </trkpt>
      <trkpt lat="45.83132" lon="-1.19921">
        <ele>69.25</ele>
        <time>2019-08-14T09:07:33.999Z</time>
      </trkpt>
      <trkpt lat="45.83136" lon="-1.19906">
        <ele>69.28</ele>
        <time>2019-08-14T09:07:35.999Z</time>
      </trkpt>
      <trkpt lat="45.83139" lon="-1.19891">
        <ele>69.27</ele>
        <time>2019-08-14T09:07:37.999Z</time>
      </trkpt>
      <trkpt lat="45.83143" lon="-1.19877">
        <ele>69.25</ele>
        <time>2019-08-14T09:07:39.999Z</time>
      </trkpt>
      <trkpt lat="45.83146" lon="-1.19863">
        <ele>69.22</ele>
        <time>2019-08-14T09:07:41.999Z</time>
      </trkpt>
      <trkpt lat="45.83149" lon="-1.1985">
        <ele>69.18</ele>
        <time>2019-08-14T09:07:43.999Z</time>
      </trkpt>
      <trkpt lat="45.83152" lon="-1.19837">
        <ele>69.16</ele>
        <time>2019-08-14T09:07:45.999Z</time>
      </trkpt>
      <trkpt lat="45.83157" lon="-1.19819">
        <ele>69.17</ele>
        <time>2019-08-14T09:07:48.999Z</time>
      </trkpt>
      <trkpt lat="45.83162" lon="-1.19802">
        <ele>69.21</ele>
        <time>2019-08-14T09:07:51.999Z</time>
      </trkpt>
      <trkpt lat="45.83164" lon="-1.1979">
        <ele>69.23</ele>
        <time>2019-08-14T09:07:53.999Z</time>
      </trkpt>
      <trkpt lat="45.83166" lon="-1.19776">
        <ele>69.26</ele>
        <time>2019-08-14T09:07:55.999Z</time>
      </trkpt>
      <trkpt lat="45.83168" lon="-1.19763">
        <ele>69.28</ele>
        <time>2019-08-14T09:07:57.999Z</time>
      </trkpt>
      <trkpt lat="45.83172" lon="-1.19747">
        <ele>69.32</ele>
        <time>2019-08-14T09:08:00.999Z</time>
      </trkpt>
      <trkpt lat="45.83175" lon="-1.19733">
        <ele>69.33</ele>
        <time>2019-08-14T09:08:04.999Z</time>
      </trkpt>
      <trkpt lat="45.83185" lon="-1.19726">
        <ele>69.34</ele>
        <time>2019-08-14T09:08:08.999Z</time>
      </trkpt>
      <trkpt lat="45.83196" lon="-1.19734">
        <ele>69.36</ele>
        <time>2019-08-14T09:08:11.999Z</time>
      </trkpt>
      <trkpt lat="45.83203" lon="-1.19742">
        <ele>69.45</ele>
        <time>2019-08-14T09:08:13.999Z</time>
      </trkpt>
      <trkpt lat="45.83213" lon="-1.19754">
        <ele>69.51</ele>
        <time>2019-08-14T09:08:16.999Z</time>
      </trkpt>
      <trkpt lat="45.83223" lon="-1.19763">
        <ele>69.51</ele>
        <time>2019-08-14T09:08:19.999Z</time>
      </trkpt>
      <trkpt lat="45.83233" lon="-1.19772">
        <ele>69.46</ele>
        <time>2019-08-14T09:08:22.999Z</time>
      </trkpt>
      <trkpt lat="45.83243" lon="-1.1978">
        <ele>69.43</ele>
        <time>2019-08-14T09:08:25.999Z</time>
      </trkpt>
      <trkpt lat="45.83252" lon="-1.19788">
        <ele>69.43</ele>
        <time>2019-08-14T09:08:28.999Z</time>
      </trkpt>
      <trkpt lat="45.8326" lon="-1.19795">
        <ele>69.42</ele>
        <time>2019-08-14T09:08:31.999Z</time>
      </trkpt>
      <trkpt lat="45.83269" lon="-1.19803">
        <ele>69.41</ele>
        <time>2019-08-14T09:08:34.999Z</time>
      </trkpt>
      <trkpt lat="45.83279" lon="-1.19811">
        <ele>69.38</ele>
        <time>2019-08-14T09:08:39.999Z</time>
      </trkpt>
      <trkpt lat="45.83289" lon="-1.1982">
        <ele>69.35</ele>
        <time>2019-08-14T09:08:43.999Z</time>
      </trkpt>
      <trkpt lat="45.83298" lon="-1.19828">
        <ele>69.32</ele>
        <time>2019-08-14T09:08:46.999Z</time>
      </trkpt>
      <trkpt lat="45.83305" lon="-1.19836">
        <ele>69.29</ele>
        <time>2019-08-14T09:08:49.999Z</time>
      </trkpt>
      <trkpt lat="45.83314" lon="-1.19845">
        <ele>69.25</ele>
        <time>2019-08-14T09:08:52.999Z</time>
      </trkpt>
      <trkpt lat="45.83321" lon="-1.19854">
        <ele>69.21</ele>
        <time>2019-08-14T09:08:55.999Z</time>
      </trkpt>
      <trkpt lat="45.8333" lon="-1.19864">
        <ele>69.16</ele>
        <time>2019-08-14T09:08:59.999Z</time>
      </trkpt>
      <trkpt lat="45.8334" lon="-1.19872">
        <ele>69.13</ele>
        <time>2019-08-14T09:09:03.999Z</time>
      </trkpt>
      <trkpt lat="45.8335" lon="-1.19883">
        <ele>69.02</ele>
        <time>2019-08-14T09:09:06.999Z</time>
      </trkpt>
      <trkpt lat="45.8336" lon="-1.19892">
        <ele>68.87</ele>
        <time>2019-08-14T09:09:09.999Z</time>
      </trkpt>
      <trkpt lat="45.83371" lon="-1.19902">
        <ele>68.79</ele>
        <time>2019-08-14T09:09:12.999Z</time>
      </trkpt>
      <trkpt lat="45.83381" lon="-1.19911">
        <ele>68.74</ele>
        <time>2019-08-14T09:09:15.999Z</time>
      </trkpt>
      <trkpt lat="45.83392" lon="-1.1992">
        <ele>68.64</ele>
        <time>2019-08-14T09:09:18.999Z</time>
      </trkpt>
      <trkpt lat="45.83403" lon="-1.19928">
        <ele>68.59</ele>
        <time>2019-08-14T09:09:21.999Z</time>
      </trkpt>
      <trkpt lat="45.83414" lon="-1.19938">
        <ele>68.52</ele>
        <time>2019-08-14T09:09:24.999Z</time>
      </trkpt>
      <trkpt lat="45.83425" lon="-1.19948">
        <ele>68.44</ele>
        <time>2019-08-14T09:09:27.999Z</time>
      </trkpt>
      <trkpt lat="45.83436" lon="-1.19951">
        <ele>68.4</ele>
        <time>2019-08-14T09:09:30.999Z</time>
      </trkpt>
      <trkpt lat="45.83448" lon="-1.19956">
        <ele>68.42</ele>
        <time>2019-08-14T09:09:33.999Z</time>
      </trkpt>
      <trkpt lat="45.8346" lon="-1.19964">
        <ele>68.44</ele>
        <time>2019-08-14T09:09:36.999Z</time>
      </trkpt>
      <trkpt lat="45.83472" lon="-1.19973">
        <ele>68.38</ele>
        <time>2019-08-14T09:09:39.999Z</time>
      </trkpt>
      <trkpt lat="45.83483" lon="-1.19981">
        <ele>68.34</ele>
        <time>2019-08-14T09:09:42.999Z</time>
      </trkpt>
      <trkpt lat="45.83493" lon="-1.19989">
        <ele>68.34</ele>
        <time>2019-08-14T09:09:45.999Z</time>
      </trkpt>
      <trkpt lat="45.83504" lon="-1.19997">
        <ele>68.35</ele>
        <time>2019-08-14T09:09:48.999Z</time>
      </trkpt>
      <trkpt lat="45.83516" lon="-1.20006">
        <ele>68.34</ele>
        <time>2019-08-14T09:09:51.999Z</time>
      </trkpt>
      <trkpt lat="45.83523" lon="-1.20014">
        <ele>68.32</ele>
        <time>2019-08-14T09:09:53.999Z</time>
      </trkpt>
      <trkpt lat="45.83535" lon="-1.20022">
        <ele>68.29</ele>
        <time>2019-08-14T09:09:56.999Z</time>
      </trkpt>
      <trkpt lat="45.83546" lon="-1.2003">
        <ele>68.24</ele>
        <time>2019-08-14T09:09:59.999Z</time>
      </trkpt>
      <trkpt lat="45.83554" lon="-1.20036">
        <ele>68.21</ele>
        <time>2019-08-14T09:10:01.999Z</time>
      </trkpt>
      <trkpt lat="45.83566" lon="-1.20044">
        <ele>68.17</ele>
        <time>2019-08-14T09:10:04.999Z</time>
      </trkpt>
      <trkpt lat="45.83578" lon="-1.20053">
        <ele>68.15</ele>
        <time>2019-08-14T09:10:07.999Z</time>
      </trkpt>
      <trkpt lat="45.83587" lon="-1.2006">
        <ele>68.15</ele>
        <time>2019-08-14T09:10:09.999Z</time>
      </trkpt>
      <trkpt lat="45.83595" lon="-1.20066">
        <ele>68.15</ele>
        <time>2019-08-14T09:10:11.999Z</time>
      </trkpt>
      <trkpt lat="45.83607" lon="-1.20075">
        <ele>68.14</ele>
        <time>2019-08-14T09:10:14.999Z</time>
      </trkpt>
      <trkpt lat="45.83616" lon="-1.2008">
        <ele>68.11</ele>
        <time>2019-08-14T09:10:16.999Z</time>
      </trkpt>
      <trkpt lat="45.83628" lon="-1.20088">
        <ele>68.07</ele>
        <time>2019-08-14T09:10:19.999Z</time>
      </trkpt>
      <trkpt lat="45.8364" lon="-1.20097">
        <ele>68.04</ele>
        <time>2019-08-14T09:10:22.999Z</time>
      </trkpt>
      <trkpt lat="45.8365" lon="-1.20105">
        <ele>68</ele>
        <time>2019-08-14T09:10:25.999Z</time>
      </trkpt>
      <trkpt lat="45.83663" lon="-1.20112">
        <ele>67.95</ele>
        <time>2019-08-14T09:10:28.999Z</time>
      </trkpt>
      <trkpt lat="45.83674" lon="-1.20118">
        <ele>67.91</ele>
        <time>2019-08-14T09:10:31.999Z</time>
      </trkpt>
      <trkpt lat="45.83682" lon="-1.20125">
        <ele>67.87</ele>
        <time>2019-08-14T09:10:33.999Z</time>
      </trkpt>
      <trkpt lat="45.83694" lon="-1.20134">
        <ele>67.83</ele>
        <time>2019-08-14T09:10:36.999Z</time>
      </trkpt>
      <trkpt lat="45.83706" lon="-1.20142">
        <ele>67.81</ele>
        <time>2019-08-14T09:10:39.999Z</time>
      </trkpt>
      <trkpt lat="45.83714" lon="-1.20148">
        <ele>67.81</ele>
        <time>2019-08-14T09:10:41.999Z</time>
      </trkpt>
      <trkpt lat="45.83723" lon="-1.20153">
        <ele>67.8</ele>
        <time>2019-08-14T09:10:43.999Z</time>
      </trkpt>
      <trkpt lat="45.83731" lon="-1.20158">
        <ele>67.79</ele>
        <time>2019-08-14T09:10:45.999Z</time>
      </trkpt>
      <trkpt lat="45.83739" lon="-1.20164">
        <ele>67.8</ele>
        <time>2019-08-14T09:10:47.999Z</time>
      </trkpt>
      <trkpt lat="45.83748" lon="-1.20168">
        <ele>67.8</ele>
        <time>2019-08-14T09:10:49.999Z</time>
      </trkpt>
      <trkpt lat="45.83756" lon="-1.20173">
        <ele>67.8</ele>
        <time>2019-08-14T09:10:51.999Z</time>
      </trkpt>
      <trkpt lat="45.83768" lon="-1.20182">
        <ele>67.79</ele>
        <time>2019-08-14T09:10:54.999Z</time>
      </trkpt>
      <trkpt lat="45.83779" lon="-1.2019">
        <ele>67.82</ele>
        <time>2019-08-14T09:10:57.999Z</time>
      </trkpt>
      <trkpt lat="45.8379" lon="-1.20196">
        <ele>67.86</ele>
        <time>2019-08-14T09:11:00.999Z</time>
      </trkpt>
      <trkpt lat="45.83802" lon="-1.20205">
        <ele>67.88</ele>
        <time>2019-08-14T09:11:03.999Z</time>
      </trkpt>
      <trkpt lat="45.83814" lon="-1.20212">
        <ele>67.9</ele>
        <time>2019-08-14T09:11:06.999Z</time>
      </trkpt>
      <trkpt lat="45.83825" lon="-1.20218">
        <ele>67.93</ele>
        <time>2019-08-14T09:11:09.999Z</time>
      </trkpt>
      <trkpt lat="45.83836" lon="-1.20224">
        <ele>68</ele>
        <time>2019-08-14T09:11:12.999Z</time>
      </trkpt>
      <trkpt lat="45.83848" lon="-1.2023">
        <ele>68.06</ele>
        <time>2019-08-14T09:11:15.999Z</time>
      </trkpt>
      <trkpt lat="45.8386" lon="-1.20233">
        <ele>68.1</ele>
        <time>2019-08-14T09:11:18.999Z</time>
      </trkpt>
      <trkpt lat="45.83872" lon="-1.20233">
        <ele>68.12</ele>
        <time>2019-08-14T09:11:21.999Z</time>
      </trkpt>
      <trkpt lat="45.83882" lon="-1.20229">
        <ele>68.15</ele>
        <time>2019-08-14T09:11:24.999Z</time>
      </trkpt>
      <trkpt lat="45.83891" lon="-1.20228">
        <ele>68.17</ele>
        <time>2019-08-14T09:11:27.999Z</time>
      </trkpt>
      <trkpt lat="45.83903" lon="-1.20224">
        <ele>68.19</ele>
        <time>2019-08-14T09:11:31.999Z</time>
      </trkpt>
      <trkpt lat="45.83913" lon="-1.2022">
        <ele>68.3</ele>
        <time>2019-08-14T09:11:34.999Z</time>
      </trkpt>
      <trkpt lat="45.83925" lon="-1.20215">
        <ele>68.45</ele>
        <time>2019-08-14T09:11:37.999Z</time>
      </trkpt>
      <trkpt lat="45.83936" lon="-1.20215">
        <ele>68.55</ele>
        <time>2019-08-14T09:11:40.999Z</time>
      </trkpt>
      <trkpt lat="45.83949" lon="-1.20215">
        <ele>68.75</ele>
        <time>2019-08-14T09:11:43.999Z</time>
      </trkpt>
      <trkpt lat="45.83962" lon="-1.20217">
        <ele>68.9</ele>
        <time>2019-08-14T09:11:46.999Z</time>
      </trkpt>
      <trkpt lat="45.83975" lon="-1.20219">
        <ele>69.01</ele>
        <time>2019-08-14T09:11:49.999Z</time>
      </trkpt>
      <trkpt lat="45.83988" lon="-1.20221">
        <ele>69.11</ele>
        <time>2019-08-14T09:11:52.999Z</time>
      </trkpt>
      <trkpt lat="45.84001" lon="-1.20223">
        <ele>69.21</ele>
        <time>2019-08-14T09:11:55.999Z</time>
      </trkpt>
      <trkpt lat="45.84013" lon="-1.20227">
        <ele>69.34</ele>
        <time>2019-08-14T09:11:58.999Z</time>
      </trkpt>
      <trkpt lat="45.84026" lon="-1.20231">
        <ele>69.47</ele>
        <time>2019-08-14T09:12:01.999Z</time>
      </trkpt>
      <trkpt lat="45.84035" lon="-1.20233">
        <ele>69.55</ele>
        <time>2019-08-14T09:12:03.999Z</time>
      </trkpt>
      <trkpt lat="45.84044" lon="-1.20236">
        <ele>69.62</ele>
        <time>2019-08-14T09:12:05.999Z</time>
      </trkpt>
      <trkpt lat="45.84053" lon="-1.20238">
        <ele>69.68</ele>
        <time>2019-08-14T09:12:07.999Z</time>
      </trkpt>
      <trkpt lat="45.84062" lon="-1.20241">
        <ele>69.74</ele>
        <time>2019-08-14T09:12:09.999Z</time>
      </trkpt>
      <trkpt lat="45.84071" lon="-1.20243">
        <ele>69.81</ele>
        <time>2019-08-14T09:12:11.999Z</time>
      </trkpt>
      <trkpt lat="45.8408" lon="-1.20246">
        <ele>69.88</ele>
        <time>2019-08-14T09:12:13.999Z</time>
      </trkpt>
      <trkpt lat="45.84089" lon="-1.20249">
        <ele>69.94</ele>
        <time>2019-08-14T09:12:15.999Z</time>
      </trkpt>
      <trkpt lat="45.84099" lon="-1.20252">
        <ele>69.99</ele>
        <time>2019-08-14T09:12:17.999Z</time>
      </trkpt>
      <trkpt lat="45.84108" lon="-1.20254">
        <ele>70.03</ele>
        <time>2019-08-14T09:12:19.999Z</time>
      </trkpt>
      <trkpt lat="45.84116" lon="-1.20258">
        <ele>70.08</ele>
        <time>2019-08-14T09:12:21.999Z</time>
      </trkpt>
      <trkpt lat="45.84127" lon="-1.20265">
        <ele>70.15</ele>
        <time>2019-08-14T09:12:24.999Z</time>
      </trkpt>
      <trkpt lat="45.84137" lon="-1.20275">
        <ele>70.2</ele>
        <time>2019-08-14T09:12:27.999Z</time>
      </trkpt>
      <trkpt lat="45.84147" lon="-1.20287">
        <ele>70.22</ele>
        <time>2019-08-14T09:12:30.999Z</time>
      </trkpt>
      <trkpt lat="45.84156" lon="-1.203">
        <ele>70.22</ele>
        <time>2019-08-14T09:12:33.999Z</time>
      </trkpt>
      <trkpt lat="45.84165" lon="-1.20311">
        <ele>70.22</ele>
        <time>2019-08-14T09:12:36.999Z</time>
      </trkpt>
      <trkpt lat="45.84173" lon="-1.20322">
        <ele>70.21</ele>
        <time>2019-08-14T09:12:39.999Z</time>
      </trkpt>
      <trkpt lat="45.84181" lon="-1.20332">
        <ele>70.21</ele>
        <time>2019-08-14T09:12:42.999Z</time>
      </trkpt>
      <trkpt lat="45.84189" lon="-1.20342">
        <ele>70.2</ele>
        <time>2019-08-14T09:12:45.999Z</time>
      </trkpt>
      <trkpt lat="45.84199" lon="-1.20347">
        <ele>70.19</ele>
        <time>2019-08-14T09:12:48.999Z</time>
      </trkpt>
      <trkpt lat="45.84211" lon="-1.20347">
        <ele>70.1</ele>
        <time>2019-08-14T09:12:51.999Z</time>
      </trkpt>
      <trkpt lat="45.84223" lon="-1.20347">
        <ele>70.1</ele>
        <time>2019-08-14T09:12:54.999Z</time>
      </trkpt>
      <trkpt lat="45.84236" lon="-1.20346">
        <ele>70.12</ele>
        <time>2019-08-14T09:12:57.999Z</time>
      </trkpt>
      <trkpt lat="45.84248" lon="-1.20345">
        <ele>70.17</ele>
        <time>2019-08-14T09:13:00.999Z</time>
      </trkpt>
      <trkpt lat="45.8426" lon="-1.20344">
        <ele>70.21</ele>
        <time>2019-08-14T09:13:03.999Z</time>
      </trkpt>
      <trkpt lat="45.84272" lon="-1.20345">
        <ele>70.28</ele>
        <time>2019-08-14T09:13:06.999Z</time>
      </trkpt>
      <trkpt lat="45.84284" lon="-1.20346">
        <ele>70.33</ele>
        <time>2019-08-14T09:13:09.999Z</time>
      </trkpt>
      <trkpt lat="45.84297" lon="-1.20345">
        <ele>70.38</ele>
        <time>2019-08-14T09:13:12.999Z</time>
      </trkpt>
      <trkpt lat="45.8431" lon="-1.20346">
        <ele>70.41</ele>
        <time>2019-08-14T09:13:15.999Z</time>
      </trkpt>
      <trkpt lat="45.84319" lon="-1.20346">
        <ele>70.43</ele>
        <time>2019-08-14T09:13:17.999Z</time>
      </trkpt>
      <trkpt lat="45.84329" lon="-1.20345">
        <ele>70.46</ele>
        <time>2019-08-14T09:13:19.999Z</time>
      </trkpt>
      <trkpt lat="45.8434" lon="-1.20345">
        <ele>70.49</ele>
        <time>2019-08-14T09:13:21.999Z</time>
      </trkpt>
      <trkpt lat="45.84351" lon="-1.20345">
        <ele>70.52</ele>
        <time>2019-08-14T09:13:23.999Z</time>
      </trkpt>
      <trkpt lat="45.84363" lon="-1.20344">
        <ele>70.55</ele>
        <time>2019-08-14T09:13:25.999Z</time>
      </trkpt>
      <trkpt lat="45.84375" lon="-1.20344">
        <ele>70.58</ele>
        <time>2019-08-14T09:13:27.999Z</time>
      </trkpt>
      <trkpt lat="45.84386" lon="-1.20345">
        <ele>70.6</ele>
        <time>2019-08-14T09:13:29.999Z</time>
      </trkpt>
      <trkpt lat="45.84398" lon="-1.20346">
        <ele>70.63</ele>
        <time>2019-08-14T09:13:31.999Z</time>
      </trkpt>
      <trkpt lat="45.84409" lon="-1.20346">
        <ele>70.65</ele>
        <time>2019-08-14T09:13:33.999Z</time>
      </trkpt>
      <trkpt lat="45.8442" lon="-1.20346">
        <ele>70.67</ele>
        <time>2019-08-14T09:13:35.999Z</time>
      </trkpt>
      <trkpt lat="45.84432" lon="-1.20347">
        <ele>70.7</ele>
        <time>2019-08-14T09:13:37.999Z</time>
      </trkpt>
      <trkpt lat="45.84443" lon="-1.20347">
        <ele>70.75</ele>
        <time>2019-08-14T09:13:39.999Z</time>
      </trkpt>
      <trkpt lat="45.84456" lon="-1.20347">
        <ele>70.79</ele>
        <time>2019-08-14T09:13:41.999Z</time>
      </trkpt>
      <trkpt lat="45.84468" lon="-1.20347">
        <ele>70.85</ele>
        <time>2019-08-14T09:13:43.999Z</time>
      </trkpt>
      <trkpt lat="45.8448" lon="-1.20347">
        <ele>70.91</ele>
        <time>2019-08-14T09:13:45.999Z</time>
      </trkpt>
      <trkpt lat="45.84491" lon="-1.20348">
        <ele>70.98</ele>
        <time>2019-08-14T09:13:47.999Z</time>
      </trkpt>
      <trkpt lat="45.84501" lon="-1.20348">
        <ele>71.04</ele>
        <time>2019-08-14T09:13:49.999Z</time>
      </trkpt>
      <trkpt lat="45.84512" lon="-1.20348">
        <ele>71.11</ele>
        <time>2019-08-14T09:13:51.999Z</time>
      </trkpt>
      <trkpt lat="45.84523" lon="-1.20348">
        <ele>71.18</ele>
        <time>2019-08-14T09:13:53.999Z</time>
      </trkpt>
      <trkpt lat="45.84534" lon="-1.20348">
        <ele>71.25</ele>
        <time>2019-08-14T09:13:55.999Z</time>
      </trkpt>
      <trkpt lat="45.84544" lon="-1.20348">
        <ele>71.3</ele>
        <time>2019-08-14T09:13:57.999Z</time>
      </trkpt>
      <trkpt lat="45.84555" lon="-1.20348">
        <ele>71.35</ele>
        <time>2019-08-14T09:13:59.999Z</time>
      </trkpt>
      <trkpt lat="45.84566" lon="-1.20348">
        <ele>71.38</ele>
        <time>2019-08-14T09:14:01.999Z</time>
      </trkpt>
      <trkpt lat="45.84576" lon="-1.20347">
        <ele>71.41</ele>
        <time>2019-08-14T09:14:03.999Z</time>
      </trkpt>
      <trkpt lat="45.84586" lon="-1.20347">
        <ele>71.44</ele>
        <time>2019-08-14T09:14:05.999Z</time>
      </trkpt>
      <trkpt lat="45.84596" lon="-1.20351">
        <ele>71.47</ele>
        <time>2019-08-14T09:14:07.999Z</time>
      </trkpt>
      <trkpt lat="45.84605" lon="-1.20362">
        <ele>71.48</ele>
        <time>2019-08-14T09:14:09.999Z</time>
      </trkpt>
      <trkpt lat="45.84611" lon="-1.20374">
        <ele>71.46</ele>
        <time>2019-08-14T09:14:11.999Z</time>
      </trkpt>
      <trkpt lat="45.84615" lon="-1.20389">
        <ele>71.42</ele>
        <time>2019-08-14T09:14:13.999Z</time>
      </trkpt>
      <trkpt lat="45.84619" lon="-1.20401">
        <ele>71.37</ele>
        <time>2019-08-14T09:14:15.999Z</time>
      </trkpt>
      <trkpt lat="45.84623" lon="-1.20418">
        <ele>71.28</ele>
        <time>2019-08-14T09:14:18.999Z</time>
      </trkpt>
      <trkpt lat="45.84627" lon="-1.20434">
        <ele>71.2</ele>
        <time>2019-08-14T09:14:21.999Z</time>
      </trkpt>
      <trkpt lat="45.84631" lon="-1.20447">
        <ele>71.18</ele>
        <time>2019-08-14T09:14:26.999Z</time>
      </trkpt>
      <trkpt lat="45.84636" lon="-1.2046">
        <ele>71.15</ele>
        <time>2019-08-14T09:14:31.999Z</time>
      </trkpt>
      <trkpt lat="45.84636" lon="-1.20477">
        <ele>71.11</ele>
        <time>2019-08-14T09:14:35.999Z</time>
      </trkpt>
      <trkpt lat="45.84632" lon="-1.20489">
        <ele>71.07</ele>
        <time>2019-08-14T09:14:38.999Z</time>
      </trkpt>
      <trkpt lat="45.84628" lon="-1.20501">
        <ele>71.04</ele>
        <time>2019-08-14T09:14:41.999Z</time>
      </trkpt>
      <trkpt lat="45.84625" lon="-1.20517">
        <ele>70.69</ele>
        <time>2019-08-14T09:14:44.999Z</time>
      </trkpt>
      <trkpt lat="45.8462" lon="-1.20533">
        <ele>70.45</ele>
        <time>2019-08-14T09:14:47.999Z</time>
      </trkpt>
      <trkpt lat="45.84615" lon="-1.20549">
        <ele>70.29</ele>
        <time>2019-08-14T09:14:50.999Z</time>
      </trkpt>
      <trkpt lat="45.84611" lon="-1.20565">
        <ele>70.15</ele>
        <time>2019-08-14T09:14:53.999Z</time>
      </trkpt>
      <trkpt lat="45.84606" lon="-1.20581">
        <ele>70.02</ele>
        <time>2019-08-14T09:14:56.999Z</time>
      </trkpt>
      <trkpt lat="45.84603" lon="-1.20593">
        <ele>69.93</ele>
        <time>2019-08-14T09:14:58.999Z</time>
      </trkpt>
      <trkpt lat="45.84599" lon="-1.20609">
        <ele>69.8</ele>
        <time>2019-08-14T09:15:01.999Z</time>
      </trkpt>
      <trkpt lat="45.84595" lon="-1.20625">
        <ele>69.71</ele>
        <time>2019-08-14T09:15:04.999Z</time>
      </trkpt>
      <trkpt lat="45.84592" lon="-1.20642">
        <ele>69.64</ele>
        <time>2019-08-14T09:15:07.999Z</time>
      </trkpt>
      <trkpt lat="45.84598" lon="-1.20654">
        <ele>69.63</ele>
        <time>2019-08-14T09:15:09.999Z</time>
      </trkpt>
      <trkpt lat="45.84603" lon="-1.20668">
        <ele>69.62</ele>
        <time>2019-08-14T09:15:12.999Z</time>
      </trkpt>
      <trkpt lat="45.84605" lon="-1.20683">
        <ele>69.6</ele>
        <time>2019-08-14T09:15:15.999Z</time>
      </trkpt>
      <trkpt lat="45.84605" lon="-1.20701">
        <ele>69.43</ele>
        <time>2019-08-14T09:15:18.999Z</time>
      </trkpt>
      <trkpt lat="45.84604" lon="-1.20718">
        <ele>69.27</ele>
        <time>2019-08-14T09:15:21.999Z</time>
      </trkpt>
      <trkpt lat="45.84604" lon="-1.20734">
        <ele>69.13</ele>
        <time>2019-08-14T09:15:24.999Z</time>
      </trkpt>
      <trkpt lat="45.846" lon="-1.20749">
        <ele>69.07</ele>
        <time>2019-08-14T09:15:27.999Z</time>
      </trkpt>
      <trkpt lat="45.84589" lon="-1.20752">
        <ele>69.06</ele>
        <time>2019-08-14T09:15:30.999Z</time>
      </trkpt>
      <trkpt lat="45.84578" lon="-1.20754">
        <ele>69.04</ele>
        <time>2019-08-14T09:15:33.999Z</time>
      </trkpt>
      <trkpt lat="45.84569" lon="-1.20756">
        <ele>69.02</ele>
        <time>2019-08-14T09:15:36.999Z</time>
      </trkpt>
      <trkpt lat="45.84558" lon="-1.20762">
        <ele>68.99</ele>
        <time>2019-08-14T09:15:40.999Z</time>
      </trkpt>
      <trkpt lat="45.8455" lon="-1.2077">
        <ele>68.96</ele>
        <time>2019-08-14T09:15:44.999Z</time>
      </trkpt>
      <trkpt lat="45.84543" lon="-1.20779">
        <ele>68.93</ele>
        <time>2019-08-14T09:15:48.999Z</time>
      </trkpt>
      <trkpt lat="45.84534" lon="-1.20789">
        <ele>68.89</ele>
        <time>2019-08-14T09:15:53.999Z</time>
      </trkpt>
      <trkpt lat="45.84526" lon="-1.20797">
        <ele>68.84</ele>
        <time>2019-08-14T09:15:58.999Z</time>
      </trkpt>
      <trkpt lat="45.84518" lon="-1.20805">
        <ele>68.79</ele>
        <time>2019-08-14T09:16:02.999Z</time>
      </trkpt>
      <trkpt lat="45.84512" lon="-1.20813">
        <ele>68.74</ele>
        <time>2019-08-14T09:16:06.999Z</time>
      </trkpt>
      <trkpt lat="45.84505" lon="-1.20822">
        <ele>68.69</ele>
        <time>2019-08-14T09:16:10.999Z</time>
      </trkpt>
      <trkpt lat="45.84496" lon="-1.20833">
        <ele>68.62</ele>
        <time>2019-08-14T09:16:15.999Z</time>
      </trkpt>
      <trkpt lat="45.8449" lon="-1.20842">
        <ele>68.57</ele>
        <time>2019-08-14T09:16:19.999Z</time>
      </trkpt>
      <trkpt lat="45.84482" lon="-1.20851">
        <ele>68.51</ele>
        <time>2019-08-14T09:16:23.999Z</time>
      </trkpt>
      <trkpt lat="45.84474" lon="-1.2086">
        <ele>68.45</ele>
        <time>2019-08-14T09:16:27.999Z</time>
      </trkpt>
      <trkpt lat="45.84467" lon="-1.20869">
        <ele>68.38</ele>
        <time>2019-08-14T09:16:31.999Z</time>
      </trkpt>
      <trkpt lat="45.84471" lon="-1.20881">
        <ele>68.3</ele>
        <time>2019-08-14T09:16:36.999Z</time>
      </trkpt>
      <trkpt lat="45.84477" lon="-1.20891">
        <ele>68.25</ele>
        <time>2019-08-14T09:16:39.999Z</time>
      </trkpt>
      <trkpt lat="45.84487" lon="-1.20902">
        <ele>67.92</ele>
        <time>2019-08-14T09:16:42.999Z</time>
      </trkpt>
      <trkpt lat="45.84496" lon="-1.20906">
        <ele>67.72</ele>
        <time>2019-08-14T09:16:44.999Z</time>
      </trkpt>
      <trkpt lat="45.84507" lon="-1.20902">
        <ele>67.59</ele>
        <time>2019-08-14T09:16:47.999Z</time>
      </trkpt>
      <trkpt lat="45.84519" lon="-1.20897">
        <ele>67.49</ele>
        <time>2019-08-14T09:16:50.999Z</time>
      </trkpt>
      <trkpt lat="45.8453" lon="-1.20905">
        <ele>67.46</ele>
        <time>2019-08-14T09:16:53.999Z</time>
      </trkpt>
      <trkpt lat="45.84536" lon="-1.20918">
        <ele>67.43</ele>
        <time>2019-08-14T09:16:56.999Z</time>
      </trkpt>
      <trkpt lat="45.84541" lon="-1.20932">
        <ele>67.36</ele>
        <time>2019-08-14T09:16:59.999Z</time>
      </trkpt>
      <trkpt lat="45.84549" lon="-1.20942">
        <ele>67.35</ele>
        <time>2019-08-14T09:17:02.999Z</time>
      </trkpt>
      <trkpt lat="45.84557" lon="-1.20954">
        <ele>67.34</ele>
        <time>2019-08-14T09:17:05.999Z</time>
      </trkpt>
      <trkpt lat="45.84562" lon="-1.20965">
        <ele>67.28</ele>
        <time>2019-08-14T09:17:08.999Z</time>
      </trkpt>
      <trkpt lat="45.84561" lon="-1.20984">
        <ele>67.16</ele>
        <time>2019-08-14T09:17:11.999Z</time>
      </trkpt>
      <trkpt lat="45.84557" lon="-1.21">
        <ele>67.09</ele>
        <time>2019-08-14T09:17:14.999Z</time>
      </trkpt>
      <trkpt lat="45.84555" lon="-1.21014">
        <ele>67.08</ele>
        <time>2019-08-14T09:17:18.999Z</time>
      </trkpt>
      <trkpt lat="45.8455" lon="-1.21025">
        <ele>67.05</ele>
        <time>2019-08-14T09:17:27.999Z</time>
      </trkpt>
      <trkpt lat="45.84549" lon="-1.21038">
        <ele>67.04</ele>
        <time>2019-08-14T09:17:33.999Z</time>
      </trkpt>
      <trkpt lat="45.84558" lon="-1.21033">
        <ele>67.01</ele>
        <time>2019-08-14T09:17:43.999Z</time>
      </trkpt>
      <trkpt lat="45.84564" lon="-1.21022">
        <ele>67.01</ele>
        <time>2019-08-14T09:17:47.999Z</time>
      </trkpt>
      <trkpt lat="45.84574" lon="-1.21018">
        <ele>67</ele>
        <time>2019-08-14T09:17:50.999Z</time>
      </trkpt>
      <trkpt lat="45.84582" lon="-1.21022">
        <ele>66.99</ele>
        <time>2019-08-14T09:17:54.999Z</time>
      </trkpt>
      <trkpt lat="45.84593" lon="-1.21027">
        <ele>66.98</ele>
        <time>2019-08-14T09:17:57.999Z</time>
      </trkpt>
      <trkpt lat="45.84604" lon="-1.21035">
        <ele>66.97</ele>
        <time>2019-08-14T09:18:01.999Z</time>
      </trkpt>
      <trkpt lat="45.84612" lon="-1.2105">
        <ele>66.92</ele>
        <time>2019-08-14T09:18:04.999Z</time>
      </trkpt>
      <trkpt lat="45.84619" lon="-1.21064">
        <ele>66.91</ele>
        <time>2019-08-14T09:18:07.999Z</time>
      </trkpt>
      <trkpt lat="45.84627" lon="-1.21072">
        <ele>66.9</ele>
        <time>2019-08-14T09:18:09.999Z</time>
      </trkpt>
      <trkpt lat="45.84633" lon="-1.21085">
        <ele>66.89</ele>
        <time>2019-08-14T09:18:11.999Z</time>
      </trkpt>
      <trkpt lat="45.8464" lon="-1.21094">
        <ele>66.88</ele>
        <time>2019-08-14T09:18:13.999Z</time>
      </trkpt>
      <trkpt lat="45.84649" lon="-1.21103">
        <ele>66.86</ele>
        <time>2019-08-14T09:18:16.999Z</time>
      </trkpt>
      <trkpt lat="45.84656" lon="-1.21111">
        <ele>66.85</ele>
        <time>2019-08-14T09:18:18.999Z</time>
      </trkpt>
      <trkpt lat="45.84663" lon="-1.21125">
        <ele>66.82</ele>
        <time>2019-08-14T09:18:23.000Z</time>
      </trkpt>
      <trkpt lat="45.8467" lon="-1.21132">
        <ele>66.81</ele>
        <time>2019-08-14T09:18:26.000Z</time>
      </trkpt>
      <trkpt lat="45.8468" lon="-1.21141">
        <ele>66.79</ele>
        <time>2019-08-14T09:18:29.000Z</time>
      </trkpt>
      <trkpt lat="45.8469" lon="-1.21154">
        <ele>66.72</ele>
        <time>2019-08-14T09:18:32.000Z</time>
      </trkpt>
      <trkpt lat="45.84697" lon="-1.21164">
        <ele>66.68</ele>
        <time>2019-08-14T09:18:34.000Z</time>
      </trkpt>
      <trkpt lat="45.84705" lon="-1.21172">
        <ele>66.61</ele>
        <time>2019-08-14T09:18:36.000Z</time>
      </trkpt>
      <trkpt lat="45.84713" lon="-1.21179">
        <ele>66.61</ele>
        <time>2019-08-14T09:18:38.000Z</time>
      </trkpt>
      <trkpt lat="45.84722" lon="-1.21192">
        <ele>66.56</ele>
        <time>2019-08-14T09:18:41.000Z</time>
      </trkpt>
      <trkpt lat="45.84729" lon="-1.21202">
        <ele>66.55</ele>
        <time>2019-08-14T09:18:43.000Z</time>
      </trkpt>
      <trkpt lat="45.8474" lon="-1.21212">
        <ele>66.52</ele>
        <time>2019-08-14T09:18:46.000Z</time>
      </trkpt>
      <trkpt lat="45.84751" lon="-1.21222">
        <ele>66.52</ele>
        <time>2019-08-14T09:18:49.000Z</time>
      </trkpt>
      <trkpt lat="45.84763" lon="-1.21226">
        <ele>66.5</ele>
        <time>2019-08-14T09:18:52.000Z</time>
      </trkpt>
      <trkpt lat="45.84773" lon="-1.21235">
        <ele>66.49</ele>
        <time>2019-08-14T09:18:55.000Z</time>
      </trkpt>
      <trkpt lat="45.84781" lon="-1.21249">
        <ele>66.47</ele>
        <time>2019-08-14T09:18:58.000Z</time>
      </trkpt>
      <trkpt lat="45.84788" lon="-1.21264">
        <ele>66.46</ele>
        <time>2019-08-14T09:19:01.000Z</time>
      </trkpt>
      <trkpt lat="45.84798" lon="-1.21276">
        <ele>66.45</ele>
        <time>2019-08-14T09:19:04.000Z</time>
      </trkpt>
      <trkpt lat="45.84807" lon="-1.21285">
        <ele>66.45</ele>
        <time>2019-08-14T09:19:07.000Z</time>
      </trkpt>
      <trkpt lat="45.84815" lon="-1.21298">
        <ele>66.45</ele>
        <time>2019-08-14T09:19:10.000Z</time>
      </trkpt>
      <trkpt lat="45.84821" lon="-1.21312">
        <ele>66.45</ele>
        <time>2019-08-14T09:19:13.000Z</time>
      </trkpt>
      <trkpt lat="45.84827" lon="-1.21323">
        <ele>66.45</ele>
        <time>2019-08-14T09:19:15.000Z</time>
      </trkpt>
      <trkpt lat="45.84832" lon="-1.21335">
        <ele>66.46</ele>
        <time>2019-08-14T09:19:17.000Z</time>
      </trkpt>
      <trkpt lat="45.84842" lon="-1.2135">
        <ele>66.48</ele>
        <time>2019-08-14T09:19:20.000Z</time>
      </trkpt>
      <trkpt lat="45.84849" lon="-1.21365">
        <ele>66.48</ele>
        <time>2019-08-14T09:19:23.000Z</time>
      </trkpt>
      <trkpt lat="45.84857" lon="-1.21378">
        <ele>66.48</ele>
        <time>2019-08-14T09:19:26.000Z</time>
      </trkpt>
      <trkpt lat="45.84863" lon="-1.21389">
        <ele>66.48</ele>
        <time>2019-08-14T09:19:28.000Z</time>
      </trkpt>
      <trkpt lat="45.84868" lon="-1.21405">
        <ele>66.48</ele>
        <time>2019-08-14T09:19:30.000Z</time>
      </trkpt>
      <trkpt lat="45.84873" lon="-1.21424">
        <ele>66.47</ele>
        <time>2019-08-14T09:19:32.000Z</time>
      </trkpt>
      <trkpt lat="45.84878" lon="-1.2144">
        <ele>66.44</ele>
        <time>2019-08-14T09:19:34.000Z</time>
      </trkpt>
      <trkpt lat="45.84886" lon="-1.21456">
        <ele>66.42</ele>
        <time>2019-08-14T09:19:36.000Z</time>
      </trkpt>
      <trkpt lat="45.84892" lon="-1.2147">
        <ele>66.41</ele>
        <time>2019-08-14T09:19:38.000Z</time>
      </trkpt>
      <trkpt lat="45.84897" lon="-1.21483">
        <ele>66.4</ele>
        <time>2019-08-14T09:19:40.000Z</time>
      </trkpt>
      <trkpt lat="45.84906" lon="-1.21496">
        <ele>66.39</ele>
        <time>2019-08-14T09:19:43.000Z</time>
      </trkpt>
      <trkpt lat="45.84912" lon="-1.21507">
        <ele>66.38</ele>
        <time>2019-08-14T09:19:45.000Z</time>
      </trkpt>
      <trkpt lat="45.84918" lon="-1.21518">
        <ele>66.36</ele>
        <time>2019-08-14T09:19:47.000Z</time>
      </trkpt>
      <trkpt lat="45.84927" lon="-1.21532">
        <ele>66.33</ele>
        <time>2019-08-14T09:19:50.000Z</time>
      </trkpt>
      <trkpt lat="45.84931" lon="-1.21544">
        <ele>66.31</ele>
        <time>2019-08-14T09:19:52.000Z</time>
      </trkpt>
      <trkpt lat="45.84938" lon="-1.21556">
        <ele>66.3</ele>
        <time>2019-08-14T09:19:54.000Z</time>
      </trkpt>
      <trkpt lat="45.84945" lon="-1.21566">
        <ele>66.28</ele>
        <time>2019-08-14T09:19:56.000Z</time>
      </trkpt>
      <trkpt lat="45.84954" lon="-1.21581">
        <ele>66.26</ele>
        <time>2019-08-14T09:19:59.000Z</time>
      </trkpt>
      <trkpt lat="45.84961" lon="-1.21592">
        <ele>66.25</ele>
        <time>2019-08-14T09:20:01.000Z</time>
      </trkpt>
      <trkpt lat="45.84968" lon="-1.21604">
        <ele>66.25</ele>
        <time>2019-08-14T09:20:04.000Z</time>
      </trkpt>
      <trkpt lat="45.84975" lon="-1.21612">
        <ele>66.22</ele>
        <time>2019-08-14T09:20:06.000Z</time>
      </trkpt>
      <trkpt lat="45.84983" lon="-1.21624">
        <ele>66.2</ele>
        <time>2019-08-14T09:20:08.000Z</time>
      </trkpt>
      <trkpt lat="45.84989" lon="-1.21636">
        <ele>66.18</ele>
        <time>2019-08-14T09:20:10.000Z</time>
      </trkpt>
      <trkpt lat="45.84996" lon="-1.21648">
        <ele>66.16</ele>
        <time>2019-08-14T09:20:12.000Z</time>
      </trkpt>
      <trkpt lat="45.85" lon="-1.2166">
        <ele>66.13</ele>
        <time>2019-08-14T09:20:14.000Z</time>
      </trkpt>
      <trkpt lat="45.85005" lon="-1.21674">
        <ele>66.12</ele>
        <time>2019-08-14T09:20:16.000Z</time>
      </trkpt>
      <trkpt lat="45.8501" lon="-1.2169">
        <ele>66.12</ele>
        <time>2019-08-14T09:20:18.000Z</time>
      </trkpt>
      <trkpt lat="45.85015" lon="-1.21702">
        <ele>66.12</ele>
        <time>2019-08-14T09:20:20.000Z</time>
      </trkpt>
      <trkpt lat="45.85023" lon="-1.21714">
        <ele>66.12</ele>
        <time>2019-08-14T09:20:22.000Z</time>
      </trkpt>
      <trkpt lat="45.8503" lon="-1.21727">
        <ele>66.11</ele>
        <time>2019-08-14T09:20:24.000Z</time>
      </trkpt>
      <trkpt lat="45.85036" lon="-1.21738">
        <ele>66.12</ele>
        <time>2019-08-14T09:20:26.000Z</time>
      </trkpt>
      <trkpt lat="45.85041" lon="-1.2175">
        <ele>66.12</ele>
        <time>2019-08-14T09:20:28.000Z</time>
      </trkpt>
      <trkpt lat="45.85047" lon="-1.21761">
        <ele>66.12</ele>
        <time>2019-08-14T09:20:30.000Z</time>
      </trkpt>
      <trkpt lat="45.85053" lon="-1.21778">
        <ele>66.12</ele>
        <time>2019-08-14T09:20:33.000Z</time>
      </trkpt>
      <trkpt lat="45.8506" lon="-1.21788">
        <ele>66.11</ele>
        <time>2019-08-14T09:20:35.000Z</time>
      </trkpt>
      <trkpt lat="45.85064" lon="-1.218">
        <ele>66.11</ele>
        <time>2019-08-14T09:20:37.000Z</time>
      </trkpt>
      <trkpt lat="45.8507" lon="-1.21814">
        <ele>66.1</ele>
        <time>2019-08-14T09:20:40.000Z</time>
      </trkpt>
      <trkpt lat="45.85076" lon="-1.2183">
        <ele>66.08</ele>
        <time>2019-08-14T09:20:42.000Z</time>
      </trkpt>
      <trkpt lat="45.85082" lon="-1.21841">
        <ele>66.07</ele>
        <time>2019-08-14T09:20:43.000Z</time>
      </trkpt>
      <trkpt lat="45.85091" lon="-1.21856">
        <ele>66.07</ele>
        <time>2019-08-14T09:20:45.000Z</time>
      </trkpt>
      <trkpt lat="45.85098" lon="-1.21867">
        <ele>66.05</ele>
        <time>2019-08-14T09:20:47.000Z</time>
      </trkpt>
      <trkpt lat="45.85107" lon="-1.21876">
        <ele>66.03</ele>
        <time>2019-08-14T09:20:49.000Z</time>
      </trkpt>
      <trkpt lat="45.85116" lon="-1.21889">
        <ele>66.01</ele>
        <time>2019-08-14T09:20:52.000Z</time>
      </trkpt>
      <trkpt lat="45.85122" lon="-1.21899">
        <ele>66</ele>
        <time>2019-08-14T09:20:54.000Z</time>
      </trkpt>
      <trkpt lat="45.85129" lon="-1.21909">
        <ele>66</ele>
        <time>2019-08-14T09:20:56.000Z</time>
      </trkpt>
      <trkpt lat="45.85138" lon="-1.21922">
        <ele>66</ele>
        <time>2019-08-14T09:20:58.000Z</time>
      </trkpt>
      <trkpt lat="45.85144" lon="-1.21933">
        <ele>66.01</ele>
        <time>2019-08-14T09:21:00.000Z</time>
      </trkpt>
      <trkpt lat="45.85151" lon="-1.21946">
        <ele>66</ele>
        <time>2019-08-14T09:21:02.000Z</time>
      </trkpt>
      <trkpt lat="45.85159" lon="-1.21958">
        <ele>66.01</ele>
        <time>2019-08-14T09:21:05.000Z</time>
      </trkpt>
      <trkpt lat="45.85163" lon="-1.2197">
        <ele>66.02</ele>
        <time>2019-08-14T09:21:07.000Z</time>
      </trkpt>
      <trkpt lat="45.85169" lon="-1.21983">
        <ele>66</ele>
        <time>2019-08-14T09:21:10.000Z</time>
      </trkpt>
      <trkpt lat="45.85176" lon="-1.21996">
        <ele>65.98</ele>
        <time>2019-08-14T09:21:12.000Z</time>
      </trkpt>
      <trkpt lat="45.85183" lon="-1.22008">
        <ele>65.96</ele>
        <time>2019-08-14T09:21:14.000Z</time>
      </trkpt>
      <trkpt lat="45.8519" lon="-1.2202">
        <ele>65.92</ele>
        <time>2019-08-14T09:21:16.000Z</time>
      </trkpt>
      <trkpt lat="45.85199" lon="-1.22033">
        <ele>65.9</ele>
        <time>2019-08-14T09:21:18.000Z</time>
      </trkpt>
      <trkpt lat="45.85207" lon="-1.22045">
        <ele>65.89</ele>
        <time>2019-08-14T09:21:20.000Z</time>
      </trkpt>
      <trkpt lat="45.85215" lon="-1.22058">
        <ele>65.89</ele>
        <time>2019-08-14T09:21:22.000Z</time>
      </trkpt>
      <trkpt lat="45.85221" lon="-1.22073">
        <ele>65.87</ele>
        <time>2019-08-14T09:21:24.000Z</time>
      </trkpt>
      <trkpt lat="45.85226" lon="-1.22085">
        <ele>65.86</ele>
        <time>2019-08-14T09:21:26.000Z</time>
      </trkpt>
      <trkpt lat="45.85231" lon="-1.22101">
        <ele>65.86</ele>
        <time>2019-08-14T09:21:28.000Z</time>
      </trkpt>
      <trkpt lat="45.85239" lon="-1.22114">
        <ele>65.84</ele>
        <time>2019-08-14T09:21:30.000Z</time>
      </trkpt>
      <trkpt lat="45.85245" lon="-1.22127">
        <ele>65.84</ele>
        <time>2019-08-14T09:21:32.000Z</time>
      </trkpt>
      <trkpt lat="45.85251" lon="-1.22141">
        <ele>65.84</ele>
        <time>2019-08-14T09:21:34.000Z</time>
      </trkpt>
      <trkpt lat="45.85259" lon="-1.22155">
        <ele>65.83</ele>
        <time>2019-08-14T09:21:37.000Z</time>
      </trkpt>
      <trkpt lat="45.85267" lon="-1.22166">
        <ele>65.83</ele>
        <time>2019-08-14T09:21:40.000Z</time>
      </trkpt>
      <trkpt lat="45.85274" lon="-1.22176">
        <ele>65.83</ele>
        <time>2019-08-14T09:21:42.000Z</time>
      </trkpt>
      <trkpt lat="45.8528" lon="-1.22187">
        <ele>65.84</ele>
        <time>2019-08-14T09:21:44.000Z</time>
      </trkpt>
      <trkpt lat="45.85287" lon="-1.22198">
        <ele>65.83</ele>
        <time>2019-08-14T09:21:46.000Z</time>
      </trkpt>
      <trkpt lat="45.85291" lon="-1.22211">
        <ele>65.82</ele>
        <time>2019-08-14T09:21:48.000Z</time>
      </trkpt>
      <trkpt lat="45.85293" lon="-1.22224">
        <ele>65.81</ele>
        <time>2019-08-14T09:21:50.000Z</time>
      </trkpt>
      <trkpt lat="45.85298" lon="-1.22238">
        <ele>65.81</ele>
        <time>2019-08-14T09:21:53.000Z</time>
      </trkpt>
      <trkpt lat="45.85304" lon="-1.2225">
        <ele>65.81</ele>
        <time>2019-08-14T09:21:57.000Z</time>
      </trkpt>
      <trkpt lat="45.8531" lon="-1.22263">
        <ele>65.82</ele>
        <time>2019-08-14T09:22:01.000Z</time>
      </trkpt>
      <trkpt lat="45.85317" lon="-1.2228">
        <ele>65.83</ele>
        <time>2019-08-14T09:22:04.000Z</time>
      </trkpt>
      <trkpt lat="45.85325" lon="-1.22297">
        <ele>65.82</ele>
        <time>2019-08-14T09:22:06.000Z</time>
      </trkpt>
      <trkpt lat="45.85333" lon="-1.22313">
        <ele>65.8</ele>
        <time>2019-08-14T09:22:08.000Z</time>
      </trkpt>
      <trkpt lat="45.85339" lon="-1.22331">
        <ele>65.79</ele>
        <time>2019-08-14T09:22:10.000Z</time>
      </trkpt>
      <trkpt lat="45.85344" lon="-1.22346">
        <ele>65.78</ele>
        <time>2019-08-14T09:22:12.000Z</time>
      </trkpt>
      <trkpt lat="45.8535" lon="-1.2236">
        <ele>65.77</ele>
        <time>2019-08-14T09:22:14.000Z</time>
      </trkpt>
      <trkpt lat="45.85357" lon="-1.22372">
        <ele>65.76</ele>
        <time>2019-08-14T09:22:16.000Z</time>
      </trkpt>
      <trkpt lat="45.85363" lon="-1.22382">
        <ele>65.74</ele>
        <time>2019-08-14T09:22:18.000Z</time>
      </trkpt>
      <trkpt lat="45.85368" lon="-1.22396">
        <ele>65.73</ele>
        <time>2019-08-14T09:22:20.000Z</time>
      </trkpt>
      <trkpt lat="45.85374" lon="-1.22409">
        <ele>65.72</ele>
        <time>2019-08-14T09:22:22.000Z</time>
      </trkpt>
      <trkpt lat="45.85381" lon="-1.22423">
        <ele>65.71</ele>
        <time>2019-08-14T09:22:24.000Z</time>
      </trkpt>
      <trkpt lat="45.85388" lon="-1.22438">
        <ele>65.7</ele>
        <time>2019-08-14T09:22:26.000Z</time>
      </trkpt>
      <trkpt lat="45.85392" lon="-1.22452">
        <ele>65.67</ele>
        <time>2019-08-14T09:22:28.000Z</time>
      </trkpt>
      <trkpt lat="45.85397" lon="-1.22464">
        <ele>65.66</ele>
        <time>2019-08-14T09:22:30.000Z</time>
      </trkpt>
      <trkpt lat="45.85402" lon="-1.22476">
        <ele>65.63</ele>
        <time>2019-08-14T09:22:32.000Z</time>
      </trkpt>
      <trkpt lat="45.85408" lon="-1.22492">
        <ele>65.58</ele>
        <time>2019-08-14T09:22:34.000Z</time>
      </trkpt>
      <trkpt lat="45.85417" lon="-1.22506">
        <ele>65.58</ele>
        <time>2019-08-14T09:22:37.000Z</time>
      </trkpt>
      <trkpt lat="45.85422" lon="-1.22524">
        <ele>65.54</ele>
        <time>2019-08-14T09:22:40.000Z</time>
      </trkpt>
      <trkpt lat="45.85427" lon="-1.22541">
        <ele>65.5</ele>
        <time>2019-08-14T09:22:42.000Z</time>
      </trkpt>
      <trkpt lat="45.85431" lon="-1.22555">
        <ele>65.49</ele>
        <time>2019-08-14T09:22:44.000Z</time>
      </trkpt>
      <trkpt lat="45.85442" lon="-1.22567">
        <ele>65.48</ele>
        <time>2019-08-14T09:22:47.000Z</time>
      </trkpt>
      <trkpt lat="45.8545" lon="-1.22576">
        <ele>65.47</ele>
        <time>2019-08-14T09:22:49.000Z</time>
      </trkpt>
      <trkpt lat="45.8546" lon="-1.22586">
        <ele>65.47</ele>
        <time>2019-08-14T09:22:52.000Z</time>
      </trkpt>
      <trkpt lat="45.85469" lon="-1.22593">
        <ele>65.46</ele>
        <time>2019-08-14T09:22:54.000Z</time>
      </trkpt>
      <trkpt lat="45.85479" lon="-1.22599">
        <ele>65.45</ele>
        <time>2019-08-14T09:22:56.000Z</time>
      </trkpt>
      <trkpt lat="45.8549" lon="-1.2261">
        <ele>65.42</ele>
        <time>2019-08-14T09:22:58.000Z</time>
      </trkpt>
      <trkpt lat="45.85497" lon="-1.22621">
        <ele>65.38</ele>
        <time>2019-08-14T09:23:00.000Z</time>
      </trkpt>
      <trkpt lat="45.85506" lon="-1.22633">
        <ele>65.36</ele>
        <time>2019-08-14T09:23:03.000Z</time>
      </trkpt>
      <trkpt lat="45.85513" lon="-1.22643">
        <ele>65.35</ele>
        <time>2019-08-14T09:23:05.000Z</time>
      </trkpt>
      <trkpt lat="45.8552" lon="-1.22653">
        <ele>65.33</ele>
        <time>2019-08-14T09:23:07.000Z</time>
      </trkpt>
      <trkpt lat="45.85528" lon="-1.22665">
        <ele>65.33</ele>
        <time>2019-08-14T09:23:09.000Z</time>
      </trkpt>
      <trkpt lat="45.85532" lon="-1.22676">
        <ele>65.33</ele>
        <time>2019-08-14T09:23:12.000Z</time>
      </trkpt>
      <trkpt lat="45.8554" lon="-1.22689">
        <ele>65.33</ele>
        <time>2019-08-14T09:23:15.000Z</time>
      </trkpt>
      <trkpt lat="45.85546" lon="-1.22702">
        <ele>65.33</ele>
        <time>2019-08-14T09:23:18.000Z</time>
      </trkpt>
      <trkpt lat="45.85551" lon="-1.22713">
        <ele>65.33</ele>
        <time>2019-08-14T09:23:21.000Z</time>
      </trkpt>
      <trkpt lat="45.85559" lon="-1.22724">
        <ele>65.33</ele>
        <time>2019-08-14T09:23:24.000Z</time>
      </trkpt>
      <trkpt lat="45.85568" lon="-1.2273">
        <ele>65.33</ele>
        <time>2019-08-14T09:23:27.000Z</time>
      </trkpt>
      <trkpt lat="45.85576" lon="-1.22745">
        <ele>65.33</ele>
        <time>2019-08-14T09:23:30.000Z</time>
      </trkpt>
      <trkpt lat="45.85583" lon="-1.22759">
        <ele>65.32</ele>
        <time>2019-08-14T09:23:33.000Z</time>
      </trkpt>
      <trkpt lat="45.85591" lon="-1.22772">
        <ele>65.31</ele>
        <time>2019-08-14T09:23:36.000Z</time>
      </trkpt>
      <trkpt lat="45.85598" lon="-1.22786">
        <ele>65.31</ele>
        <time>2019-08-14T09:23:39.000Z</time>
      </trkpt>
      <trkpt lat="45.85603" lon="-1.22799">
        <ele>65.3</ele>
        <time>2019-08-14T09:23:42.000Z</time>
      </trkpt>
      <trkpt lat="45.8561" lon="-1.22811">
        <ele>65.29</ele>
        <time>2019-08-14T09:23:45.000Z</time>
      </trkpt>
      <trkpt lat="45.85616" lon="-1.2282">
        <ele>65.28</ele>
        <time>2019-08-14T09:23:48.000Z</time>
      </trkpt>
      <trkpt lat="45.85625" lon="-1.22821">
        <ele>65.28</ele>
        <time>2019-08-14T09:23:51.000Z</time>
      </trkpt>
      <trkpt lat="45.85637" lon="-1.22824">
        <ele>65.22</ele>
        <time>2019-08-14T09:23:54.000Z</time>
      </trkpt>
      <trkpt lat="45.85646" lon="-1.22826">
        <ele>65.19</ele>
        <time>2019-08-14T09:23:56.000Z</time>
      </trkpt>
      <trkpt lat="45.85655" lon="-1.2283">
        <ele>65.17</ele>
        <time>2019-08-14T09:23:58.000Z</time>
      </trkpt>
      <trkpt lat="45.85666" lon="-1.22833">
        <ele>65.14</ele>
        <time>2019-08-14T09:24:00.000Z</time>
      </trkpt>
      <trkpt lat="45.85676" lon="-1.22835">
        <ele>65.11</ele>
        <time>2019-08-14T09:24:02.000Z</time>
      </trkpt>
      <trkpt lat="45.85685" lon="-1.22841">
        <ele>65.07</ele>
        <time>2019-08-14T09:24:04.000Z</time>
      </trkpt>
      <trkpt lat="45.85693" lon="-1.22846">
        <ele>65.05</ele>
        <time>2019-08-14T09:24:06.000Z</time>
      </trkpt>
      <trkpt lat="45.85705" lon="-1.22853">
        <ele>65.03</ele>
        <time>2019-08-14T09:24:09.000Z</time>
      </trkpt>
      <trkpt lat="45.85713" lon="-1.2286">
        <ele>65.01</ele>
        <time>2019-08-14T09:24:11.000Z</time>
      </trkpt>
      <trkpt lat="45.85721" lon="-1.22868">
        <ele>64.98</ele>
        <time>2019-08-14T09:24:13.000Z</time>
      </trkpt>
      <trkpt lat="45.85729" lon="-1.22877">
        <ele>64.96</ele>
        <time>2019-08-14T09:24:15.000Z</time>
      </trkpt>
      <trkpt lat="45.85736" lon="-1.22885">
        <ele>64.95</ele>
        <time>2019-08-14T09:24:17.000Z</time>
      </trkpt>
      <trkpt lat="45.85745" lon="-1.2289">
        <ele>64.95</ele>
        <time>2019-08-14T09:24:19.000Z</time>
      </trkpt>
      <trkpt lat="45.85754" lon="-1.22894">
        <ele>64.95</ele>
        <time>2019-08-14T09:24:21.000Z</time>
      </trkpt>
      <trkpt lat="45.85762" lon="-1.22898">
        <ele>64.95</ele>
        <time>2019-08-14T09:24:23.000Z</time>
      </trkpt>
      <trkpt lat="45.85771" lon="-1.22902">
        <ele>64.93</ele>
        <time>2019-08-14T09:24:25.000Z</time>
      </trkpt>
      <trkpt lat="45.85783" lon="-1.22909">
        <ele>64.89</ele>
        <time>2019-08-14T09:24:28.000Z</time>
      </trkpt>
      <trkpt lat="45.85795" lon="-1.22916">
        <ele>64.87</ele>
        <time>2019-08-14T09:24:31.000Z</time>
      </trkpt>
      <trkpt lat="45.85806" lon="-1.22925">
        <ele>64.84</ele>
        <time>2019-08-14T09:24:34.000Z</time>
      </trkpt>
      <trkpt lat="45.85817" lon="-1.22937">
        <ele>64.8</ele>
        <time>2019-08-14T09:24:37.000Z</time>
      </trkpt>
      <trkpt lat="45.85825" lon="-1.22946">
        <ele>64.77</ele>
        <time>2019-08-14T09:24:39.000Z</time>
      </trkpt>
      <trkpt lat="45.85832" lon="-1.22955">
        <ele>64.73</ele>
        <time>2019-08-14T09:24:41.000Z</time>
      </trkpt>
      <trkpt lat="45.85843" lon="-1.22966">
        <ele>64.66</ele>
        <time>2019-08-14T09:24:44.000Z</time>
      </trkpt>
      <trkpt lat="45.85853" lon="-1.22968">
        <ele>64.62</ele>
        <time>2019-08-14T09:24:46.000Z</time>
      </trkpt>
      <trkpt lat="45.85863" lon="-1.22965">
        <ele>64.56</ele>
        <time>2019-08-14T09:24:48.000Z</time>
      </trkpt>
      <trkpt lat="45.85872" lon="-1.2296">
        <ele>64.5</ele>
        <time>2019-08-14T09:24:50.000Z</time>
      </trkpt>
      <trkpt lat="45.85884" lon="-1.22954">
        <ele>64.41</ele>
        <time>2019-08-14T09:24:53.000Z</time>
      </trkpt>
      <trkpt lat="45.85893" lon="-1.22951">
        <ele>64.35</ele>
        <time>2019-08-14T09:24:55.000Z</time>
      </trkpt>
      <trkpt lat="45.85905" lon="-1.22951">
        <ele>64.27</ele>
        <time>2019-08-14T09:24:58.000Z</time>
      </trkpt>
      <trkpt lat="45.85918" lon="-1.22954">
        <ele>64.19</ele>
        <time>2019-08-14T09:25:01.000Z</time>
      </trkpt>
      <trkpt lat="45.85927" lon="-1.22957">
        <ele>64.13</ele>
        <time>2019-08-14T09:25:03.000Z</time>
      </trkpt>
      <trkpt lat="45.85939" lon="-1.2296">
        <ele>64.1</ele>
        <time>2019-08-14T09:25:06.000Z</time>
      </trkpt>
      <trkpt lat="45.85952" lon="-1.22961">
        <ele>64.02</ele>
        <time>2019-08-14T09:25:09.000Z</time>
      </trkpt>
      <trkpt lat="45.85965" lon="-1.2296">
        <ele>63.95</ele>
        <time>2019-08-14T09:25:12.000Z</time>
      </trkpt>
      <trkpt lat="45.85974" lon="-1.22961">
        <ele>63.91</ele>
        <time>2019-08-14T09:25:14.000Z</time>
      </trkpt>
      <trkpt lat="45.85987" lon="-1.22966">
        <ele>63.86</ele>
        <time>2019-08-14T09:25:17.000Z</time>
      </trkpt>
      <trkpt lat="45.85996" lon="-1.22969">
        <ele>63.83</ele>
        <time>2019-08-14T09:25:19.000Z</time>
      </trkpt>
      <trkpt lat="45.86005" lon="-1.22969">
        <ele>63.82</ele>
        <time>2019-08-14T09:25:21.000Z</time>
      </trkpt>
      <trkpt lat="45.86015" lon="-1.22968">
        <ele>63.81</ele>
        <time>2019-08-14T09:25:23.000Z</time>
      </trkpt>
      <trkpt lat="45.86027" lon="-1.22971">
        <ele>63.81</ele>
        <time>2019-08-14T09:25:26.000Z</time>
      </trkpt>
      <trkpt lat="45.86037" lon="-1.22981">
        <ele>63.84</ele>
        <time>2019-08-14T09:25:29.000Z</time>
      </trkpt>
      <trkpt lat="45.86047" lon="-1.22989">
        <ele>63.84</ele>
        <time>2019-08-14T09:25:32.000Z</time>
      </trkpt>
      <trkpt lat="45.86057" lon="-1.22996">
        <ele>63.85</ele>
        <time>2019-08-14T09:25:35.000Z</time>
      </trkpt>
      <trkpt lat="45.86067" lon="-1.23001">
        <ele>63.9</ele>
        <time>2019-08-14T09:25:38.000Z</time>
      </trkpt>
      <trkpt lat="45.86076" lon="-1.23004">
        <ele>63.91</ele>
        <time>2019-08-14T09:25:41.000Z</time>
      </trkpt>
      <trkpt lat="45.86087" lon="-1.23003">
        <ele>63.92</ele>
        <time>2019-08-14T09:25:45.000Z</time>
      </trkpt>
      <trkpt lat="45.86099" lon="-1.23002">
        <ele>63.93</ele>
        <time>2019-08-14T09:25:49.000Z</time>
      </trkpt>
      <trkpt lat="45.86109" lon="-1.22999">
        <ele>63.79</ele>
        <time>2019-08-14T09:26:33.000Z</time>
      </trkpt>
      <trkpt lat="45.86118" lon="-1.23005">
        <ele>63.74</ele>
        <time>2019-08-14T09:26:38.000Z</time>
      </trkpt>
      <trkpt lat="45.86128" lon="-1.2301">
        <ele>63.71</ele>
        <time>2019-08-14T09:26:42.000Z</time>
      </trkpt>
      <trkpt lat="45.86137" lon="-1.23013">
        <ele>63.69</ele>
        <time>2019-08-14T09:26:46.000Z</time>
      </trkpt>
      <trkpt lat="45.86145" lon="-1.2302">
        <ele>63.65</ele>
        <time>2019-08-14T09:26:58.000Z</time>
      </trkpt>
      <trkpt lat="45.86153" lon="-1.23027">
        <ele>63.59</ele>
        <time>2019-08-14T09:27:11.000Z</time>
      </trkpt>
      <trkpt lat="45.86156" lon="-1.2304">
        <ele>63.52</ele>
        <time>2019-08-14T09:27:23.000Z</time>
      </trkpt>
      <trkpt lat="45.86162" lon="-1.23052">
        <ele>63.47</ele>
        <time>2019-08-14T09:27:28.000Z</time>
      </trkpt>
      <trkpt lat="45.86168" lon="-1.23063">
        <ele>63.45</ele>
        <time>2019-08-14T09:27:31.000Z</time>
      </trkpt>
      <trkpt lat="45.86175" lon="-1.23076">
        <ele>63.34</ele>
        <time>2019-08-14T09:27:34.000Z</time>
      </trkpt>
      <trkpt lat="45.86182" lon="-1.23085">
        <ele>63.32</ele>
        <time>2019-08-14T09:27:37.000Z</time>
      </trkpt>
      <trkpt lat="45.8619" lon="-1.23077">
        <ele>63.29</ele>
        <time>2019-08-14T09:27:41.000Z</time>
      </trkpt>
      <trkpt lat="45.86196" lon="-1.23066">
        <ele>63.26</ele>
        <time>2019-08-14T09:27:46.000Z</time>
      </trkpt>
      <trkpt lat="45.86202" lon="-1.23055">
        <ele>63.2</ele>
        <time>2019-08-14T09:27:56.000Z</time>
      </trkpt>
      <trkpt lat="45.86204" lon="-1.23042">
        <ele>63.16</ele>
        <time>2019-08-14T09:28:07.000Z</time>
      </trkpt>
      <trkpt lat="45.86203" lon="-1.23056">
        <ele>63.07</ele>
        <time>2019-08-14T09:28:40.000Z</time>
      </trkpt>
      <trkpt lat="45.86213" lon="-1.23063">
        <ele>62.95</ele>
        <time>2019-08-14T09:28:56.000Z</time>
      </trkpt>
      <trkpt lat="45.86222" lon="-1.23073">
        <ele>62.92</ele>
        <time>2019-08-14T09:29:00.000Z</time>
      </trkpt>
      <trkpt lat="45.86229" lon="-1.23081">
        <ele>62.89</ele>
        <time>2019-08-14T09:29:04.000Z</time>
      </trkpt>
      <trkpt lat="45.86237" lon="-1.2309">
        <ele>62.84</ele>
        <time>2019-08-14T09:29:09.000Z</time>
      </trkpt>
      <trkpt lat="45.86247" lon="-1.23098">
        <ele>62.8</ele>
        <time>2019-08-14T09:29:14.000Z</time>
      </trkpt>
      <trkpt lat="45.86258" lon="-1.23097">
        <ele>62.76</ele>
        <time>2019-08-14T09:29:19.000Z</time>
      </trkpt>
      <trkpt lat="45.86269" lon="-1.23097">
        <ele>62.74</ele>
        <time>2019-08-14T09:29:22.000Z</time>
      </trkpt>
      <trkpt lat="45.86278" lon="-1.23097">
        <ele>62.72</ele>
        <time>2019-08-14T09:29:25.000Z</time>
      </trkpt>
      <trkpt lat="45.86285" lon="-1.23104">
        <ele>62.66</ele>
        <time>2019-08-14T09:29:35.000Z</time>
      </trkpt>
      <trkpt lat="45.86293" lon="-1.23096">
        <ele>62.63</ele>
        <time>2019-08-14T09:29:40.000Z</time>
      </trkpt>
      <trkpt lat="45.86298" lon="-1.23082">
        <ele>62.58</ele>
        <time>2019-08-14T09:29:43.000Z</time>
      </trkpt>
      <trkpt lat="45.86304" lon="-1.23068">
        <ele>62.52</ele>
        <time>2019-08-14T09:29:46.000Z</time>
      </trkpt>
      <trkpt lat="45.8631" lon="-1.23053">
        <ele>62.47</ele>
        <time>2019-08-14T09:29:49.000Z</time>
      </trkpt>
      <trkpt lat="45.86316" lon="-1.23037">
        <ele>62.46</ele>
        <time>2019-08-14T09:29:52.000Z</time>
      </trkpt>
      <trkpt lat="45.86321" lon="-1.23022">
        <ele>62.45</ele>
        <time>2019-08-14T09:29:55.000Z</time>
      </trkpt>
      <trkpt lat="45.86325" lon="-1.2301">
        <ele>62.45</ele>
        <time>2019-08-14T09:29:57.000Z</time>
      </trkpt>
      <trkpt lat="45.86329" lon="-1.22997">
        <ele>62.45</ele>
        <time>2019-08-14T09:29:59.000Z</time>
      </trkpt>
      <trkpt lat="45.86335" lon="-1.2298">
        <ele>62.46</ele>
        <time>2019-08-14T09:30:02.000Z</time>
      </trkpt>
      <trkpt lat="45.86339" lon="-1.22967">
        <ele>62.47</ele>
        <time>2019-08-14T09:30:04.000Z</time>
      </trkpt>
      <trkpt lat="45.86341" lon="-1.22954">
        <ele>62.48</ele>
        <time>2019-08-14T09:30:06.000Z</time>
      </trkpt>
      <trkpt lat="45.86342" lon="-1.22939">
        <ele>62.48</ele>
        <time>2019-08-14T09:30:08.000Z</time>
      </trkpt>
      <trkpt lat="45.86341" lon="-1.22924">
        <ele>62.49</ele>
        <time>2019-08-14T09:30:10.000Z</time>
      </trkpt>
      <trkpt lat="45.8634" lon="-1.22909">
        <ele>62.5</ele>
        <time>2019-08-14T09:30:12.000Z</time>
      </trkpt>
      <trkpt lat="45.86339" lon="-1.22895">
        <ele>62.5</ele>
        <time>2019-08-14T09:30:14.000Z</time>
      </trkpt>
      <trkpt lat="45.86338" lon="-1.2288">
        <ele>62.5</ele>
        <time>2019-08-14T09:30:16.000Z</time>
      </trkpt>
      <trkpt lat="45.86338" lon="-1.22867">
        <ele>62.5</ele>
        <time>2019-08-14T09:30:18.000Z</time>
      </trkpt>
      <trkpt lat="45.86339" lon="-1.2285">
        <ele>62.5</ele>
        <time>2019-08-14T09:30:21.000Z</time>
      </trkpt>
      <trkpt lat="45.86335" lon="-1.22836">
        <ele>62.5</ele>
        <time>2019-08-14T09:30:26.000Z</time>
      </trkpt>
      <trkpt lat="45.86326" lon="-1.2283">
        <ele>62.5</ele>
        <time>2019-08-14T09:30:29.000Z</time>
      </trkpt>
      <trkpt lat="45.86317" lon="-1.22821">
        <ele>62.49</ele>
        <time>2019-08-14T09:30:32.000Z</time>
      </trkpt>
      <trkpt lat="45.86308" lon="-1.22813">
        <ele>62.48</ele>
        <time>2019-08-14T09:30:35.000Z</time>
      </trkpt>
      <trkpt lat="45.86299" lon="-1.22803">
        <ele>62.46</ele>
        <time>2019-08-14T09:30:38.000Z</time>
      </trkpt>
      <trkpt lat="45.8629" lon="-1.22792">
        <ele>62.46</ele>
        <time>2019-08-14T09:30:41.000Z</time>
      </trkpt>
      <trkpt lat="45.86282" lon="-1.22781">
        <ele>62.46</ele>
        <time>2019-08-14T09:30:44.000Z</time>
      </trkpt>
      <trkpt lat="45.86272" lon="-1.2277">
        <ele>62.47</ele>
        <time>2019-08-14T09:30:47.000Z</time>
      </trkpt>
      <trkpt lat="45.86263" lon="-1.22757">
        <ele>62.48</ele>
        <time>2019-08-14T09:30:50.000Z</time>
      </trkpt>
      <trkpt lat="45.86253" lon="-1.22745">
        <ele>62.48</ele>
        <time>2019-08-14T09:30:53.000Z</time>
      </trkpt>
      <trkpt lat="45.86243" lon="-1.22736">
        <ele>62.47</ele>
        <time>2019-08-14T09:30:56.000Z</time>
      </trkpt>
      <trkpt lat="45.86233" lon="-1.22724">
        <ele>62.47</ele>
        <time>2019-08-14T09:30:59.000Z</time>
      </trkpt>
      <trkpt lat="45.86221" lon="-1.22707">
        <ele>62.48</ele>
        <time>2019-08-14T09:31:03.000Z</time>
      </trkpt>
      <trkpt lat="45.86211" lon="-1.22694">
        <ele>62.48</ele>
        <time>2019-08-14T09:31:06.000Z</time>
      </trkpt>
      <trkpt lat="45.86201" lon="-1.22681">
        <ele>62.48</ele>
        <time>2019-08-14T09:31:09.000Z</time>
      </trkpt>
      <trkpt lat="45.8619" lon="-1.22668">
        <ele>62.47</ele>
        <time>2019-08-14T09:31:12.000Z</time>
      </trkpt>
      <trkpt lat="45.86181" lon="-1.22661">
        <ele>62.47</ele>
        <time>2019-08-14T09:31:14.000Z</time>
      </trkpt>
      <trkpt lat="45.86171" lon="-1.22655">
        <ele>62.47</ele>
        <time>2019-08-14T09:31:16.000Z</time>
      </trkpt>
      <trkpt lat="45.86162" lon="-1.22648">
        <ele>62.47</ele>
        <time>2019-08-14T09:31:18.000Z</time>
      </trkpt>
      <trkpt lat="45.86151" lon="-1.22634">
        <ele>62.47</ele>
        <time>2019-08-14T09:31:21.000Z</time>
      </trkpt>
      <trkpt lat="45.86146" lon="-1.22623">
        <ele>62.47</ele>
        <time>2019-08-14T09:31:23.000Z</time>
      </trkpt>
      <trkpt lat="45.8614" lon="-1.22612">
        <ele>62.46</ele>
        <time>2019-08-14T09:31:25.000Z</time>
      </trkpt>
      <trkpt lat="45.86134" lon="-1.22601">
        <ele>62.45</ele>
        <time>2019-08-14T09:31:27.000Z</time>
      </trkpt>
      <trkpt lat="45.86127" lon="-1.22588">
        <ele>62.44</ele>
        <time>2019-08-14T09:31:29.000Z</time>
      </trkpt>
      <trkpt lat="45.86121" lon="-1.22575">
        <ele>62.42</ele>
        <time>2019-08-14T09:31:31.000Z</time>
      </trkpt>
      <trkpt lat="45.86118" lon="-1.22559">
        <ele>62.41</ele>
        <time>2019-08-14T09:31:33.000Z</time>
      </trkpt>
      <trkpt lat="45.86116" lon="-1.22546">
        <ele>62.4</ele>
        <time>2019-08-14T09:31:35.000Z</time>
      </trkpt>
      <trkpt lat="45.86112" lon="-1.22521">
        <ele>62.4</ele>
        <time>2019-08-14T09:31:39.000Z</time>
      </trkpt>
      <trkpt lat="45.8611" lon="-1.22502">
        <ele>62.39</ele>
        <time>2019-08-14T09:31:42.000Z</time>
      </trkpt>
      <trkpt lat="45.86108" lon="-1.22489">
        <ele>62.39</ele>
        <time>2019-08-14T09:31:44.000Z</time>
      </trkpt>
      <trkpt lat="45.86105" lon="-1.22475">
        <ele>62.39</ele>
        <time>2019-08-14T09:31:46.000Z</time>
      </trkpt>
      <trkpt lat="45.86103" lon="-1.22461">
        <ele>62.39</ele>
        <time>2019-08-14T09:31:48.000Z</time>
      </trkpt>
      <trkpt lat="45.861" lon="-1.22447">
        <ele>62.39</ele>
        <time>2019-08-14T09:31:50.000Z</time>
      </trkpt>
      <trkpt lat="45.86097" lon="-1.22433">
        <ele>62.38</ele>
        <time>2019-08-14T09:31:52.000Z</time>
      </trkpt>
      <trkpt lat="45.86092" lon="-1.2242">
        <ele>62.37</ele>
        <time>2019-08-14T09:31:54.000Z</time>
      </trkpt>
      <trkpt lat="45.86086" lon="-1.22409">
        <ele>62.37</ele>
        <time>2019-08-14T09:31:56.000Z</time>
      </trkpt>
      <trkpt lat="45.8608" lon="-1.22397">
        <ele>62.36</ele>
        <time>2019-08-14T09:31:58.000Z</time>
      </trkpt>
      <trkpt lat="45.86073" lon="-1.22387">
        <ele>62.35</ele>
        <time>2019-08-14T09:32:00.000Z</time>
      </trkpt>
      <trkpt lat="45.86064" lon="-1.22372">
        <ele>62.34</ele>
        <time>2019-08-14T09:32:03.000Z</time>
      </trkpt>
      <trkpt lat="45.86055" lon="-1.2236">
        <ele>62.35</ele>
        <time>2019-08-14T09:32:06.000Z</time>
      </trkpt>
      <trkpt lat="45.86043" lon="-1.22352">
        <ele>62.36</ele>
        <time>2019-08-14T09:32:09.000Z</time>
      </trkpt>
      <trkpt lat="45.86034" lon="-1.22354">
        <ele>62.35</ele>
        <time>2019-08-14T09:32:11.000Z</time>
      </trkpt>
      <trkpt lat="45.86022" lon="-1.22366">
        <ele>62.32</ele>
        <time>2019-08-14T09:32:14.000Z</time>
      </trkpt>
      <trkpt lat="45.86014" lon="-1.22372">
        <ele>62.3</ele>
        <time>2019-08-14T09:32:16.000Z</time>
      </trkpt>
      <trkpt lat="45.86003" lon="-1.22371">
        <ele>62.27</ele>
        <time>2019-08-14T09:32:19.000Z</time>
      </trkpt>
      <trkpt lat="45.85994" lon="-1.2236">
        <ele>62.26</ele>
        <time>2019-08-14T09:32:22.000Z</time>
      </trkpt>
      <trkpt lat="45.85989" lon="-1.22349">
        <ele>62.26</ele>
        <time>2019-08-14T09:32:25.000Z</time>
      </trkpt>
      <trkpt lat="45.85989" lon="-1.22335">
        <ele>62.26</ele>
        <time>2019-08-14T09:32:28.000Z</time>
      </trkpt>
      <trkpt lat="45.85988" lon="-1.2232">
        <ele>62.26</ele>
        <time>2019-08-14T09:32:31.000Z</time>
      </trkpt>
      <trkpt lat="45.85984" lon="-1.22308">
        <ele>62.26</ele>
        <time>2019-08-14T09:32:34.000Z</time>
      </trkpt>
      <trkpt lat="45.85977" lon="-1.22296">
        <ele>62.26</ele>
        <time>2019-08-14T09:32:38.000Z</time>
      </trkpt>
      <trkpt lat="45.85967" lon="-1.22289">
        <ele>62.26</ele>
        <time>2019-08-14T09:32:41.000Z</time>
      </trkpt>
      <trkpt lat="45.85958" lon="-1.2228">
        <ele>62.26</ele>
        <time>2019-08-14T09:32:44.000Z</time>
      </trkpt>
      <trkpt lat="45.85949" lon="-1.22271">
        <ele>62.26</ele>
        <time>2019-08-14T09:32:47.000Z</time>
      </trkpt>
      <trkpt lat="45.85941" lon="-1.22259">
        <ele>62.25</ele>
        <time>2019-08-14T09:32:50.000Z</time>
      </trkpt>
      <trkpt lat="45.85933" lon="-1.22247">
        <ele>62.25</ele>
        <time>2019-08-14T09:32:53.000Z</time>
      </trkpt>
      <trkpt lat="45.85927" lon="-1.22236">
        <ele>62.23</ele>
        <time>2019-08-14T09:32:56.000Z</time>
      </trkpt>
      <trkpt lat="45.85936" lon="-1.22229">
        <ele>61.97</ele>
        <time>2019-08-14T09:34:00.000Z</time>
      </trkpt>
      <trkpt lat="45.85945" lon="-1.22219">
        <ele>61.87</ele>
        <time>2019-08-14T09:34:06.000Z</time>
      </trkpt>
      <trkpt lat="45.85953" lon="-1.22212">
        <ele>61.81</ele>
        <time>2019-08-14T09:34:10.000Z</time>
      </trkpt>
      <trkpt lat="45.8596" lon="-1.222">
        <ele>61.76</ele>
        <time>2019-08-14T09:34:13.000Z</time>
      </trkpt>
      <trkpt lat="45.8596" lon="-1.22187">
        <ele>61.57</ele>
        <time>2019-08-14T09:34:16.000Z</time>
      </trkpt>
      <trkpt lat="45.8595" lon="-1.22176">
        <ele>61.54</ele>
        <time>2019-08-14T09:34:19.000Z</time>
      </trkpt>
      <trkpt lat="45.8594" lon="-1.22173">
        <ele>61.5</ele>
        <time>2019-08-14T09:34:22.000Z</time>
      </trkpt>
      <trkpt lat="45.85928" lon="-1.22171">
        <ele>61.46</ele>
        <time>2019-08-14T09:34:25.000Z</time>
      </trkpt>
      <trkpt lat="45.8592" lon="-1.22162">
        <ele>61.43</ele>
        <time>2019-08-14T09:34:28.000Z</time>
      </trkpt>
      <trkpt lat="45.85915" lon="-1.2215">
        <ele>61.4</ele>
        <time>2019-08-14T09:34:31.000Z</time>
      </trkpt>
      <trkpt lat="45.85911" lon="-1.22138">
        <ele>61.3</ele>
        <time>2019-08-14T09:34:34.000Z</time>
      </trkpt>
      <trkpt lat="45.85909" lon="-1.22123">
        <ele>61.28</ele>
        <time>2019-08-14T09:34:37.000Z</time>
      </trkpt>
      <trkpt lat="45.85908" lon="-1.22107">
        <ele>61.27</ele>
        <time>2019-08-14T09:34:40.000Z</time>
      </trkpt>
      <trkpt lat="45.85907" lon="-1.22093">
        <ele>61.26</ele>
        <time>2019-08-14T09:34:43.000Z</time>
      </trkpt>
      <trkpt lat="45.85909" lon="-1.22078">
        <ele>61.25</ele>
        <time>2019-08-14T09:34:46.000Z</time>
      </trkpt>
      <trkpt lat="45.85909" lon="-1.22062">
        <ele>61.28</ele>
        <time>2019-08-14T09:34:49.000Z</time>
      </trkpt>
      <trkpt lat="45.85909" lon="-1.22045">
        <ele>61.3</ele>
        <time>2019-08-14T09:34:52.000Z</time>
      </trkpt>
      <trkpt lat="45.85909" lon="-1.22028">
        <ele>61.3</ele>
        <time>2019-08-14T09:34:55.000Z</time>
      </trkpt>
      <trkpt lat="45.85913" lon="-1.22013">
        <ele>61.31</ele>
        <time>2019-08-14T09:34:58.000Z</time>
      </trkpt>
      <trkpt lat="45.8592" lon="-1.22">
        <ele>61.3</ele>
        <time>2019-08-14T09:35:01.000Z</time>
      </trkpt>
      <trkpt lat="45.85929" lon="-1.21991">
        <ele>61.29</ele>
        <time>2019-08-14T09:35:04.000Z</time>
      </trkpt>
      <trkpt lat="45.85936" lon="-1.21983">
        <ele>61.27</ele>
        <time>2019-08-14T09:35:07.000Z</time>
      </trkpt>
      <trkpt lat="45.85942" lon="-1.21972">
        <ele>61.25</ele>
        <time>2019-08-14T09:35:10.000Z</time>
      </trkpt>
      <trkpt lat="45.85948" lon="-1.21961">
        <ele>61.22</ele>
        <time>2019-08-14T09:35:13.000Z</time>
      </trkpt>
      <trkpt lat="45.85949" lon="-1.21944">
        <ele>61.18</ele>
        <time>2019-08-14T09:35:17.000Z</time>
      </trkpt>
      <trkpt lat="45.85948" lon="-1.2193">
        <ele>61.15</ele>
        <time>2019-08-14T09:35:20.000Z</time>
      </trkpt>
      <trkpt lat="45.85947" lon="-1.21916">
        <ele>61.12</ele>
        <time>2019-08-14T09:35:23.000Z</time>
      </trkpt>
      <trkpt lat="45.85945" lon="-1.21903">
        <ele>61.09</ele>
        <time>2019-08-14T09:35:26.000Z</time>
      </trkpt>
      <trkpt lat="45.85943" lon="-1.21888">
        <ele>61.07</ele>
        <time>2019-08-14T09:35:29.000Z</time>
      </trkpt>
      <trkpt lat="45.85942" lon="-1.21874">
        <ele>61.05</ele>
        <time>2019-08-14T09:35:32.000Z</time>
      </trkpt>
      <trkpt lat="45.85941" lon="-1.21858">
        <ele>61.03</ele>
        <time>2019-08-14T09:35:35.000Z</time>
      </trkpt>
      <trkpt lat="45.85943" lon="-1.21841">
        <ele>60.84</ele>
        <time>2019-08-14T09:35:38.000Z</time>
      </trkpt>
      <trkpt lat="45.85951" lon="-1.21826">
        <ele>60.71</ele>
        <time>2019-08-14T09:35:41.000Z</time>
      </trkpt>
      <trkpt lat="45.85959" lon="-1.21815">
        <ele>60.69</ele>
        <time>2019-08-14T09:35:44.000Z</time>
      </trkpt>
      <trkpt lat="45.85965" lon="-1.21802">
        <ele>60.68</ele>
        <time>2019-08-14T09:35:47.000Z</time>
      </trkpt>
      <trkpt lat="45.85972" lon="-1.21787">
        <ele>60.52</ele>
        <time>2019-08-14T09:35:50.000Z</time>
      </trkpt>
      <trkpt lat="45.85974" lon="-1.21772">
        <ele>60.39</ele>
        <time>2019-08-14T09:35:53.000Z</time>
      </trkpt>
      <trkpt lat="45.85972" lon="-1.21758">
        <ele>60.33</ele>
        <time>2019-08-14T09:35:56.000Z</time>
      </trkpt>
      <trkpt lat="45.85976" lon="-1.21746">
        <ele>60.32</ele>
        <time>2019-08-14T09:35:59.000Z</time>
      </trkpt>
      <trkpt lat="45.85983" lon="-1.21733">
        <ele>60.31</ele>
        <time>2019-08-14T09:36:02.000Z</time>
      </trkpt>
      <trkpt lat="45.85991" lon="-1.21721">
        <ele>60.29</ele>
        <time>2019-08-14T09:36:05.000Z</time>
      </trkpt>
      <trkpt lat="45.85996" lon="-1.21705">
        <ele>60.27</ele>
        <time>2019-08-14T09:36:08.000Z</time>
      </trkpt>
      <trkpt lat="45.85992" lon="-1.2169">
        <ele>60.25</ele>
        <time>2019-08-14T09:36:11.000Z</time>
      </trkpt>
      <trkpt lat="45.85985" lon="-1.21677">
        <ele>60.22</ele>
        <time>2019-08-14T09:36:14.000Z</time>
      </trkpt>
      <trkpt lat="45.85978" lon="-1.21666">
        <ele>60.2</ele>
        <time>2019-08-14T09:36:17.000Z</time>
      </trkpt>
      <trkpt lat="45.85971" lon="-1.21655">
        <ele>60.17</ele>
        <time>2019-08-14T09:36:20.000Z</time>
      </trkpt>
      <trkpt lat="45.85964" lon="-1.21643">
        <ele>60.16</ele>
        <time>2019-08-14T09:36:23.000Z</time>
      </trkpt>
      <trkpt lat="45.85957" lon="-1.2163">
        <ele>60.08</ele>
        <time>2019-08-14T09:36:26.000Z</time>
      </trkpt>
      <trkpt lat="45.8595" lon="-1.21617">
        <ele>60.07</ele>
        <time>2019-08-14T09:36:29.000Z</time>
      </trkpt>
      <trkpt lat="45.85945" lon="-1.21605">
        <ele>60.08</ele>
        <time>2019-08-14T09:36:32.000Z</time>
      </trkpt>
      <trkpt lat="45.85938" lon="-1.21592">
        <ele>60.14</ele>
        <time>2019-08-14T09:36:35.000Z</time>
      </trkpt>
      <trkpt lat="45.85932" lon="-1.21578">
        <ele>60.23</ele>
        <time>2019-08-14T09:36:38.000Z</time>
      </trkpt>
      <trkpt lat="45.85927" lon="-1.21564">
        <ele>60.3</ele>
        <time>2019-08-14T09:36:41.000Z</time>
      </trkpt>
      <trkpt lat="45.85922" lon="-1.2155">
        <ele>60.36</ele>
        <time>2019-08-14T09:36:44.000Z</time>
      </trkpt>
      <trkpt lat="45.85917" lon="-1.21536">
        <ele>60.42</ele>
        <time>2019-08-14T09:36:47.000Z</time>
      </trkpt>
      <trkpt lat="45.85911" lon="-1.21522">
        <ele>60.44</ele>
        <time>2019-08-14T09:36:49.999Z</time>
      </trkpt>
      <trkpt lat="45.85906" lon="-1.21509">
        <ele>60.57</ele>
        <time>2019-08-14T09:36:52.999Z</time>
      </trkpt>
      <trkpt lat="45.85899" lon="-1.21496">
        <ele>60.84</ele>
        <time>2019-08-14T09:36:55.999Z</time>
      </trkpt>
      <trkpt lat="45.85892" lon="-1.21483">
        <ele>61.07</ele>
        <time>2019-08-14T09:36:58.999Z</time>
      </trkpt>
      <trkpt lat="45.85885" lon="-1.2147">
        <ele>61.09</ele>
        <time>2019-08-14T09:37:01.999Z</time>
      </trkpt>
      <trkpt lat="45.85879" lon="-1.21459">
        <ele>61.13</ele>
        <time>2019-08-14T09:37:04.999Z</time>
      </trkpt>
      <trkpt lat="45.85873" lon="-1.21445">
        <ele>61.17</ele>
        <time>2019-08-14T09:37:07.999Z</time>
      </trkpt>
      <trkpt lat="45.85864" lon="-1.21435">
        <ele>61.21</ele>
        <time>2019-08-14T09:37:10.999Z</time>
      </trkpt>
      <trkpt lat="45.85853" lon="-1.21435">
        <ele>61.39</ele>
        <time>2019-08-14T09:37:13.999Z</time>
      </trkpt>
      <trkpt lat="45.85843" lon="-1.21438">
        <ele>61.62</ele>
        <time>2019-08-14T09:37:16.999Z</time>
      </trkpt>
      <trkpt lat="45.85831" lon="-1.21439">
        <ele>61.75</ele>
        <time>2019-08-14T09:37:19.999Z</time>
      </trkpt>
      <trkpt lat="45.85821" lon="-1.21433">
        <ele>61.79</ele>
        <time>2019-08-14T09:37:22.999Z</time>
      </trkpt>
      <trkpt lat="45.85811" lon="-1.21425">
        <ele>61.79</ele>
        <time>2019-08-14T09:37:25.999Z</time>
      </trkpt>
      <trkpt lat="45.85802" lon="-1.21424">
        <ele>61.79</ele>
        <time>2019-08-14T09:37:28.999Z</time>
      </trkpt>
      <trkpt lat="45.85791" lon="-1.21428">
        <ele>61.77</ele>
        <time>2019-08-14T09:37:32.999Z</time>
      </trkpt>
      <trkpt lat="45.8578" lon="-1.21428">
        <ele>61.75</ele>
        <time>2019-08-14T09:37:35.999Z</time>
      </trkpt>
      <trkpt lat="45.85768" lon="-1.21433">
        <ele>61.73</ele>
        <time>2019-08-14T09:37:39.999Z</time>
      </trkpt>
      <trkpt lat="45.85759" lon="-1.21438">
        <ele>61.72</ele>
        <time>2019-08-14T09:37:42.999Z</time>
      </trkpt>
      <trkpt lat="45.85749" lon="-1.2144">
        <ele>61.7</ele>
        <time>2019-08-14T09:37:46.999Z</time>
      </trkpt>
      <trkpt lat="45.85739" lon="-1.21447">
        <ele>61.47</ele>
        <time>2019-08-14T09:38:45.999Z</time>
      </trkpt>
      <trkpt lat="45.85734" lon="-1.2146">
        <ele>61.41</ele>
        <time>2019-08-14T09:38:49.999Z</time>
      </trkpt>
      <trkpt lat="45.8573" lon="-1.21471">
        <ele>61.38</ele>
        <time>2019-08-14T09:38:52.999Z</time>
      </trkpt>
      <trkpt lat="45.85724" lon="-1.21483">
        <ele>61.33</ele>
        <time>2019-08-14T09:38:56.999Z</time>
      </trkpt>
      <trkpt lat="45.85719" lon="-1.21494">
        <ele>61.27</ele>
        <time>2019-08-14T09:39:01.999Z</time>
      </trkpt>
      <trkpt lat="45.8571" lon="-1.21487">
        <ele>61.22</ele>
        <time>2019-08-14T09:39:06.999Z</time>
      </trkpt>
      <trkpt lat="45.85701" lon="-1.21478">
        <ele>61.17</ele>
        <time>2019-08-14T09:39:11.999Z</time>
      </trkpt>
      <trkpt lat="45.85693" lon="-1.21471">
        <ele>61.14</ele>
        <time>2019-08-14T09:39:15.999Z</time>
      </trkpt>
      <trkpt lat="45.85685" lon="-1.21464">
        <ele>61.11</ele>
        <time>2019-08-14T09:39:19.999Z</time>
      </trkpt>
      <trkpt lat="45.85676" lon="-1.21458">
        <ele>61.08</ele>
        <time>2019-08-14T09:39:24.999Z</time>
      </trkpt>
      <trkpt lat="45.85685" lon="-1.21462">
        <ele>60.8</ele>
        <time>2019-08-14T09:40:46.999Z</time>
      </trkpt>
      <trkpt lat="45.85695" lon="-1.21468">
        <ele>60.74</ele>
        <time>2019-08-14T09:40:51.999Z</time>
      </trkpt>
      <trkpt lat="45.85703" lon="-1.21475">
        <ele>60.69</ele>
        <time>2019-08-14T09:40:55.999Z</time>
      </trkpt>
      <trkpt lat="45.85713" lon="-1.21478">
        <ele>60.63</ele>
        <time>2019-08-14T09:41:00.999Z</time>
      </trkpt>
      <trkpt lat="45.85723" lon="-1.2147">
        <ele>60.6</ele>
        <time>2019-08-14T09:41:03.999Z</time>
      </trkpt>
      <trkpt lat="45.8573" lon="-1.21458">
        <ele>60.56</ele>
        <time>2019-08-14T09:41:06.999Z</time>
      </trkpt>
      <trkpt lat="45.85737" lon="-1.21446">
        <ele>60.51</ele>
        <time>2019-08-14T09:41:10.999Z</time>
      </trkpt>
      <trkpt lat="45.85743" lon="-1.21436">
        <ele>60.46</ele>
        <time>2019-08-14T09:41:14.999Z</time>
      </trkpt>
      <trkpt lat="45.85754" lon="-1.2143">
        <ele>60.4</ele>
        <time>2019-08-14T09:41:18.999Z</time>
      </trkpt>
      <trkpt lat="45.85764" lon="-1.21431">
        <ele>60.34</ele>
        <time>2019-08-14T09:41:22.999Z</time>
      </trkpt>
      <trkpt lat="45.85774" lon="-1.21427">
        <ele>60.28</ele>
        <time>2019-08-14T09:41:26.999Z</time>
      </trkpt>
      <trkpt lat="45.85783" lon="-1.21424">
        <ele>60.23</ele>
        <time>2019-08-14T09:41:29.999Z</time>
      </trkpt>
      <trkpt lat="45.85794" lon="-1.21424">
        <ele>60.17</ele>
        <time>2019-08-14T09:41:32.999Z</time>
      </trkpt>
      <trkpt lat="45.85804" lon="-1.21421">
        <ele>60.1</ele>
        <time>2019-08-14T09:41:35.999Z</time>
      </trkpt>
      <trkpt lat="45.85815" lon="-1.21417">
        <ele>59.82</ele>
        <time>2019-08-14T09:41:38.999Z</time>
      </trkpt>
      <trkpt lat="45.85826" lon="-1.21421">
        <ele>59.44</ele>
        <time>2019-08-14T09:41:41.999Z</time>
      </trkpt>
      <trkpt lat="45.85836" lon="-1.21429">
        <ele>59.37</ele>
        <time>2019-08-14T09:41:45.999Z</time>
      </trkpt>
      <trkpt lat="45.85846" lon="-1.21428">
        <ele>59.29</ele>
        <time>2019-08-14T09:41:49.999Z</time>
      </trkpt>
      <trkpt lat="45.85857" lon="-1.21422">
        <ele>59.2</ele>
        <time>2019-08-14T09:41:53.999Z</time>
      </trkpt>
      <trkpt lat="45.85866" lon="-1.2142">
        <ele>59.13</ele>
        <time>2019-08-14T09:41:56.999Z</time>
      </trkpt>
      <trkpt lat="45.85874" lon="-1.2143">
        <ele>59</ele>
        <time>2019-08-14T09:42:01.999Z</time>
      </trkpt>
      <trkpt lat="45.85879" lon="-1.21443">
        <ele>58.92</ele>
        <time>2019-08-14T09:42:04.999Z</time>
      </trkpt>
      <trkpt lat="45.85884" lon="-1.21455">
        <ele>58.85</ele>
        <time>2019-08-14T09:42:07.999Z</time>
      </trkpt>
      <trkpt lat="45.85889" lon="-1.21467">
        <ele>58.77</ele>
        <time>2019-08-14T09:42:10.999Z</time>
      </trkpt>
      <trkpt lat="45.85894" lon="-1.2148">
        <ele>58.7</ele>
        <time>2019-08-14T09:42:13.999Z</time>
      </trkpt>
      <trkpt lat="45.859" lon="-1.21496">
        <ele>58.61</ele>
        <time>2019-08-14T09:42:17.999Z</time>
      </trkpt>
      <trkpt lat="45.85906" lon="-1.21512">
        <ele>58.55</ele>
        <time>2019-08-14T09:42:20.999Z</time>
      </trkpt>
      <trkpt lat="45.85912" lon="-1.21527">
        <ele>58.48</ele>
        <time>2019-08-14T09:42:23.999Z</time>
      </trkpt>
      <trkpt lat="45.85916" lon="-1.21541">
        <ele>58.25</ele>
        <time>2019-08-14T09:42:26.999Z</time>
      </trkpt>
      <trkpt lat="45.85921" lon="-1.21553">
        <ele>58.21</ele>
        <time>2019-08-14T09:42:29.999Z</time>
      </trkpt>
      <trkpt lat="45.85924" lon="-1.21567">
        <ele>58.15</ele>
        <time>2019-08-14T09:42:33.999Z</time>
      </trkpt>
      <trkpt lat="45.85928" lon="-1.21578">
        <ele>58.11</ele>
        <time>2019-08-14T09:42:36.999Z</time>
      </trkpt>
      <trkpt lat="45.85932" lon="-1.21592">
        <ele>58.07</ele>
        <time>2019-08-14T09:42:39.999Z</time>
      </trkpt>
      <trkpt lat="45.85937" lon="-1.21605">
        <ele>57.9</ele>
        <time>2019-08-14T09:42:42.999Z</time>
      </trkpt>
      <trkpt lat="45.85942" lon="-1.21619">
        <ele>57.69</ele>
        <time>2019-08-14T09:42:45.999Z</time>
      </trkpt>
      <trkpt lat="45.85947" lon="-1.21632">
        <ele>57.67</ele>
        <time>2019-08-14T09:42:48.999Z</time>
      </trkpt>
      <trkpt lat="45.85952" lon="-1.21644">
        <ele>57.64</ele>
        <time>2019-08-14T09:42:51.999Z</time>
      </trkpt>
      <trkpt lat="45.85959" lon="-1.21657">
        <ele>57.62</ele>
        <time>2019-08-14T09:42:54.999Z</time>
      </trkpt>
      <trkpt lat="45.85967" lon="-1.21672">
        <ele>57.54</ele>
        <time>2019-08-14T09:42:57.999Z</time>
      </trkpt>
      <trkpt lat="45.85973" lon="-1.21686">
        <ele>57.47</ele>
        <time>2019-08-14T09:43:00.999Z</time>
      </trkpt>
      <trkpt lat="45.85979" lon="-1.21702">
        <ele>57.37</ele>
        <time>2019-08-14T09:43:03.999Z</time>
      </trkpt>
      <trkpt lat="45.85977" lon="-1.21717">
        <ele>57.35</ele>
        <time>2019-08-14T09:43:06.999Z</time>
      </trkpt>
      <trkpt lat="45.8597" lon="-1.2173">
        <ele>57.34</ele>
        <time>2019-08-14T09:43:10.999Z</time>
      </trkpt>
      <trkpt lat="45.85963" lon="-1.21742">
        <ele>57.34</ele>
        <time>2019-08-14T09:43:14.999Z</time>
      </trkpt>
      <trkpt lat="45.8596" lon="-1.21755">
        <ele>57.34</ele>
        <time>2019-08-14T09:43:17.999Z</time>
      </trkpt>
      <trkpt lat="45.8596" lon="-1.21771">
        <ele>57.34</ele>
        <time>2019-08-14T09:43:20.999Z</time>
      </trkpt>
      <trkpt lat="45.8596" lon="-1.21784">
        <ele>57.34</ele>
        <time>2019-08-14T09:43:23.999Z</time>
      </trkpt>
      <trkpt lat="45.85955" lon="-1.21796">
        <ele>57.34</ele>
        <time>2019-08-14T09:43:27.999Z</time>
      </trkpt>
      <trkpt lat="45.85949" lon="-1.2181">
        <ele>57.33</ele>
        <time>2019-08-14T09:43:31.999Z</time>
      </trkpt>
      <trkpt lat="45.85943" lon="-1.21821">
        <ele>57.32</ele>
        <time>2019-08-14T09:43:34.999Z</time>
      </trkpt>
      <trkpt lat="45.85936" lon="-1.21831">
        <ele>57.31</ele>
        <time>2019-08-14T09:43:37.999Z</time>
      </trkpt>
      <trkpt lat="45.85931" lon="-1.21843">
        <ele>57.29</ele>
        <time>2019-08-14T09:43:40.999Z</time>
      </trkpt>
      <trkpt lat="45.8593" lon="-1.21857">
        <ele>57.27</ele>
        <time>2019-08-14T09:43:43.999Z</time>
      </trkpt>
      <trkpt lat="45.8593" lon="-1.21873">
        <ele>57.26</ele>
        <time>2019-08-14T09:43:46.999Z</time>
      </trkpt>
      <trkpt lat="45.8593" lon="-1.21889">
        <ele>57.24</ele>
        <time>2019-08-14T09:43:49.999Z</time>
      </trkpt>
      <trkpt lat="45.85932" lon="-1.21904">
        <ele>57.22</ele>
        <time>2019-08-14T09:43:52.999Z</time>
      </trkpt>
      <trkpt lat="45.85933" lon="-1.21919">
        <ele>57.15</ele>
        <time>2019-08-14T09:43:55.999Z</time>
      </trkpt>
      <trkpt lat="45.85933" lon="-1.21934">
        <ele>57.13</ele>
        <time>2019-08-14T09:43:58.999Z</time>
      </trkpt>
      <trkpt lat="45.85932" lon="-1.2195">
        <ele>57.07</ele>
        <time>2019-08-14T09:44:01.999Z</time>
      </trkpt>
      <trkpt lat="45.85929" lon="-1.21962">
        <ele>57.05</ele>
        <time>2019-08-14T09:44:04.999Z</time>
      </trkpt>
      <trkpt lat="45.85923" lon="-1.21973">
        <ele>57.04</ele>
        <time>2019-08-14T09:44:07.999Z</time>
      </trkpt>
      <trkpt lat="45.85917" lon="-1.21982">
        <ele>57.03</ele>
        <time>2019-08-14T09:44:10.999Z</time>
      </trkpt>
      <trkpt lat="45.85909" lon="-1.21993">
        <ele>57.01</ele>
        <time>2019-08-14T09:44:14.999Z</time>
      </trkpt>
      <trkpt lat="45.85902" lon="-1.22004">
        <ele>56.99</ele>
        <time>2019-08-14T09:44:18.999Z</time>
      </trkpt>
      <trkpt lat="45.85894" lon="-1.21999">
        <ele>56.93</ele>
        <time>2019-08-14T09:44:30.999Z</time>
      </trkpt>
      <trkpt lat="45.85885" lon="-1.21995">
        <ele>56.91</ele>
        <time>2019-08-14T09:44:36.999Z</time>
      </trkpt>
      <trkpt lat="45.85876" lon="-1.21992">
        <ele>56.9</ele>
        <time>2019-08-14T09:44:41.999Z</time>
      </trkpt>
      <trkpt lat="45.85867" lon="-1.21991">
        <ele>56.89</ele>
        <time>2019-08-14T09:44:46.999Z</time>
      </trkpt>
      <trkpt lat="45.85855" lon="-1.2199">
        <ele>56.88</ele>
        <time>2019-08-14T09:44:50.999Z</time>
      </trkpt>
      <trkpt lat="45.85845" lon="-1.21989">
        <ele>56.87</ele>
        <time>2019-08-14T09:44:54.999Z</time>
      </trkpt>
      <trkpt lat="45.85834" lon="-1.21987">
        <ele>56.87</ele>
        <time>2019-08-14T09:44:58.999Z</time>
      </trkpt>
      <trkpt lat="45.85823" lon="-1.21984">
        <ele>56.86</ele>
        <time>2019-08-14T09:45:02.999Z</time>
      </trkpt>
      <trkpt lat="45.85812" lon="-1.21981">
        <ele>56.85</ele>
        <time>2019-08-14T09:45:06.999Z</time>
      </trkpt>
      <trkpt lat="45.85801" lon="-1.21979">
        <ele>56.83</ele>
        <time>2019-08-14T09:45:10.999Z</time>
      </trkpt>
      <trkpt lat="45.85791" lon="-1.21978">
        <ele>56.81</ele>
        <time>2019-08-14T09:45:14.999Z</time>
      </trkpt>
      <trkpt lat="45.858" lon="-1.21974">
        <ele>56.58</ele>
        <time>2019-08-14T09:45:43.999Z</time>
      </trkpt>
      <trkpt lat="45.8581" lon="-1.21974">
        <ele>56.52</ele>
        <time>2019-08-14T09:45:47.999Z</time>
      </trkpt>
      <trkpt lat="45.8582" lon="-1.21976">
        <ele>56.47</ele>
        <time>2019-08-14T09:45:50.999Z</time>
      </trkpt>
      <trkpt lat="45.85829" lon="-1.21979">
        <ele>56.42</ele>
        <time>2019-08-14T09:45:53.999Z</time>
      </trkpt>
      <trkpt lat="45.85839" lon="-1.21981">
        <ele>56.34</ele>
        <time>2019-08-14T09:45:57.999Z</time>
      </trkpt>
      <trkpt lat="45.8585" lon="-1.21986">
        <ele>56.25</ele>
        <time>2019-08-14T09:46:01.999Z</time>
      </trkpt>
      <trkpt lat="45.8586" lon="-1.21988">
        <ele>56.15</ele>
        <time>2019-08-14T09:46:05.999Z</time>
      </trkpt>
      <trkpt lat="45.85869" lon="-1.21989">
        <ele>56.04</ele>
        <time>2019-08-14T09:46:09.999Z</time>
      </trkpt>
      <trkpt lat="45.8588" lon="-1.2199">
        <ele>55.9</ele>
        <time>2019-08-14T09:46:14.999Z</time>
      </trkpt>
      <trkpt lat="45.8589" lon="-1.21993">
        <ele>55.81</ele>
        <time>2019-08-14T09:46:17.999Z</time>
      </trkpt>
      <trkpt lat="45.859" lon="-1.21999">
        <ele>55.69</ele>
        <time>2019-08-14T09:46:21.999Z</time>
      </trkpt>
      <trkpt lat="45.85906" lon="-1.22011">
        <ele>55.6</ele>
        <time>2019-08-14T09:46:24.999Z</time>
      </trkpt>
      <trkpt lat="45.85907" lon="-1.22027">
        <ele>55.51</ele>
        <time>2019-08-14T09:46:27.999Z</time>
      </trkpt>
      <trkpt lat="45.85903" lon="-1.22043">
        <ele>55.39</ele>
        <time>2019-08-14T09:46:31.999Z</time>
      </trkpt>
      <trkpt lat="45.85903" lon="-1.22057">
        <ele>55.31</ele>
        <time>2019-08-14T09:46:34.999Z</time>
      </trkpt>
      <trkpt lat="45.85903" lon="-1.22074">
        <ele>55.2</ele>
        <time>2019-08-14T09:46:38.999Z</time>
      </trkpt>
      <trkpt lat="45.85902" lon="-1.22087">
        <ele>55.13</ele>
        <time>2019-08-14T09:46:41.999Z</time>
      </trkpt>
      <trkpt lat="45.85902" lon="-1.22103">
        <ele>55.05</ele>
        <time>2019-08-14T09:46:44.999Z</time>
      </trkpt>
      <trkpt lat="45.85902" lon="-1.2212">
        <ele>54.98</ele>
        <time>2019-08-14T09:46:47.999Z</time>
      </trkpt>
      <trkpt lat="45.85904" lon="-1.22137">
        <ele>54.92</ele>
        <time>2019-08-14T09:46:50.999Z</time>
      </trkpt>
      <trkpt lat="45.85906" lon="-1.22151">
        <ele>54.86</ele>
        <time>2019-08-14T09:46:53.999Z</time>
      </trkpt>
      <trkpt lat="45.85909" lon="-1.22163">
        <ele>54.78</ele>
        <time>2019-08-14T09:46:57.999Z</time>
      </trkpt>
      <trkpt lat="45.85916" lon="-1.22176">
        <ele>54.71</ele>
        <time>2019-08-14T09:47:01.999Z</time>
      </trkpt>
      <trkpt lat="45.85927" lon="-1.22177">
        <ele>54.63</ele>
        <time>2019-08-14T09:47:05.999Z</time>
      </trkpt>
      <trkpt lat="45.85939" lon="-1.22181">
        <ele>54.57</ele>
        <time>2019-08-14T09:47:08.999Z</time>
      </trkpt>
      <trkpt lat="45.85948" lon="-1.22188">
        <ele>54.5</ele>
        <time>2019-08-14T09:47:11.999Z</time>
      </trkpt>
      <trkpt lat="45.8595" lon="-1.22202">
        <ele>54.44</ele>
        <time>2019-08-14T09:47:14.999Z</time>
      </trkpt>
      <trkpt lat="45.85944" lon="-1.22212">
        <ele>54.38</ele>
        <time>2019-08-14T09:47:17.999Z</time>
      </trkpt>
      <trkpt lat="45.85936" lon="-1.22222">
        <ele>54.3</ele>
        <time>2019-08-14T09:47:21.999Z</time>
      </trkpt>
      <trkpt lat="45.85929" lon="-1.2223">
        <ele>54.23</ele>
        <time>2019-08-14T09:47:25.999Z</time>
      </trkpt>
      <trkpt lat="45.85928" lon="-1.22247">
        <ele>54.16</ele>
        <time>2019-08-14T09:47:29.999Z</time>
      </trkpt>
      <trkpt lat="45.85933" lon="-1.22259">
        <ele>54.08</ele>
        <time>2019-08-14T09:47:34.999Z</time>
      </trkpt>
      <trkpt lat="45.85941" lon="-1.22269">
        <ele>54.01</ele>
        <time>2019-08-14T09:47:38.999Z</time>
      </trkpt>
      <trkpt lat="45.8595" lon="-1.2228">
        <ele>53.95</ele>
        <time>2019-08-14T09:47:42.999Z</time>
      </trkpt>
      <trkpt lat="45.85959" lon="-1.22288">
        <ele>53.9</ele>
        <time>2019-08-14T09:47:45.999Z</time>
      </trkpt>
      <trkpt lat="45.85968" lon="-1.22293">
        <ele>53.84</ele>
        <time>2019-08-14T09:47:49.999Z</time>
      </trkpt>
      <trkpt lat="45.85975" lon="-1.22304">
        <ele>53.78</ele>
        <time>2019-08-14T09:47:53.999Z</time>
      </trkpt>
      <trkpt lat="45.85981" lon="-1.22315">
        <ele>53.74</ele>
        <time>2019-08-14T09:47:56.999Z</time>
      </trkpt>
      <trkpt lat="45.85984" lon="-1.2233">
        <ele>53.69</ele>
        <time>2019-08-14T09:47:59.999Z</time>
      </trkpt>
      <trkpt lat="45.85984" lon="-1.22345">
        <ele>53.64</ele>
        <time>2019-08-14T09:48:02.999Z</time>
      </trkpt>
      <trkpt lat="45.85983" lon="-1.2236">
        <ele>53.6</ele>
        <time>2019-08-14T09:48:05.999Z</time>
      </trkpt>
      <trkpt lat="45.85974" lon="-1.22359">
        <ele>53.53</ele>
        <time>2019-08-14T09:48:10.999Z</time>
      </trkpt>
      <trkpt lat="45.85969" lon="-1.22345">
        <ele>53.47</ele>
        <time>2019-08-14T09:48:15.999Z</time>
      </trkpt>
      <trkpt lat="45.85964" lon="-1.22331">
        <ele>53.43</ele>
        <time>2019-08-14T09:48:19.999Z</time>
      </trkpt>
      <trkpt lat="45.85958" lon="-1.22318">
        <ele>53.4</ele>
        <time>2019-08-14T09:48:23.999Z</time>
      </trkpt>
      <trkpt lat="45.85951" lon="-1.22307">
        <ele>53.39</ele>
        <time>2019-08-14T09:48:26.999Z</time>
      </trkpt>
      <trkpt lat="45.85944" lon="-1.22299">
        <ele>53.38</ele>
        <time>2019-08-14T09:48:29.999Z</time>
      </trkpt>
      <trkpt lat="45.85933" lon="-1.22297">
        <ele>53.38</ele>
        <time>2019-08-14T09:48:32.999Z</time>
      </trkpt>
      <trkpt lat="45.85921" lon="-1.223">
        <ele>53.37</ele>
        <time>2019-08-14T09:48:35.999Z</time>
      </trkpt>
      <trkpt lat="45.85912" lon="-1.22303">
        <ele>53.37</ele>
        <time>2019-08-14T09:48:38.999Z</time>
      </trkpt>
      <trkpt lat="45.85903" lon="-1.22308">
        <ele>53.37</ele>
        <time>2019-08-14T09:48:42.999Z</time>
      </trkpt>
      <trkpt lat="45.85894" lon="-1.22315">
        <ele>53.37</ele>
        <time>2019-08-14T09:48:47.999Z</time>
      </trkpt>
      <trkpt lat="45.85884" lon="-1.22317">
        <ele>53.37</ele>
        <time>2019-08-14T09:48:53.999Z</time>
      </trkpt>
      <trkpt lat="45.85875" lon="-1.22313">
        <ele>53.33</ele>
        <time>2019-08-14T09:49:35.999Z</time>
      </trkpt>
      <trkpt lat="45.85885" lon="-1.22312">
        <ele>53.08</ele>
        <time>2019-08-14T09:50:29.999Z</time>
      </trkpt>
      <trkpt lat="45.85895" lon="-1.22311">
        <ele>53.05</ele>
        <time>2019-08-14T09:50:32.999Z</time>
      </trkpt>
      <trkpt lat="45.85905" lon="-1.2231">
        <ele>52.97</ele>
        <time>2019-08-14T09:50:37.999Z</time>
      </trkpt>
      <trkpt lat="45.85914" lon="-1.22304">
        <ele>52.93</ele>
        <time>2019-08-14T09:50:40.999Z</time>
      </trkpt>
      <trkpt lat="45.85924" lon="-1.22297">
        <ele>52.88</ele>
        <time>2019-08-14T09:50:44.999Z</time>
      </trkpt>
      <trkpt lat="45.85933" lon="-1.22293">
        <ele>52.83</ele>
        <time>2019-08-14T09:50:47.999Z</time>
      </trkpt>
      <trkpt lat="45.85945" lon="-1.2229">
        <ele>52.77</ele>
        <time>2019-08-14T09:50:51.999Z</time>
      </trkpt>
      <trkpt lat="45.85954" lon="-1.22292">
        <ele>52.72</ele>
        <time>2019-08-14T09:50:54.999Z</time>
      </trkpt>
      <trkpt lat="45.85961" lon="-1.223">
        <ele>52.67</ele>
        <time>2019-08-14T09:50:57.999Z</time>
      </trkpt>
      <trkpt lat="45.85967" lon="-1.22311">
        <ele>52.6</ele>
        <time>2019-08-14T09:51:01.999Z</time>
      </trkpt>
      <trkpt lat="45.85973" lon="-1.22326">
        <ele>52.54</ele>
        <time>2019-08-14T09:51:05.999Z</time>
      </trkpt>
      <trkpt lat="45.85977" lon="-1.22339">
        <ele>52.49</ele>
        <time>2019-08-14T09:51:08.999Z</time>
      </trkpt>
      <trkpt lat="45.85981" lon="-1.22354">
        <ele>52.43</ele>
        <time>2019-08-14T09:51:12.999Z</time>
      </trkpt>
      <trkpt lat="45.8599" lon="-1.2236">
        <ele>52.37</ele>
        <time>2019-08-14T09:51:16.999Z</time>
      </trkpt>
      <trkpt lat="45.86" lon="-1.22365">
        <ele>52.31</ele>
        <time>2019-08-14T09:51:20.999Z</time>
      </trkpt>
      <trkpt lat="45.86011" lon="-1.2237">
        <ele>52.24</ele>
        <time>2019-08-14T09:51:24.999Z</time>
      </trkpt>
      <trkpt lat="45.86023" lon="-1.22368">
        <ele>52.03</ele>
        <time>2019-08-14T09:51:27.999Z</time>
      </trkpt>
      <trkpt lat="45.86035" lon="-1.22361">
        <ele>51.68</ele>
        <time>2019-08-14T09:51:30.999Z</time>
      </trkpt>
      <trkpt lat="45.86045" lon="-1.22355">
        <ele>51.52</ele>
        <time>2019-08-14T09:51:32.999Z</time>
      </trkpt>
      <trkpt lat="45.86055" lon="-1.22355">
        <ele>51.39</ele>
        <time>2019-08-14T09:51:34.999Z</time>
      </trkpt>
      <trkpt lat="45.86064" lon="-1.22363">
        <ele>51.3</ele>
        <time>2019-08-14T09:51:36.999Z</time>
      </trkpt>
      <trkpt lat="45.86071" lon="-1.22373">
        <ele>51.22</ele>
        <time>2019-08-14T09:51:38.999Z</time>
      </trkpt>
      <trkpt lat="45.8608" lon="-1.22386">
        <ele>51.14</ele>
        <time>2019-08-14T09:51:41.999Z</time>
      </trkpt>
      <trkpt lat="45.86087" lon="-1.22397">
        <ele>51.1</ele>
        <time>2019-08-14T09:51:43.999Z</time>
      </trkpt>
      <trkpt lat="45.86093" lon="-1.22407">
        <ele>51.08</ele>
        <time>2019-08-14T09:51:45.999Z</time>
      </trkpt>
      <trkpt lat="45.86102" lon="-1.22421">
        <ele>51.05</ele>
        <time>2019-08-14T09:51:48.999Z</time>
      </trkpt>
      <trkpt lat="45.86108" lon="-1.22437">
        <ele>51.02</ele>
        <time>2019-08-14T09:51:51.999Z</time>
      </trkpt>
      <trkpt lat="45.86112" lon="-1.22455">
        <ele>51</ele>
        <time>2019-08-14T09:51:54.999Z</time>
      </trkpt>
      <trkpt lat="45.86115" lon="-1.22473">
        <ele>50.98</ele>
        <time>2019-08-14T09:51:57.999Z</time>
      </trkpt>
      <trkpt lat="45.86119" lon="-1.2249">
        <ele>50.97</ele>
        <time>2019-08-14T09:52:00.999Z</time>
      </trkpt>
      <trkpt lat="45.86121" lon="-1.22502">
        <ele>50.97</ele>
        <time>2019-08-14T09:52:02.999Z</time>
      </trkpt>
      <trkpt lat="45.86123" lon="-1.22517">
        <ele>50.96</ele>
        <time>2019-08-14T09:52:04.999Z</time>
      </trkpt>
      <trkpt lat="45.86124" lon="-1.2253">
        <ele>50.96</ele>
        <time>2019-08-14T09:52:06.999Z</time>
      </trkpt>
      <trkpt lat="45.86127" lon="-1.22549">
        <ele>50.94</ele>
        <time>2019-08-14T09:52:09.999Z</time>
      </trkpt>
      <trkpt lat="45.8613" lon="-1.22566">
        <ele>50.93</ele>
        <time>2019-08-14T09:52:12.999Z</time>
      </trkpt>
      <trkpt lat="45.86135" lon="-1.22583">
        <ele>50.92</ele>
        <time>2019-08-14T09:52:15.999Z</time>
      </trkpt>
      <trkpt lat="45.8614" lon="-1.22593">
        <ele>50.92</ele>
        <time>2019-08-14T09:52:17.999Z</time>
      </trkpt>
      <trkpt lat="45.86148" lon="-1.22608">
        <ele>50.91</ele>
        <time>2019-08-14T09:52:20.999Z</time>
      </trkpt>
      <trkpt lat="45.86156" lon="-1.22623">
        <ele>50.9</ele>
        <time>2019-08-14T09:52:23.999Z</time>
      </trkpt>
      <trkpt lat="45.86165" lon="-1.22638">
        <ele>50.89</ele>
        <time>2019-08-14T09:52:26.999Z</time>
      </trkpt>
      <trkpt lat="45.86173" lon="-1.22651">
        <ele>50.86</ele>
        <time>2019-08-14T09:52:29.999Z</time>
      </trkpt>
      <trkpt lat="45.86184" lon="-1.22658">
        <ele>50.8</ele>
        <time>2019-08-14T09:52:32.999Z</time>
      </trkpt>
      <trkpt lat="45.86195" lon="-1.22667">
        <ele>50.73</ele>
        <time>2019-08-14T09:52:35.999Z</time>
      </trkpt>
      <trkpt lat="45.86205" lon="-1.22678">
        <ele>50.7</ele>
        <time>2019-08-14T09:52:38.999Z</time>
      </trkpt>
      <trkpt lat="45.86213" lon="-1.2269">
        <ele>50.67</ele>
        <time>2019-08-14T09:52:41.999Z</time>
      </trkpt>
      <trkpt lat="45.8622" lon="-1.22698">
        <ele>50.65</ele>
        <time>2019-08-14T09:52:43.999Z</time>
      </trkpt>
      <trkpt lat="45.8623" lon="-1.22709">
        <ele>50.63</ele>
        <time>2019-08-14T09:52:46.999Z</time>
      </trkpt>
      <trkpt lat="45.86241" lon="-1.2272">
        <ele>50.62</ele>
        <time>2019-08-14T09:52:49.999Z</time>
      </trkpt>
      <trkpt lat="45.86248" lon="-1.22729">
        <ele>50.61</ele>
        <time>2019-08-14T09:52:51.999Z</time>
      </trkpt>
      <trkpt lat="45.86255" lon="-1.22736">
        <ele>50.6</ele>
        <time>2019-08-14T09:52:53.999Z</time>
      </trkpt>
      <trkpt lat="45.86263" lon="-1.22744">
        <ele>50.59</ele>
        <time>2019-08-14T09:52:55.999Z</time>
      </trkpt>
      <trkpt lat="45.86272" lon="-1.22756">
        <ele>50.56</ele>
        <time>2019-08-14T09:52:58.999Z</time>
      </trkpt>
      <trkpt lat="45.86279" lon="-1.22765">
        <ele>50.55</ele>
        <time>2019-08-14T09:53:00.999Z</time>
      </trkpt>
      <trkpt lat="45.86289" lon="-1.22776">
        <ele>50.54</ele>
        <time>2019-08-14T09:53:03.999Z</time>
      </trkpt>
      <trkpt lat="45.86298" lon="-1.22788">
        <ele>50.53</ele>
        <time>2019-08-14T09:53:06.999Z</time>
      </trkpt>
      <trkpt lat="45.86307" lon="-1.22801">
        <ele>50.52</ele>
        <time>2019-08-14T09:53:09.999Z</time>
      </trkpt>
      <trkpt lat="45.86315" lon="-1.2281">
        <ele>50.52</ele>
        <time>2019-08-14T09:53:12.999Z</time>
      </trkpt>
      <trkpt lat="45.86325" lon="-1.22818">
        <ele>50.5</ele>
        <time>2019-08-14T09:53:15.999Z</time>
      </trkpt>
      <trkpt lat="45.86335" lon="-1.2283">
        <ele>50.49</ele>
        <time>2019-08-14T09:53:18.999Z</time>
      </trkpt>
      <trkpt lat="45.86342" lon="-1.22839">
        <ele>50.48</ele>
        <time>2019-08-14T09:53:21.999Z</time>
      </trkpt>
      <trkpt lat="45.86345" lon="-1.22854">
        <ele>50.46</ele>
        <time>2019-08-14T09:53:27.999Z</time>
      </trkpt>
      <trkpt lat="45.86344" lon="-1.2287">
        <ele>50.38</ele>
        <time>2019-08-14T09:53:30.999Z</time>
      </trkpt>
      <trkpt lat="45.86344" lon="-1.22883">
        <ele>50.32</ele>
        <time>2019-08-14T09:53:32.999Z</time>
      </trkpt>
      <trkpt lat="45.86345" lon="-1.229">
        <ele>50.25</ele>
        <time>2019-08-14T09:53:35.999Z</time>
      </trkpt>
      <trkpt lat="45.86347" lon="-1.22917">
        <ele>50.16</ele>
        <time>2019-08-14T09:53:38.999Z</time>
      </trkpt>
      <trkpt lat="45.86348" lon="-1.22935">
        <ele>50.06</ele>
        <time>2019-08-14T09:53:41.999Z</time>
      </trkpt>
      <trkpt lat="45.86349" lon="-1.22952">
        <ele>49.99</ele>
        <time>2019-08-14T09:53:44.999Z</time>
      </trkpt>
      <trkpt lat="45.86347" lon="-1.22967">
        <ele>49.89</ele>
        <time>2019-08-14T09:53:47.999Z</time>
      </trkpt>
      <trkpt lat="45.86343" lon="-1.22981">
        <ele>49.82</ele>
        <time>2019-08-14T09:53:50.999Z</time>
      </trkpt>
      <trkpt lat="45.86339" lon="-1.22995">
        <ele>49.65</ele>
        <time>2019-08-14T09:53:53.999Z</time>
      </trkpt>
      <trkpt lat="45.86333" lon="-1.23011">
        <ele>49.59</ele>
        <time>2019-08-14T09:53:56.999Z</time>
      </trkpt>
      <trkpt lat="45.86327" lon="-1.23026">
        <ele>49.58</ele>
        <time>2019-08-14T09:53:59.999Z</time>
      </trkpt>
      <trkpt lat="45.86322" lon="-1.2304">
        <ele>49.51</ele>
        <time>2019-08-14T09:54:02.999Z</time>
      </trkpt>
      <trkpt lat="45.86316" lon="-1.23053">
        <ele>49.46</ele>
        <time>2019-08-14T09:54:04.999Z</time>
      </trkpt>
      <trkpt lat="45.86311" lon="-1.23064">
        <ele>49.39</ele>
        <time>2019-08-14T09:54:06.999Z</time>
      </trkpt>
      <trkpt lat="45.86304" lon="-1.23078">
        <ele>49.37</ele>
        <time>2019-08-14T09:54:09.999Z</time>
      </trkpt>
      <trkpt lat="45.86298" lon="-1.2309">
        <ele>49.37</ele>
        <time>2019-08-14T09:54:12.999Z</time>
      </trkpt>
      <trkpt lat="45.86289" lon="-1.23099">
        <ele>49.37</ele>
        <time>2019-08-14T09:54:16.999Z</time>
      </trkpt>
      <trkpt lat="45.8628" lon="-1.23102">
        <ele>49.37</ele>
        <time>2019-08-14T09:54:20.999Z</time>
      </trkpt>
      <trkpt lat="45.8627" lon="-1.23099">
        <ele>49.38</ele>
        <time>2019-08-14T09:54:28.999Z</time>
      </trkpt>
      <trkpt lat="45.86261" lon="-1.231">
        <ele>49.38</ele>
        <time>2019-08-14T09:54:32.999Z</time>
      </trkpt>
      <trkpt lat="45.8625" lon="-1.231">
        <ele>49.38</ele>
        <time>2019-08-14T09:54:37.999Z</time>
      </trkpt>
      <trkpt lat="45.86242" lon="-1.23092">
        <ele>49.39</ele>
        <time>2019-08-14T09:54:40.999Z</time>
      </trkpt>
      <trkpt lat="45.86235" lon="-1.23084">
        <ele>49.39</ele>
        <time>2019-08-14T09:54:44.999Z</time>
      </trkpt>
      <trkpt lat="45.86227" lon="-1.23075">
        <ele>49.4</ele>
        <time>2019-08-14T09:54:51.999Z</time>
      </trkpt>
      <trkpt lat="45.86218" lon="-1.23067">
        <ele>49.41</ele>
        <time>2019-08-14T09:54:57.000Z</time>
      </trkpt>
      <trkpt lat="45.8621" lon="-1.23058">
        <ele>49.42</ele>
        <time>2019-08-14T09:55:02.000Z</time>
      </trkpt>
      <trkpt lat="45.86201" lon="-1.23064">
        <ele>49.42</ele>
        <time>2019-08-14T09:55:10.000Z</time>
      </trkpt>
      <trkpt lat="45.86194" lon="-1.23073">
        <ele>49.39</ele>
        <time>2019-08-14T09:55:18.000Z</time>
      </trkpt>
      <trkpt lat="45.86186" lon="-1.23079">
        <ele>49.32</ele>
        <time>2019-08-14T09:55:28.000Z</time>
      </trkpt>
      <trkpt lat="45.86176" lon="-1.2307">
        <ele>49.3</ele>
        <time>2019-08-14T09:55:32.000Z</time>
      </trkpt>
      <trkpt lat="45.86167" lon="-1.23058">
        <ele>49.21</ele>
        <time>2019-08-14T09:55:35.000Z</time>
      </trkpt>
      <trkpt lat="45.86158" lon="-1.23044">
        <ele>49.18</ele>
        <time>2019-08-14T09:55:38.000Z</time>
      </trkpt>
      <trkpt lat="45.86151" lon="-1.23033">
        <ele>49.18</ele>
        <time>2019-08-14T09:55:41.000Z</time>
      </trkpt>
      <trkpt lat="45.86144" lon="-1.23024">
        <ele>49.18</ele>
        <time>2019-08-14T09:55:45.000Z</time>
      </trkpt>
      <trkpt lat="45.86137" lon="-1.23014">
        <ele>49.18</ele>
        <time>2019-08-14T09:55:50.000Z</time>
      </trkpt>
      <trkpt lat="45.86127" lon="-1.23008">
        <ele>49.19</ele>
        <time>2019-08-14T09:55:53.000Z</time>
      </trkpt>
      <trkpt lat="45.86118" lon="-1.23003">
        <ele>49.19</ele>
        <time>2019-08-14T09:55:56.000Z</time>
      </trkpt>
      <trkpt lat="45.86105" lon="-1.22999">
        <ele>49.2</ele>
        <time>2019-08-14T09:55:59.000Z</time>
      </trkpt>
      <trkpt lat="45.86093" lon="-1.22996">
        <ele>49.2</ele>
        <time>2019-08-14T09:56:02.000Z</time>
      </trkpt>
      <trkpt lat="45.86083" lon="-1.22997">
        <ele>49.21</ele>
        <time>2019-08-14T09:56:05.000Z</time>
      </trkpt>
      <trkpt lat="45.86072" lon="-1.22998">
        <ele>49.25</ele>
        <time>2019-08-14T09:56:08.000Z</time>
      </trkpt>
      <trkpt lat="45.8606" lon="-1.22993">
        <ele>49.26</ele>
        <time>2019-08-14T09:56:11.000Z</time>
      </trkpt>
      <trkpt lat="45.86049" lon="-1.22987">
        <ele>49.26</ele>
        <time>2019-08-14T09:56:14.000Z</time>
      </trkpt>
      <trkpt lat="45.86039" lon="-1.22978">
        <ele>49.27</ele>
        <time>2019-08-14T09:56:17.000Z</time>
      </trkpt>
      <trkpt lat="45.8603" lon="-1.2297">
        <ele>49.26</ele>
        <time>2019-08-14T09:56:20.000Z</time>
      </trkpt>
      <trkpt lat="45.8602" lon="-1.22963">
        <ele>49.26</ele>
        <time>2019-08-14T09:56:23.000Z</time>
      </trkpt>
      <trkpt lat="45.86008" lon="-1.22963">
        <ele>49.24</ele>
        <time>2019-08-14T09:56:26.000Z</time>
      </trkpt>
      <trkpt lat="45.85996" lon="-1.22963">
        <ele>49.24</ele>
        <time>2019-08-14T09:56:29.000Z</time>
      </trkpt>
      <trkpt lat="45.85984" lon="-1.22961">
        <ele>49.23</ele>
        <time>2019-08-14T09:56:32.000Z</time>
      </trkpt>
      <trkpt lat="45.85972" lon="-1.22956">
        <ele>49.22</ele>
        <time>2019-08-14T09:56:35.000Z</time>
      </trkpt>
      <trkpt lat="45.85963" lon="-1.22955">
        <ele>49.21</ele>
        <time>2019-08-14T09:56:38.000Z</time>
      </trkpt>
      <trkpt lat="45.85951" lon="-1.22956">
        <ele>49.21</ele>
        <time>2019-08-14T09:56:41.000Z</time>
      </trkpt>
      <trkpt lat="45.8594" lon="-1.22956">
        <ele>49.21</ele>
        <time>2019-08-14T09:56:44.000Z</time>
      </trkpt>
      <trkpt lat="45.85929" lon="-1.22952">
        <ele>49.2</ele>
        <time>2019-08-14T09:56:47.000Z</time>
      </trkpt>
      <trkpt lat="45.85917" lon="-1.22949">
        <ele>49.2</ele>
        <time>2019-08-14T09:56:50.000Z</time>
      </trkpt>
      <trkpt lat="45.85904" lon="-1.22947">
        <ele>49.18</ele>
        <time>2019-08-14T09:56:53.000Z</time>
      </trkpt>
      <trkpt lat="45.85894" lon="-1.22946">
        <ele>49.17</ele>
        <time>2019-08-14T09:56:55.000Z</time>
      </trkpt>
      <trkpt lat="45.85884" lon="-1.22953">
        <ele>49.17</ele>
        <time>2019-08-14T09:56:58.000Z</time>
      </trkpt>
      <trkpt lat="45.85872" lon="-1.2296">
        <ele>49.16</ele>
        <time>2019-08-14T09:57:02.000Z</time>
      </trkpt>
      <trkpt lat="45.8586" lon="-1.22966">
        <ele>49.14</ele>
        <time>2019-08-14T09:57:05.000Z</time>
      </trkpt>
      <trkpt lat="45.85848" lon="-1.22967">
        <ele>49.14</ele>
        <time>2019-08-14T09:57:08.000Z</time>
      </trkpt>
      <trkpt lat="45.85838" lon="-1.2296">
        <ele>49.13</ele>
        <time>2019-08-14T09:57:11.000Z</time>
      </trkpt>
      <trkpt lat="45.8583" lon="-1.22951">
        <ele>49.13</ele>
        <time>2019-08-14T09:57:14.000Z</time>
      </trkpt>
      <trkpt lat="45.85821" lon="-1.22941">
        <ele>49.11</ele>
        <time>2019-08-14T09:57:17.000Z</time>
      </trkpt>
      <trkpt lat="45.85812" lon="-1.22933">
        <ele>49.11</ele>
        <time>2019-08-14T09:57:20.000Z</time>
      </trkpt>
      <trkpt lat="45.85804" lon="-1.22926">
        <ele>49.09</ele>
        <time>2019-08-14T09:57:23.000Z</time>
      </trkpt>
      <trkpt lat="45.85795" lon="-1.2292">
        <ele>49.09</ele>
        <time>2019-08-14T09:57:26.000Z</time>
      </trkpt>
      <trkpt lat="45.85787" lon="-1.22913">
        <ele>49.09</ele>
        <time>2019-08-14T09:57:29.000Z</time>
      </trkpt>
      <trkpt lat="45.85777" lon="-1.22906">
        <ele>49.07</ele>
        <time>2019-08-14T09:57:32.000Z</time>
      </trkpt>
      <trkpt lat="45.85768" lon="-1.22903">
        <ele>49.06</ele>
        <time>2019-08-14T09:57:34.000Z</time>
      </trkpt>
      <trkpt lat="45.85758" lon="-1.22899">
        <ele>49.05</ele>
        <time>2019-08-14T09:57:36.000Z</time>
      </trkpt>
      <trkpt lat="45.85747" lon="-1.22893">
        <ele>49.04</ele>
        <time>2019-08-14T09:57:39.000Z</time>
      </trkpt>
      <trkpt lat="45.85736" lon="-1.22884">
        <ele>49.04</ele>
        <time>2019-08-14T09:57:42.000Z</time>
      </trkpt>
      <trkpt lat="45.85728" lon="-1.22876">
        <ele>49.02</ele>
        <time>2019-08-14T09:57:44.000Z</time>
      </trkpt>
      <trkpt lat="45.85719" lon="-1.22867">
        <ele>49.03</ele>
        <time>2019-08-14T09:57:46.000Z</time>
      </trkpt>
      <trkpt lat="45.85711" lon="-1.2286">
        <ele>49.02</ele>
        <time>2019-08-14T09:57:48.000Z</time>
      </trkpt>
      <trkpt lat="45.85702" lon="-1.22852">
        <ele>49.01</ele>
        <time>2019-08-14T09:57:50.000Z</time>
      </trkpt>
      <trkpt lat="45.85694" lon="-1.22846">
        <ele>49</ele>
        <time>2019-08-14T09:57:52.000Z</time>
      </trkpt>
      <trkpt lat="45.85683" lon="-1.22838">
        <ele>48.99</ele>
        <time>2019-08-14T09:57:55.000Z</time>
      </trkpt>
      <trkpt lat="45.8567" lon="-1.22831">
        <ele>48.99</ele>
        <time>2019-08-14T09:57:58.000Z</time>
      </trkpt>
      <trkpt lat="45.85659" lon="-1.22826">
        <ele>48.98</ele>
        <time>2019-08-14T09:58:01.000Z</time>
      </trkpt>
      <trkpt lat="45.85647" lon="-1.22822">
        <ele>48.98</ele>
        <time>2019-08-14T09:58:04.000Z</time>
      </trkpt>
      <trkpt lat="45.85637" lon="-1.22821">
        <ele>48.98</ele>
        <time>2019-08-14T09:58:07.000Z</time>
      </trkpt>
      <trkpt lat="45.85626" lon="-1.22822">
        <ele>48.98</ele>
        <time>2019-08-14T09:58:12.000Z</time>
      </trkpt>
      <trkpt lat="45.85633" lon="-1.22836">
        <ele>48.96</ele>
        <time>2019-08-14T09:58:17.000Z</time>
      </trkpt>
      <trkpt lat="45.85633" lon="-1.22849">
        <ele>48.95</ele>
        <time>2019-08-14T09:58:21.000Z</time>
      </trkpt>
      <trkpt lat="45.85624" lon="-1.22842">
        <ele>48.93</ele>
        <time>2019-08-14T09:58:25.000Z</time>
      </trkpt>
      <trkpt lat="45.85619" lon="-1.22828">
        <ele>48.88</ele>
        <time>2019-08-14T09:58:28.000Z</time>
      </trkpt>
      <trkpt lat="45.85613" lon="-1.22814">
        <ele>48.87</ele>
        <time>2019-08-14T09:58:31.000Z</time>
      </trkpt>
      <trkpt lat="45.85607" lon="-1.228">
        <ele>48.86</ele>
        <time>2019-08-14T09:58:34.000Z</time>
      </trkpt>
      <trkpt lat="45.856" lon="-1.22787">
        <ele>48.86</ele>
        <time>2019-08-14T09:58:37.000Z</time>
      </trkpt>
      <trkpt lat="45.85595" lon="-1.22776">
        <ele>48.86</ele>
        <time>2019-08-14T09:58:40.000Z</time>
      </trkpt>
      <trkpt lat="45.8559" lon="-1.22766">
        <ele>48.86</ele>
        <time>2019-08-14T09:58:43.000Z</time>
      </trkpt>
      <trkpt lat="45.85584" lon="-1.22754">
        <ele>48.86</ele>
        <time>2019-08-14T09:58:46.000Z</time>
      </trkpt>
      <trkpt lat="45.85578" lon="-1.22741">
        <ele>48.87</ele>
        <time>2019-08-14T09:58:49.000Z</time>
      </trkpt>
      <trkpt lat="45.85567" lon="-1.22733">
        <ele>48.89</ele>
        <time>2019-08-14T09:58:52.000Z</time>
      </trkpt>
      <trkpt lat="45.85559" lon="-1.22723">
        <ele>48.9</ele>
        <time>2019-08-14T09:58:55.000Z</time>
      </trkpt>
      <trkpt lat="45.85554" lon="-1.22708">
        <ele>48.9</ele>
        <time>2019-08-14T09:58:58.000Z</time>
      </trkpt>
      <trkpt lat="45.85548" lon="-1.22697">
        <ele>48.92</ele>
        <time>2019-08-14T09:59:00.000Z</time>
      </trkpt>
      <trkpt lat="45.85542" lon="-1.22683">
        <ele>48.95</ele>
        <time>2019-08-14T09:59:02.000Z</time>
      </trkpt>
      <trkpt lat="45.85535" lon="-1.22669">
        <ele>48.96</ele>
        <time>2019-08-14T09:59:05.000Z</time>
      </trkpt>
      <trkpt lat="45.85525" lon="-1.22655">
        <ele>48.99</ele>
        <time>2019-08-14T09:59:08.000Z</time>
      </trkpt>
      <trkpt lat="45.85514" lon="-1.22646">
        <ele>49.01</ele>
        <time>2019-08-14T09:59:10.000Z</time>
      </trkpt>
      <trkpt lat="45.85507" lon="-1.22634">
        <ele>49.02</ele>
        <time>2019-08-14T09:59:12.000Z</time>
      </trkpt>
      <trkpt lat="45.85499" lon="-1.22623">
        <ele>49.02</ele>
        <time>2019-08-14T09:59:14.000Z</time>
      </trkpt>
      <trkpt lat="45.8549" lon="-1.2261">
        <ele>49.02</ele>
        <time>2019-08-14T09:59:17.000Z</time>
      </trkpt>
      <trkpt lat="45.85481" lon="-1.22601">
        <ele>49.03</ele>
        <time>2019-08-14T09:59:19.000Z</time>
      </trkpt>
      <trkpt lat="45.85473" lon="-1.22594">
        <ele>49.04</ele>
        <time>2019-08-14T09:59:21.000Z</time>
      </trkpt>
      <trkpt lat="45.85461" lon="-1.22588">
        <ele>49.04</ele>
        <time>2019-08-14T09:59:24.000Z</time>
      </trkpt>
      <trkpt lat="45.85451" lon="-1.22579">
        <ele>49.04</ele>
        <time>2019-08-14T09:59:27.000Z</time>
      </trkpt>
      <trkpt lat="45.85444" lon="-1.22566">
        <ele>49.04</ele>
        <time>2019-08-14T09:59:29.000Z</time>
      </trkpt>
      <trkpt lat="45.85436" lon="-1.22556">
        <ele>49.04</ele>
        <time>2019-08-14T09:59:31.000Z</time>
      </trkpt>
      <trkpt lat="45.8543" lon="-1.22545">
        <ele>49.05</ele>
        <time>2019-08-14T09:59:33.000Z</time>
      </trkpt>
      <trkpt lat="45.85424" lon="-1.22533">
        <ele>49.05</ele>
        <time>2019-08-14T09:59:35.000Z</time>
      </trkpt>
      <trkpt lat="45.85417" lon="-1.22523">
        <ele>49.07</ele>
        <time>2019-08-14T09:59:37.000Z</time>
      </trkpt>
      <trkpt lat="45.85408" lon="-1.22508">
        <ele>49.08</ele>
        <time>2019-08-14T09:59:39.000Z</time>
      </trkpt>
      <trkpt lat="45.85401" lon="-1.22489">
        <ele>49.1</ele>
        <time>2019-08-14T09:59:41.000Z</time>
      </trkpt>
      <trkpt lat="45.85395" lon="-1.22471">
        <ele>49.13</ele>
        <time>2019-08-14T09:59:43.000Z</time>
      </trkpt>
      <trkpt lat="45.85389" lon="-1.22456">
        <ele>49.14</ele>
        <time>2019-08-14T09:59:45.000Z</time>
      </trkpt>
      <trkpt lat="45.85385" lon="-1.22445">
        <ele>49.16</ele>
        <time>2019-08-14T09:59:47.000Z</time>
      </trkpt>
      <trkpt lat="45.8538" lon="-1.22431">
        <ele>49.17</ele>
        <time>2019-08-14T09:59:49.000Z</time>
      </trkpt>
      <trkpt lat="45.85373" lon="-1.22418">
        <ele>49.18</ele>
        <time>2019-08-14T09:59:51.000Z</time>
      </trkpt>
      <trkpt lat="45.85371" lon="-1.22405">
        <ele>49.2</ele>
        <time>2019-08-14T09:59:53.000Z</time>
      </trkpt>
      <trkpt lat="45.85367" lon="-1.22391">
        <ele>49.2</ele>
        <time>2019-08-14T09:59:55.000Z</time>
      </trkpt>
      <trkpt lat="45.8536" lon="-1.22377">
        <ele>49.21</ele>
        <time>2019-08-14T09:59:58.000Z</time>
      </trkpt>
      <trkpt lat="45.85353" lon="-1.22364">
        <ele>49.21</ele>
        <time>2019-08-14T10:00:00.000Z</time>
      </trkpt>
      <trkpt lat="45.85348" lon="-1.22352">
        <ele>49.22</ele>
        <time>2019-08-14T10:00:02.000Z</time>
      </trkpt>
      <trkpt lat="45.85341" lon="-1.22335">
        <ele>49.21</ele>
        <time>2019-08-14T10:00:05.000Z</time>
      </trkpt>
      <trkpt lat="45.85336" lon="-1.22322">
        <ele>49.21</ele>
        <time>2019-08-14T10:00:07.000Z</time>
      </trkpt>
      <trkpt lat="45.85329" lon="-1.22308">
        <ele>49.22</ele>
        <time>2019-08-14T10:00:09.000Z</time>
      </trkpt>
      <trkpt lat="45.85322" lon="-1.22294">
        <ele>49.23</ele>
        <time>2019-08-14T10:00:11.000Z</time>
      </trkpt>
      <trkpt lat="45.85314" lon="-1.22274">
        <ele>49.26</ele>
        <time>2019-08-14T10:00:13.000Z</time>
      </trkpt>
      <trkpt lat="45.85307" lon="-1.22258">
        <ele>49.28</ele>
        <time>2019-08-14T10:00:15.000Z</time>
      </trkpt>
      <trkpt lat="45.85301" lon="-1.22246">
        <ele>49.29</ele>
        <time>2019-08-14T10:00:17.000Z</time>
      </trkpt>
      <trkpt lat="45.85294" lon="-1.22223">
        <ele>49.29</ele>
        <time>2019-08-14T10:00:19.000Z</time>
      </trkpt>
      <trkpt lat="45.85286" lon="-1.22205">
        <ele>49.3</ele>
        <time>2019-08-14T10:00:21.000Z</time>
      </trkpt>
      <trkpt lat="45.85278" lon="-1.2219">
        <ele>49.3</ele>
        <time>2019-08-14T10:00:23.000Z</time>
      </trkpt>
      <trkpt lat="45.8527" lon="-1.22177">
        <ele>49.31</ele>
        <time>2019-08-14T10:00:25.000Z</time>
      </trkpt>
      <trkpt lat="45.85262" lon="-1.22165">
        <ele>49.28</ele>
        <time>2019-08-14T10:00:27.000Z</time>
      </trkpt>
      <trkpt lat="45.85254" lon="-1.22152">
        <ele>49.27</ele>
        <time>2019-08-14T10:00:29.000Z</time>
      </trkpt>
      <trkpt lat="45.85246" lon="-1.22137">
        <ele>49.27</ele>
        <time>2019-08-14T10:00:31.000Z</time>
      </trkpt>
      <trkpt lat="45.8524" lon="-1.22122">
        <ele>49.26</ele>
        <time>2019-08-14T10:00:33.000Z</time>
      </trkpt>
      <trkpt lat="45.85232" lon="-1.22107">
        <ele>49.28</ele>
        <time>2019-08-14T10:00:35.000Z</time>
      </trkpt>
      <trkpt lat="45.85225" lon="-1.22091">
        <ele>49.29</ele>
        <time>2019-08-14T10:00:37.000Z</time>
      </trkpt>
      <trkpt lat="45.85219" lon="-1.22075">
        <ele>49.25</ele>
        <time>2019-08-14T10:00:39.000Z</time>
      </trkpt>
      <trkpt lat="45.85211" lon="-1.22059">
        <ele>49.21</ele>
        <time>2019-08-14T10:00:41.000Z</time>
      </trkpt>
      <trkpt lat="45.85205" lon="-1.22044">
        <ele>49.13</ele>
        <time>2019-08-14T10:00:43.000Z</time>
      </trkpt>
      <trkpt lat="45.85198" lon="-1.22029">
        <ele>49.08</ele>
        <time>2019-08-14T10:00:45.000Z</time>
      </trkpt>
      <trkpt lat="45.8519" lon="-1.22016">
        <ele>49.05</ele>
        <time>2019-08-14T10:00:47.000Z</time>
      </trkpt>
      <trkpt lat="45.85183" lon="-1.22003">
        <ele>49.03</ele>
        <time>2019-08-14T10:00:49.000Z</time>
      </trkpt>
      <trkpt lat="45.85177" lon="-1.21991">
        <ele>49.04</ele>
        <time>2019-08-14T10:00:51.000Z</time>
      </trkpt>
      <trkpt lat="45.8517" lon="-1.21977">
        <ele>49.04</ele>
        <time>2019-08-14T10:00:53.000Z</time>
      </trkpt>
      <trkpt lat="45.85164" lon="-1.21962">
        <ele>49.04</ele>
        <time>2019-08-14T10:00:55.000Z</time>
      </trkpt>
      <trkpt lat="45.85158" lon="-1.21945">
        <ele>48.98</ele>
        <time>2019-08-14T10:00:57.000Z</time>
      </trkpt>
      <trkpt lat="45.85148" lon="-1.21931">
        <ele>48.91</ele>
        <time>2019-08-14T10:00:59.000Z</time>
      </trkpt>
      <trkpt lat="45.85139" lon="-1.21915">
        <ele>48.86</ele>
        <time>2019-08-14T10:01:01.000Z</time>
      </trkpt>
      <trkpt lat="45.8513" lon="-1.21902">
        <ele>48.84</ele>
        <time>2019-08-14T10:01:03.000Z</time>
      </trkpt>
      <trkpt lat="45.8512" lon="-1.21889">
        <ele>49.01</ele>
        <time>2019-08-14T10:01:05.000Z</time>
      </trkpt>
      <trkpt lat="45.85112" lon="-1.21875">
        <ele>49.31</ele>
        <time>2019-08-14T10:01:07.000Z</time>
      </trkpt>
      <trkpt lat="45.85106" lon="-1.21861">
        <ele>49.6</ele>
        <time>2019-08-14T10:01:09.000Z</time>
      </trkpt>
      <trkpt lat="45.85097" lon="-1.21849">
        <ele>49.86</ele>
        <time>2019-08-14T10:01:11.000Z</time>
      </trkpt>
      <trkpt lat="45.85088" lon="-1.21836">
        <ele>50.07</ele>
        <time>2019-08-14T10:01:13.000Z</time>
      </trkpt>
      <trkpt lat="45.85082" lon="-1.21823">
        <ele>50.45</ele>
        <time>2019-08-14T10:01:15.000Z</time>
      </trkpt>
      <trkpt lat="45.85077" lon="-1.21813">
        <ele>50.8</ele>
        <time>2019-08-14T10:01:17.000Z</time>
      </trkpt>
      <trkpt lat="45.85072" lon="-1.21802">
        <ele>50.94</ele>
        <time>2019-08-14T10:01:19.000Z</time>
      </trkpt>
      <trkpt lat="45.85064" lon="-1.2179">
        <ele>50.91</ele>
        <time>2019-08-14T10:01:21.000Z</time>
      </trkpt>
      <trkpt lat="45.85058" lon="-1.21776">
        <ele>50.87</ele>
        <time>2019-08-14T10:01:23.000Z</time>
      </trkpt>
      <trkpt lat="45.85052" lon="-1.21764">
        <ele>50.58</ele>
        <time>2019-08-14T10:01:25.000Z</time>
      </trkpt>
      <trkpt lat="45.85046" lon="-1.21752">
        <ele>50.33</ele>
        <time>2019-08-14T10:01:27.000Z</time>
      </trkpt>
      <trkpt lat="45.8504" lon="-1.21738">
        <ele>49.94</ele>
        <time>2019-08-14T10:01:29.000Z</time>
      </trkpt>
      <trkpt lat="45.85031" lon="-1.21723">
        <ele>49.39</ele>
        <time>2019-08-14T10:01:31.000Z</time>
      </trkpt>
      <trkpt lat="45.85023" lon="-1.21713">
        <ele>49.28</ele>
        <time>2019-08-14T10:01:33.000Z</time>
      </trkpt>
      <trkpt lat="45.85016" lon="-1.217">
        <ele>48.92</ele>
        <time>2019-08-14T10:01:35.000Z</time>
      </trkpt>
      <trkpt lat="45.8501" lon="-1.21685">
        <ele>48.31</ele>
        <time>2019-08-14T10:01:37.000Z</time>
      </trkpt>
      <trkpt lat="45.85007" lon="-1.2167">
        <ele>47.84</ele>
        <time>2019-08-14T10:01:39.000Z</time>
      </trkpt>
      <trkpt lat="45.85003" lon="-1.21657">
        <ele>47.62</ele>
        <time>2019-08-14T10:01:41.000Z</time>
      </trkpt>
      <trkpt lat="45.84996" lon="-1.21644">
        <ele>47.16</ele>
        <time>2019-08-14T10:01:43.000Z</time>
      </trkpt>
      <trkpt lat="45.8499" lon="-1.21632">
        <ele>46.62</ele>
        <time>2019-08-14T10:01:45.000Z</time>
      </trkpt>
      <trkpt lat="45.84983" lon="-1.2162">
        <ele>46.22</ele>
        <time>2019-08-14T10:01:47.000Z</time>
      </trkpt>
      <trkpt lat="45.84976" lon="-1.2161">
        <ele>45.86</ele>
        <time>2019-08-14T10:01:49.000Z</time>
      </trkpt>
      <trkpt lat="45.84968" lon="-1.21598">
        <ele>45.54</ele>
        <time>2019-08-14T10:01:51.000Z</time>
      </trkpt>
      <trkpt lat="45.84962" lon="-1.21587">
        <ele>45.35</ele>
        <time>2019-08-14T10:01:53.000Z</time>
      </trkpt>
      <trkpt lat="45.84954" lon="-1.21574">
        <ele>45.34</ele>
        <time>2019-08-14T10:01:56.000Z</time>
      </trkpt>
      <trkpt lat="45.84947" lon="-1.21565">
        <ele>45.37</ele>
        <time>2019-08-14T10:01:58.000Z</time>
      </trkpt>
      <trkpt lat="45.84939" lon="-1.21556">
        <ele>45.38</ele>
        <time>2019-08-14T10:02:00.000Z</time>
      </trkpt>
      <trkpt lat="45.84931" lon="-1.21549">
        <ele>45.31</ele>
        <time>2019-08-14T10:02:02.000Z</time>
      </trkpt>
      <trkpt lat="45.84923" lon="-1.21537">
        <ele>45.19</ele>
        <time>2019-08-14T10:02:04.000Z</time>
      </trkpt>
      <trkpt lat="45.84913" lon="-1.21519">
        <ele>45.02</ele>
        <time>2019-08-14T10:02:06.000Z</time>
      </trkpt>
      <trkpt lat="45.84905" lon="-1.21506">
        <ele>44.94</ele>
        <time>2019-08-14T10:02:08.000Z</time>
      </trkpt>
      <trkpt lat="45.84897" lon="-1.21487">
        <ele>44.95</ele>
        <time>2019-08-14T10:02:10.000Z</time>
      </trkpt>
      <trkpt lat="45.84892" lon="-1.21473">
        <ele>44.99</ele>
        <time>2019-08-14T10:02:12.000Z</time>
      </trkpt>
      <trkpt lat="45.84887" lon="-1.21461">
        <ele>45.01</ele>
        <time>2019-08-14T10:02:13.000Z</time>
      </trkpt>
      <trkpt lat="45.84879" lon="-1.21447">
        <ele>45.06</ele>
        <time>2019-08-14T10:02:15.000Z</time>
      </trkpt>
      <trkpt lat="45.84872" lon="-1.21435">
        <ele>45.11</ele>
        <time>2019-08-14T10:02:17.000Z</time>
      </trkpt>
      <trkpt lat="45.84868" lon="-1.21421">
        <ele>45.18</ele>
        <time>2019-08-14T10:02:19.000Z</time>
      </trkpt>
      <trkpt lat="45.84863" lon="-1.21406">
        <ele>45.27</ele>
        <time>2019-08-14T10:02:21.000Z</time>
      </trkpt>
      <trkpt lat="45.84857" lon="-1.21393">
        <ele>45.36</ele>
        <time>2019-08-14T10:02:23.000Z</time>
      </trkpt>
      <trkpt lat="45.84852" lon="-1.21379">
        <ele>45.42</ele>
        <time>2019-08-14T10:02:25.000Z</time>
      </trkpt>
      <trkpt lat="45.84844" lon="-1.21364">
        <ele>45.48</ele>
        <time>2019-08-14T10:02:27.000Z</time>
      </trkpt>
      <trkpt lat="45.84838" lon="-1.21352">
        <ele>45.55</ele>
        <time>2019-08-14T10:02:29.000Z</time>
      </trkpt>
      <trkpt lat="45.84833" lon="-1.21341">
        <ele>45.7</ele>
        <time>2019-08-14T10:02:31.000Z</time>
      </trkpt>
      <trkpt lat="45.84827" lon="-1.21326">
        <ele>45.8</ele>
        <time>2019-08-14T10:02:33.000Z</time>
      </trkpt>
      <trkpt lat="45.84821" lon="-1.21313">
        <ele>45.87</ele>
        <time>2019-08-14T10:02:35.000Z</time>
      </trkpt>
      <trkpt lat="45.84815" lon="-1.21301">
        <ele>45.91</ele>
        <time>2019-08-14T10:02:37.000Z</time>
      </trkpt>
      <trkpt lat="45.84808" lon="-1.21288">
        <ele>45.96</ele>
        <time>2019-08-14T10:02:39.000Z</time>
      </trkpt>
      <trkpt lat="45.848" lon="-1.21275">
        <ele>46.02</ele>
        <time>2019-08-14T10:02:41.000Z</time>
      </trkpt>
      <trkpt lat="45.84791" lon="-1.21261">
        <ele>46.09</ele>
        <time>2019-08-14T10:02:43.000Z</time>
      </trkpt>
      <trkpt lat="45.84786" lon="-1.21246">
        <ele>46.18</ele>
        <time>2019-08-14T10:02:45.000Z</time>
      </trkpt>
      <trkpt lat="45.84779" lon="-1.21234">
        <ele>46.25</ele>
        <time>2019-08-14T10:02:47.000Z</time>
      </trkpt>
      <trkpt lat="45.84769" lon="-1.21225">
        <ele>46.32</ele>
        <time>2019-08-14T10:02:49.000Z</time>
      </trkpt>
      <trkpt lat="45.84758" lon="-1.21221">
        <ele>46.36</ele>
        <time>2019-08-14T10:02:51.000Z</time>
      </trkpt>
      <trkpt lat="45.84749" lon="-1.21216">
        <ele>46.33</ele>
        <time>2019-08-14T10:02:53.000Z</time>
      </trkpt>
      <trkpt lat="45.84741" lon="-1.21208">
        <ele>46.27</ele>
        <time>2019-08-14T10:02:55.000Z</time>
      </trkpt>
      <trkpt lat="45.84733" lon="-1.21199">
        <ele>46.23</ele>
        <time>2019-08-14T10:02:57.000Z</time>
      </trkpt>
      <trkpt lat="45.84726" lon="-1.21186">
        <ele>46.21</ele>
        <time>2019-08-14T10:02:59.000Z</time>
      </trkpt>
      <trkpt lat="45.84717" lon="-1.21175">
        <ele>46.2</ele>
        <time>2019-08-14T10:03:01.000Z</time>
      </trkpt>
      <trkpt lat="45.84708" lon="-1.21165">
        <ele>46.16</ele>
        <time>2019-08-14T10:03:03.000Z</time>
      </trkpt>
      <trkpt lat="45.84699" lon="-1.21152">
        <ele>46.15</ele>
        <time>2019-08-14T10:03:05.000Z</time>
      </trkpt>
      <trkpt lat="45.84691" lon="-1.2114">
        <ele>46.14</ele>
        <time>2019-08-14T10:03:07.000Z</time>
      </trkpt>
      <trkpt lat="45.84682" lon="-1.21131">
        <ele>46.11</ele>
        <time>2019-08-14T10:03:09.000Z</time>
      </trkpt>
      <trkpt lat="45.84672" lon="-1.21121">
        <ele>46.13</ele>
        <time>2019-08-14T10:03:11.000Z</time>
      </trkpt>
      <trkpt lat="45.84665" lon="-1.2111">
        <ele>46.17</ele>
        <time>2019-08-14T10:03:13.000Z</time>
      </trkpt>
      <trkpt lat="45.84658" lon="-1.211">
        <ele>46.22</ele>
        <time>2019-08-14T10:03:15.000Z</time>
      </trkpt>
      <trkpt lat="45.84647" lon="-1.21091">
        <ele>46.3</ele>
        <time>2019-08-14T10:03:18.000Z</time>
      </trkpt>
      <trkpt lat="45.84637" lon="-1.21082">
        <ele>46.35</ele>
        <time>2019-08-14T10:03:20.000Z</time>
      </trkpt>
      <trkpt lat="45.8463" lon="-1.21071">
        <ele>46.37</ele>
        <time>2019-08-14T10:03:22.000Z</time>
      </trkpt>
      <trkpt lat="45.84622" lon="-1.21062">
        <ele>46.36</ele>
        <time>2019-08-14T10:03:24.000Z</time>
      </trkpt>
      <trkpt lat="45.84617" lon="-1.21051">
        <ele>46.37</ele>
        <time>2019-08-14T10:03:26.000Z</time>
      </trkpt>
      <trkpt lat="45.84607" lon="-1.21044">
        <ele>46.38</ele>
        <time>2019-08-14T10:03:29.000Z</time>
      </trkpt>
      <trkpt lat="45.84598" lon="-1.21034">
        <ele>46.38</ele>
        <time>2019-08-14T10:03:32.000Z</time>
      </trkpt>
      <trkpt lat="45.84591" lon="-1.21024">
        <ele>46.39</ele>
        <time>2019-08-14T10:03:36.000Z</time>
      </trkpt>
      <trkpt lat="45.84582" lon="-1.21026">
        <ele>46.39</ele>
        <time>2019-08-14T10:03:39.000Z</time>
      </trkpt>
      <trkpt lat="45.84577" lon="-1.21038">
        <ele>46.35</ele>
        <time>2019-08-14T10:03:45.000Z</time>
      </trkpt>
      <trkpt lat="45.84573" lon="-1.2105">
        <ele>46.3</ele>
        <time>2019-08-14T10:03:48.000Z</time>
      </trkpt>
      <trkpt lat="45.84569" lon="-1.21064">
        <ele>46.09</ele>
        <time>2019-08-14T10:03:50.000Z</time>
      </trkpt>
      <trkpt lat="45.84567" lon="-1.21078">
        <ele>46.04</ele>
        <time>2019-08-14T10:03:53.000Z</time>
      </trkpt>
      <trkpt lat="45.84565" lon="-1.21092">
        <ele>45.67</ele>
        <time>2019-08-14T10:03:55.000Z</time>
      </trkpt>
      <trkpt lat="45.84563" lon="-1.21106">
        <ele>45.38</ele>
        <time>2019-08-14T10:03:57.000Z</time>
      </trkpt>
      <trkpt lat="45.84561" lon="-1.21119">
        <ele>45.18</ele>
        <time>2019-08-14T10:03:59.000Z</time>
      </trkpt>
      <trkpt lat="45.84559" lon="-1.21137">
        <ele>45.08</ele>
        <time>2019-08-14T10:04:02.000Z</time>
      </trkpt>
      <trkpt lat="45.84559" lon="-1.2115">
        <ele>44.97</ele>
        <time>2019-08-14T10:04:04.000Z</time>
      </trkpt>
      <trkpt lat="45.84557" lon="-1.21164">
        <ele>44.88</ele>
        <time>2019-08-14T10:04:06.000Z</time>
      </trkpt>
      <trkpt lat="45.84556" lon="-1.21179">
        <ele>44.87</ele>
        <time>2019-08-14T10:04:09.000Z</time>
      </trkpt>
      <trkpt lat="45.84553" lon="-1.21196">
        <ele>44.8</ele>
        <time>2019-08-14T10:04:12.000Z</time>
      </trkpt>
      <trkpt lat="45.8455" lon="-1.2121">
        <ele>44.68</ele>
        <time>2019-08-14T10:04:14.000Z</time>
      </trkpt>
      <trkpt lat="45.84547" lon="-1.21224">
        <ele>44.61</ele>
        <time>2019-08-14T10:04:16.000Z</time>
      </trkpt>
      <trkpt lat="45.84544" lon="-1.2124">
        <ele>44.57</ele>
        <time>2019-08-14T10:04:18.000Z</time>
      </trkpt>
      <trkpt lat="45.84543" lon="-1.21258">
        <ele>44.57</ele>
        <time>2019-08-14T10:04:20.000Z</time>
      </trkpt>
      <trkpt lat="45.84541" lon="-1.21275">
        <ele>44.56</ele>
        <time>2019-08-14T10:04:22.000Z</time>
      </trkpt>
      <trkpt lat="45.84538" lon="-1.21292">
        <ele>44.56</ele>
        <time>2019-08-14T10:04:24.000Z</time>
      </trkpt>
      <trkpt lat="45.84537" lon="-1.21307">
        <ele>44.54</ele>
        <time>2019-08-14T10:04:26.000Z</time>
      </trkpt>
      <trkpt lat="45.84536" lon="-1.21322">
        <ele>44.49</ele>
        <time>2019-08-14T10:04:28.000Z</time>
      </trkpt>
      <trkpt lat="45.84533" lon="-1.21337">
        <ele>44.45</ele>
        <time>2019-08-14T10:04:30.000Z</time>
      </trkpt>
      <trkpt lat="45.84531" lon="-1.21352">
        <ele>44.42</ele>
        <time>2019-08-14T10:04:32.000Z</time>
      </trkpt>
      <trkpt lat="45.8453" lon="-1.21367">
        <ele>44.38</ele>
        <time>2019-08-14T10:04:34.000Z</time>
      </trkpt>
      <trkpt lat="45.8453" lon="-1.2138">
        <ele>44.35</ele>
        <time>2019-08-14T10:04:36.000Z</time>
      </trkpt>
      <trkpt lat="45.84525" lon="-1.21395">
        <ele>44.29</ele>
        <time>2019-08-14T10:04:38.000Z</time>
      </trkpt>
      <trkpt lat="45.84522" lon="-1.21412">
        <ele>44.23</ele>
        <time>2019-08-14T10:04:40.000Z</time>
      </trkpt>
      <trkpt lat="45.84521" lon="-1.21429">
        <ele>44.2</ele>
        <time>2019-08-14T10:04:42.000Z</time>
      </trkpt>
      <trkpt lat="45.84517" lon="-1.21446">
        <ele>44.12</ele>
        <time>2019-08-14T10:04:44.000Z</time>
      </trkpt>
      <trkpt lat="45.84516" lon="-1.21463">
        <ele>44.02</ele>
        <time>2019-08-14T10:04:46.000Z</time>
      </trkpt>
      <trkpt lat="45.84513" lon="-1.21479">
        <ele>43.91</ele>
        <time>2019-08-14T10:04:48.000Z</time>
      </trkpt>
      <trkpt lat="45.8451" lon="-1.21492">
        <ele>43.82</ele>
        <time>2019-08-14T10:04:50.000Z</time>
      </trkpt>
      <trkpt lat="45.84506" lon="-1.21517">
        <ele>43.74</ele>
        <time>2019-08-14T10:04:54.000Z</time>
      </trkpt>
      <trkpt lat="45.84505" lon="-1.21532">
        <ele>43.62</ele>
        <time>2019-08-14T10:04:56.000Z</time>
      </trkpt>
      <trkpt lat="45.84505" lon="-1.21545">
        <ele>43.51</ele>
        <time>2019-08-14T10:04:58.000Z</time>
      </trkpt>
      <trkpt lat="45.84505" lon="-1.21572">
        <ele>43.35</ele>
        <time>2019-08-14T10:05:01.000Z</time>
      </trkpt>
      <trkpt lat="45.84503" lon="-1.21592">
        <ele>43.25</ele>
        <time>2019-08-14T10:05:03.000Z</time>
      </trkpt>
      <trkpt lat="45.84504" lon="-1.21615">
        <ele>43.18</ele>
        <time>2019-08-14T10:05:06.000Z</time>
      </trkpt>
      <trkpt lat="45.84504" lon="-1.21638">
        <ele>43.09</ele>
        <time>2019-08-14T10:05:09.000Z</time>
      </trkpt>
      <trkpt lat="45.84503" lon="-1.21656">
        <ele>43</ele>
        <time>2019-08-14T10:05:11.000Z</time>
      </trkpt>
      <trkpt lat="45.84502" lon="-1.21669">
        <ele>42.97</ele>
        <time>2019-08-14T10:05:13.000Z</time>
      </trkpt>
      <trkpt lat="45.84502" lon="-1.21688">
        <ele>42.96</ele>
        <time>2019-08-14T10:05:17.000Z</time>
      </trkpt>
      <trkpt lat="45.84493" lon="-1.21693">
        <ele>42.91</ele>
        <time>2019-08-14T10:05:25.000Z</time>
      </trkpt>
      <trkpt lat="45.84483" lon="-1.2169">
        <ele>42.9</ele>
        <time>2019-08-14T10:05:29.000Z</time>
      </trkpt>
      <trkpt lat="45.84473" lon="-1.21685">
        <ele>42.93</ele>
        <time>2019-08-14T10:05:43.000Z</time>
      </trkpt>
      <trkpt lat="45.84458" lon="-1.21681">
        <ele>42.94</ele>
        <time>2019-08-14T10:05:47.000Z</time>
      </trkpt>
      <trkpt lat="45.84449" lon="-1.21676">
        <ele>42.94</ele>
        <time>2019-08-14T10:05:49.000Z</time>
      </trkpt>
      <trkpt lat="45.84439" lon="-1.21671">
        <ele>42.95</ele>
        <time>2019-08-14T10:05:52.000Z</time>
      </trkpt>
      <trkpt lat="45.84427" lon="-1.21667">
        <ele>42.96</ele>
        <time>2019-08-14T10:05:56.000Z</time>
      </trkpt>
      <trkpt lat="45.84418" lon="-1.21664">
        <ele>42.97</ele>
        <time>2019-08-14T10:05:59.000Z</time>
      </trkpt>
      <trkpt lat="45.84407" lon="-1.21663">
        <ele>42.98</ele>
        <time>2019-08-14T10:06:02.000Z</time>
      </trkpt>
      <trkpt lat="45.84397" lon="-1.21661">
        <ele>43</ele>
        <time>2019-08-14T10:06:05.000Z</time>
      </trkpt>
      <trkpt lat="45.84384" lon="-1.21657">
        <ele>43.01</ele>
        <time>2019-08-14T10:06:08.000Z</time>
      </trkpt>
      <trkpt lat="45.84371" lon="-1.21651">
        <ele>43.07</ele>
        <time>2019-08-14T10:06:11.000Z</time>
      </trkpt>
      <trkpt lat="45.84359" lon="-1.21642">
        <ele>43.11</ele>
        <time>2019-08-14T10:06:14.000Z</time>
      </trkpt>
      <trkpt lat="45.84349" lon="-1.21635">
        <ele>43.18</ele>
        <time>2019-08-14T10:06:16.000Z</time>
      </trkpt>
      <trkpt lat="45.8434" lon="-1.21626">
        <ele>43.24</ele>
        <time>2019-08-14T10:06:18.000Z</time>
      </trkpt>
      <trkpt lat="45.84332" lon="-1.21618">
        <ele>43.29</ele>
        <time>2019-08-14T10:06:20.000Z</time>
      </trkpt>
      <trkpt lat="45.84323" lon="-1.21607">
        <ele>43.34</ele>
        <time>2019-08-14T10:06:22.000Z</time>
      </trkpt>
      <trkpt lat="45.84313" lon="-1.21598">
        <ele>43.37</ele>
        <time>2019-08-14T10:06:24.000Z</time>
      </trkpt>
      <trkpt lat="45.84302" lon="-1.2159">
        <ele>43.42</ele>
        <time>2019-08-14T10:06:26.000Z</time>
      </trkpt>
      <trkpt lat="45.84291" lon="-1.21587">
        <ele>43.49</ele>
        <time>2019-08-14T10:06:28.000Z</time>
      </trkpt>
      <trkpt lat="45.84279" lon="-1.21586">
        <ele>43.59</ele>
        <time>2019-08-14T10:06:30.000Z</time>
      </trkpt>
      <trkpt lat="45.8427" lon="-1.21587">
        <ele>43.66</ele>
        <time>2019-08-14T10:06:32.000Z</time>
      </trkpt>
      <trkpt lat="45.84259" lon="-1.21589">
        <ele>43.67</ele>
        <time>2019-08-14T10:06:35.000Z</time>
      </trkpt>
      <trkpt lat="45.84245" lon="-1.21591">
        <ele>43.76</ele>
        <time>2019-08-14T10:06:38.000Z</time>
      </trkpt>
      <trkpt lat="45.84234" lon="-1.21592">
        <ele>43.76</ele>
        <time>2019-08-14T10:06:41.000Z</time>
      </trkpt>
      <trkpt lat="45.84222" lon="-1.21594">
        <ele>43.77</ele>
        <time>2019-08-14T10:06:44.000Z</time>
      </trkpt>
      <trkpt lat="45.84211" lon="-1.21596">
        <ele>43.79</ele>
        <time>2019-08-14T10:06:47.000Z</time>
      </trkpt>
      <trkpt lat="45.84198" lon="-1.21595">
        <ele>43.89</ele>
        <time>2019-08-14T10:06:49.000Z</time>
      </trkpt>
      <trkpt lat="45.8419" lon="-1.21591">
        <ele>43.98</ele>
        <time>2019-08-14T10:06:51.000Z</time>
      </trkpt>
      <trkpt lat="45.84178" lon="-1.21587">
        <ele>44.08</ele>
        <time>2019-08-14T10:06:53.000Z</time>
      </trkpt>
      <trkpt lat="45.84163" lon="-1.21585">
        <ele>44.15</ele>
        <time>2019-08-14T10:06:55.000Z</time>
      </trkpt>
      <trkpt lat="45.84151" lon="-1.21579">
        <ele>44.16</ele>
        <time>2019-08-14T10:06:57.000Z</time>
      </trkpt>
      <trkpt lat="45.84141" lon="-1.21577">
        <ele>44.19</ele>
        <time>2019-08-14T10:06:59.000Z</time>
      </trkpt>
      <trkpt lat="45.84127" lon="-1.21572">
        <ele>44.22</ele>
        <time>2019-08-14T10:07:02.000Z</time>
      </trkpt>
      <trkpt lat="45.84114" lon="-1.21567">
        <ele>44.25</ele>
        <time>2019-08-14T10:07:05.000Z</time>
      </trkpt>
      <trkpt lat="45.84103" lon="-1.21564">
        <ele>44.3</ele>
        <time>2019-08-14T10:07:07.000Z</time>
      </trkpt>
      <trkpt lat="45.84091" lon="-1.21561">
        <ele>44.33</ele>
        <time>2019-08-14T10:07:09.000Z</time>
      </trkpt>
      <trkpt lat="45.8408" lon="-1.21558">
        <ele>44.35</ele>
        <time>2019-08-14T10:07:11.000Z</time>
      </trkpt>
      <trkpt lat="45.84069" lon="-1.21554">
        <ele>44.4</ele>
        <time>2019-08-14T10:07:13.000Z</time>
      </trkpt>
      <trkpt lat="45.84059" lon="-1.21551">
        <ele>44.44</ele>
        <time>2019-08-14T10:07:15.000Z</time>
      </trkpt>
      <trkpt lat="45.8405" lon="-1.2155">
        <ele>44.49</ele>
        <time>2019-08-14T10:07:17.000Z</time>
      </trkpt>
      <trkpt lat="45.84036" lon="-1.21546">
        <ele>44.56</ele>
        <time>2019-08-14T10:07:20.000Z</time>
      </trkpt>
      <trkpt lat="45.84025" lon="-1.21543">
        <ele>44.6</ele>
        <time>2019-08-14T10:07:22.000Z</time>
      </trkpt>
      <trkpt lat="45.84016" lon="-1.21539">
        <ele>44.63</ele>
        <time>2019-08-14T10:07:24.000Z</time>
      </trkpt>
      <trkpt lat="45.84006" lon="-1.21537">
        <ele>44.66</ele>
        <time>2019-08-14T10:07:26.000Z</time>
      </trkpt>
      <trkpt lat="45.83994" lon="-1.21533">
        <ele>44.68</ele>
        <time>2019-08-14T10:07:28.000Z</time>
      </trkpt>
      <trkpt lat="45.83983" lon="-1.21529">
        <ele>44.69</ele>
        <time>2019-08-14T10:07:30.000Z</time>
      </trkpt>
      <trkpt lat="45.83972" lon="-1.21527">
        <ele>44.68</ele>
        <time>2019-08-14T10:07:32.000Z</time>
      </trkpt>
      <trkpt lat="45.8396" lon="-1.21523">
        <ele>44.69</ele>
        <time>2019-08-14T10:07:34.000Z</time>
      </trkpt>
      <trkpt lat="45.83947" lon="-1.21519">
        <ele>44.71</ele>
        <time>2019-08-14T10:07:37.000Z</time>
      </trkpt>
      <trkpt lat="45.83938" lon="-1.21517">
        <ele>44.71</ele>
        <time>2019-08-14T10:07:39.000Z</time>
      </trkpt>
      <trkpt lat="45.83926" lon="-1.21515">
        <ele>44.68</ele>
        <time>2019-08-14T10:07:42.000Z</time>
      </trkpt>
      <trkpt lat="45.83917" lon="-1.21514">
        <ele>44.65</ele>
        <time>2019-08-14T10:07:44.000Z</time>
      </trkpt>
      <trkpt lat="45.83907" lon="-1.21512">
        <ele>44.64</ele>
        <time>2019-08-14T10:07:46.000Z</time>
      </trkpt>
      <trkpt lat="45.83898" lon="-1.21509">
        <ele>44.62</ele>
        <time>2019-08-14T10:07:48.000Z</time>
      </trkpt>
      <trkpt lat="45.83884" lon="-1.21507">
        <ele>44.6</ele>
        <time>2019-08-14T10:07:51.000Z</time>
      </trkpt>
      <trkpt lat="45.83873" lon="-1.21504">
        <ele>44.58</ele>
        <time>2019-08-14T10:07:53.000Z</time>
      </trkpt>
      <trkpt lat="45.83863" lon="-1.21501">
        <ele>44.57</ele>
        <time>2019-08-14T10:07:55.000Z</time>
      </trkpt>
      <trkpt lat="45.83851" lon="-1.21498">
        <ele>44.58</ele>
        <time>2019-08-14T10:07:58.000Z</time>
      </trkpt>
      <trkpt lat="45.8384" lon="-1.21497">
        <ele>44.6</ele>
        <time>2019-08-14T10:08:00.000Z</time>
      </trkpt>
      <trkpt lat="45.83824" lon="-1.21494">
        <ele>44.67</ele>
        <time>2019-08-14T10:08:02.000Z</time>
      </trkpt>
      <trkpt lat="45.83813" lon="-1.21494">
        <ele>44.7</ele>
        <time>2019-08-14T10:08:04.000Z</time>
      </trkpt>
      <trkpt lat="45.83804" lon="-1.21491">
        <ele>44.75</ele>
        <time>2019-08-14T10:08:06.000Z</time>
      </trkpt>
      <trkpt lat="45.83792" lon="-1.21486">
        <ele>44.82</ele>
        <time>2019-08-14T10:08:08.000Z</time>
      </trkpt>
      <trkpt lat="45.83782" lon="-1.21478">
        <ele>44.86</ele>
        <time>2019-08-14T10:08:10.000Z</time>
      </trkpt>
      <trkpt lat="45.83772" lon="-1.21468">
        <ele>44.88</ele>
        <time>2019-08-14T10:08:12.000Z</time>
      </trkpt>
      <trkpt lat="45.83761" lon="-1.21461">
        <ele>44.88</ele>
        <time>2019-08-14T10:08:14.000Z</time>
      </trkpt>
      <trkpt lat="45.83751" lon="-1.21454">
        <ele>44.9</ele>
        <time>2019-08-14T10:08:16.000Z</time>
      </trkpt>
      <trkpt lat="45.83737" lon="-1.21448">
        <ele>44.95</ele>
        <time>2019-08-14T10:08:19.000Z</time>
      </trkpt>
      <trkpt lat="45.83727" lon="-1.21447">
        <ele>44.98</ele>
        <time>2019-08-14T10:08:21.000Z</time>
      </trkpt>
      <trkpt lat="45.83717" lon="-1.21448">
        <ele>45.01</ele>
        <time>2019-08-14T10:08:23.000Z</time>
      </trkpt>
      <trkpt lat="45.83707" lon="-1.21449">
        <ele>45.04</ele>
        <time>2019-08-14T10:08:25.000Z</time>
      </trkpt>
      <trkpt lat="45.83696" lon="-1.21453">
        <ele>45.06</ele>
        <time>2019-08-14T10:08:27.000Z</time>
      </trkpt>
      <trkpt lat="45.83687" lon="-1.21461">
        <ele>45.07</ele>
        <time>2019-08-14T10:08:29.000Z</time>
      </trkpt>
      <trkpt lat="45.83678" lon="-1.21469">
        <ele>45.09</ele>
        <time>2019-08-14T10:08:31.000Z</time>
      </trkpt>
      <trkpt lat="45.83668" lon="-1.21477">
        <ele>45.11</ele>
        <time>2019-08-14T10:08:33.000Z</time>
      </trkpt>
      <trkpt lat="45.83657" lon="-1.21487">
        <ele>45.13</ele>
        <time>2019-08-14T10:08:35.000Z</time>
      </trkpt>
      <trkpt lat="45.83643" lon="-1.21496">
        <ele>45.16</ele>
        <time>2019-08-14T10:08:37.000Z</time>
      </trkpt>
      <trkpt lat="45.83632" lon="-1.21509">
        <ele>45.13</ele>
        <time>2019-08-14T10:08:39.000Z</time>
      </trkpt>
      <trkpt lat="45.83622" lon="-1.2152">
        <ele>45.14</ele>
        <time>2019-08-14T10:08:41.000Z</time>
      </trkpt>
      <trkpt lat="45.83611" lon="-1.21531">
        <ele>45.28</ele>
        <time>2019-08-14T10:08:43.000Z</time>
      </trkpt>
      <trkpt lat="45.83601" lon="-1.21541">
        <ele>45.45</ele>
        <time>2019-08-14T10:08:45.000Z</time>
      </trkpt>
      <trkpt lat="45.83593" lon="-1.21548">
        <ele>45.61</ele>
        <time>2019-08-14T10:08:47.000Z</time>
      </trkpt>
      <trkpt lat="45.83583" lon="-1.21555">
        <ele>45.59</ele>
        <time>2019-08-14T10:08:50.000Z</time>
      </trkpt>
      <trkpt lat="45.83569" lon="-1.21558">
        <ele>45.59</ele>
        <time>2019-08-14T10:08:53.000Z</time>
      </trkpt>
      <trkpt lat="45.83558" lon="-1.21561">
        <ele>45.59</ele>
        <time>2019-08-14T10:08:56.000Z</time>
      </trkpt>
      <trkpt lat="45.83547" lon="-1.21564">
        <ele>45.58</ele>
        <time>2019-08-14T10:08:59.000Z</time>
      </trkpt>
      <trkpt lat="45.83534" lon="-1.21564">
        <ele>45.54</ele>
        <time>2019-08-14T10:09:02.000Z</time>
      </trkpt>
      <trkpt lat="45.83523" lon="-1.21562">
        <ele>45.51</ele>
        <time>2019-08-14T10:09:04.000Z</time>
      </trkpt>
      <trkpt lat="45.83511" lon="-1.2156">
        <ele>45.47</ele>
        <time>2019-08-14T10:09:06.000Z</time>
      </trkpt>
      <trkpt lat="45.83499" lon="-1.21558">
        <ele>45.35</ele>
        <time>2019-08-14T10:09:08.000Z</time>
      </trkpt>
      <trkpt lat="45.83488" lon="-1.21554">
        <ele>45.2</ele>
        <time>2019-08-14T10:09:10.000Z</time>
      </trkpt>
      <trkpt lat="45.83479" lon="-1.21549">
        <ele>45.11</ele>
        <time>2019-08-14T10:09:12.000Z</time>
      </trkpt>
      <trkpt lat="45.8347" lon="-1.2154">
        <ele>45</ele>
        <time>2019-08-14T10:09:15.000Z</time>
      </trkpt>
      <trkpt lat="45.83459" lon="-1.2153">
        <ele>44.93</ele>
        <time>2019-08-14T10:09:18.000Z</time>
      </trkpt>
      <trkpt lat="45.83451" lon="-1.21522">
        <ele>44.87</ele>
        <time>2019-08-14T10:09:20.000Z</time>
      </trkpt>
      <trkpt lat="45.83443" lon="-1.21513">
        <ele>44.87</ele>
        <time>2019-08-14T10:09:22.000Z</time>
      </trkpt>
      <trkpt lat="45.83429" lon="-1.21506">
        <ele>44.86</ele>
        <time>2019-08-14T10:09:25.000Z</time>
      </trkpt>
      <trkpt lat="45.8342" lon="-1.21497">
        <ele>44.81</ele>
        <time>2019-08-14T10:09:28.000Z</time>
      </trkpt>
      <trkpt lat="45.83409" lon="-1.21488">
        <ele>44.81</ele>
        <time>2019-08-14T10:09:30.000Z</time>
      </trkpt>
      <trkpt lat="45.83401" lon="-1.21483">
        <ele>44.8</ele>
        <time>2019-08-14T10:09:33.000Z</time>
      </trkpt>
      <trkpt lat="45.8339" lon="-1.21473">
        <ele>44.79</ele>
        <time>2019-08-14T10:09:36.000Z</time>
      </trkpt>
      <trkpt lat="45.83382" lon="-1.21463">
        <ele>44.77</ele>
        <time>2019-08-14T10:09:44.000Z</time>
      </trkpt>
      <trkpt lat="45.83375" lon="-1.21451">
        <ele>44.78</ele>
        <time>2019-08-14T10:09:47.000Z</time>
      </trkpt>
      <trkpt lat="45.83366" lon="-1.21455">
        <ele>44.82</ele>
        <time>2019-08-14T10:09:56.000Z</time>
      </trkpt>
      <trkpt lat="45.8336" lon="-1.21467">
        <ele>44.83</ele>
        <time>2019-08-14T10:09:59.000Z</time>
      </trkpt>
      <trkpt lat="45.8335" lon="-1.2148">
        <ele>44.82</ele>
        <time>2019-08-14T10:10:02.000Z</time>
      </trkpt>
      <trkpt lat="45.83341" lon="-1.21494">
        <ele>44.81</ele>
        <time>2019-08-14T10:10:05.000Z</time>
      </trkpt>
      <trkpt lat="45.83334" lon="-1.21507">
        <ele>44.8</ele>
        <time>2019-08-14T10:10:08.000Z</time>
      </trkpt>
      <trkpt lat="45.83327" lon="-1.21522">
        <ele>44.66</ele>
        <time>2019-08-14T10:10:11.000Z</time>
      </trkpt>
      <trkpt lat="45.83322" lon="-1.21534">
        <ele>44.54</ele>
        <time>2019-08-14T10:10:13.000Z</time>
      </trkpt>
      <trkpt lat="45.83314" lon="-1.21552">
        <ele>44.4</ele>
        <time>2019-08-14T10:10:16.000Z</time>
      </trkpt>
      <trkpt lat="45.8331" lon="-1.21565">
        <ele>44.39</ele>
        <time>2019-08-14T10:10:18.000Z</time>
      </trkpt>
      <trkpt lat="45.83304" lon="-1.21576">
        <ele>44.38</ele>
        <time>2019-08-14T10:10:20.000Z</time>
      </trkpt>
      <trkpt lat="45.83298" lon="-1.21589">
        <ele>44.37</ele>
        <time>2019-08-14T10:10:22.000Z</time>
      </trkpt>
      <trkpt lat="45.83293" lon="-1.21601">
        <ele>44.33</ele>
        <time>2019-08-14T10:10:24.000Z</time>
      </trkpt>
      <trkpt lat="45.83289" lon="-1.21615">
        <ele>44.27</ele>
        <time>2019-08-14T10:10:26.000Z</time>
      </trkpt>
      <trkpt lat="45.83283" lon="-1.2163">
        <ele>44.18</ele>
        <time>2019-08-14T10:10:28.000Z</time>
      </trkpt>
      <trkpt lat="45.83279" lon="-1.21645">
        <ele>44.04</ele>
        <time>2019-08-14T10:10:30.000Z</time>
      </trkpt>
      <trkpt lat="45.83275" lon="-1.2166">
        <ele>43.9</ele>
        <time>2019-08-14T10:10:32.000Z</time>
      </trkpt>
      <trkpt lat="45.8327" lon="-1.21672">
        <ele>43.81</ele>
        <time>2019-08-14T10:10:34.000Z</time>
      </trkpt>
      <trkpt lat="45.83265" lon="-1.21684">
        <ele>43.74</ele>
        <time>2019-08-14T10:10:36.000Z</time>
      </trkpt>
      <trkpt lat="45.83259" lon="-1.21694">
        <ele>43.67</ele>
        <time>2019-08-14T10:10:38.000Z</time>
      </trkpt>
      <trkpt lat="45.83252" lon="-1.21706">
        <ele>43.61</ele>
        <time>2019-08-14T10:10:40.000Z</time>
      </trkpt>
      <trkpt lat="45.83247" lon="-1.21719">
        <ele>43.58</ele>
        <time>2019-08-14T10:10:42.000Z</time>
      </trkpt>
      <trkpt lat="45.83241" lon="-1.21731">
        <ele>43.56</ele>
        <time>2019-08-14T10:10:44.000Z</time>
      </trkpt>
      <trkpt lat="45.83236" lon="-1.21745">
        <ele>43.57</ele>
        <time>2019-08-14T10:10:46.000Z</time>
      </trkpt>
      <trkpt lat="45.8323" lon="-1.21757">
        <ele>43.59</ele>
        <time>2019-08-14T10:10:48.000Z</time>
      </trkpt>
      <trkpt lat="45.83224" lon="-1.21769">
        <ele>43.59</ele>
        <time>2019-08-14T10:10:50.000Z</time>
      </trkpt>
      <trkpt lat="45.83218" lon="-1.21781">
        <ele>43.6</ele>
        <time>2019-08-14T10:10:52.000Z</time>
      </trkpt>
      <trkpt lat="45.83211" lon="-1.21794">
        <ele>43.61</ele>
        <time>2019-08-14T10:10:54.000Z</time>
      </trkpt>
      <trkpt lat="45.83204" lon="-1.21804">
        <ele>43.61</ele>
        <time>2019-08-14T10:10:56.000Z</time>
      </trkpt>
      <trkpt lat="45.83198" lon="-1.21816">
        <ele>43.61</ele>
        <time>2019-08-14T10:10:58.000Z</time>
      </trkpt>
      <trkpt lat="45.8319" lon="-1.21828">
        <ele>43.6</ele>
        <time>2019-08-14T10:11:00.000Z</time>
      </trkpt>
      <trkpt lat="45.83183" lon="-1.21842">
        <ele>43.57</ele>
        <time>2019-08-14T10:11:02.000Z</time>
      </trkpt>
      <trkpt lat="45.83176" lon="-1.21855">
        <ele>43.54</ele>
        <time>2019-08-14T10:11:04.000Z</time>
      </trkpt>
      <trkpt lat="45.83169" lon="-1.21867">
        <ele>43.53</ele>
        <time>2019-08-14T10:11:06.000Z</time>
      </trkpt>
      <trkpt lat="45.83164" lon="-1.21878">
        <ele>43.5</ele>
        <time>2019-08-14T10:11:08.000Z</time>
      </trkpt>
      <trkpt lat="45.83157" lon="-1.21889">
        <ele>43.49</ele>
        <time>2019-08-14T10:11:10.000Z</time>
      </trkpt>
      <trkpt lat="45.8315" lon="-1.21899">
        <ele>43.49</ele>
        <time>2019-08-14T10:11:12.000Z</time>
      </trkpt>
      <trkpt lat="45.83142" lon="-1.21908">
        <ele>43.5</ele>
        <time>2019-08-14T10:11:14.000Z</time>
      </trkpt>
      <trkpt lat="45.83133" lon="-1.21918">
        <ele>43.49</ele>
        <time>2019-08-14T10:11:17.000Z</time>
      </trkpt>
      <trkpt lat="45.83125" lon="-1.21928">
        <ele>43.47</ele>
        <time>2019-08-14T10:11:19.000Z</time>
      </trkpt>
      <trkpt lat="45.83115" lon="-1.21938">
        <ele>43.47</ele>
        <time>2019-08-14T10:11:21.000Z</time>
      </trkpt>
      <trkpt lat="45.83107" lon="-1.21947">
        <ele>43.46</ele>
        <time>2019-08-14T10:11:23.000Z</time>
      </trkpt>
      <trkpt lat="45.83098" lon="-1.21958">
        <ele>43.46</ele>
        <time>2019-08-14T10:11:25.000Z</time>
      </trkpt>
      <trkpt lat="45.8309" lon="-1.21967">
        <ele>43.47</ele>
        <time>2019-08-14T10:11:27.000Z</time>
      </trkpt>
      <trkpt lat="45.83083" lon="-1.21976">
        <ele>43.47</ele>
        <time>2019-08-14T10:11:29.000Z</time>
      </trkpt>
      <trkpt lat="45.8307" lon="-1.21988">
        <ele>43.45</ele>
        <time>2019-08-14T10:11:32.000Z</time>
      </trkpt>
      <trkpt lat="45.83061" lon="-1.21996">
        <ele>43.43</ele>
        <time>2019-08-14T10:11:34.000Z</time>
      </trkpt>
      <trkpt lat="45.83054" lon="-1.22005">
        <ele>43.42</ele>
        <time>2019-08-14T10:11:36.000Z</time>
      </trkpt>
      <trkpt lat="45.83045" lon="-1.22014">
        <ele>43.39</ele>
        <time>2019-08-14T10:11:38.000Z</time>
      </trkpt>
      <trkpt lat="45.83034" lon="-1.22025">
        <ele>43.35</ele>
        <time>2019-08-14T10:11:41.000Z</time>
      </trkpt>
      <trkpt lat="45.83026" lon="-1.22034">
        <ele>43.35</ele>
        <time>2019-08-14T10:11:43.000Z</time>
      </trkpt>
      <trkpt lat="45.83018" lon="-1.22044">
        <ele>43.35</ele>
        <time>2019-08-14T10:11:45.000Z</time>
      </trkpt>
      <trkpt lat="45.8301" lon="-1.22057">
        <ele>43.31</ele>
        <time>2019-08-14T10:11:47.000Z</time>
      </trkpt>
      <trkpt lat="45.83002" lon="-1.22067">
        <ele>43.27</ele>
        <time>2019-08-14T10:11:49.000Z</time>
      </trkpt>
      <trkpt lat="45.82989" lon="-1.22079">
        <ele>43.2</ele>
        <time>2019-08-14T10:11:52.000Z</time>
      </trkpt>
      <trkpt lat="45.82981" lon="-1.22087">
        <ele>43.15</ele>
        <time>2019-08-14T10:11:54.000Z</time>
      </trkpt>
      <trkpt lat="45.82973" lon="-1.22097">
        <ele>43.1</ele>
        <time>2019-08-14T10:11:56.000Z</time>
      </trkpt>
      <trkpt lat="45.82965" lon="-1.22105">
        <ele>43.07</ele>
        <time>2019-08-14T10:11:58.000Z</time>
      </trkpt>
      <trkpt lat="45.82955" lon="-1.22117">
        <ele>43.05</ele>
        <time>2019-08-14T10:12:01.000Z</time>
      </trkpt>
      <trkpt lat="45.82947" lon="-1.22132">
        <ele>43.03</ele>
        <time>2019-08-14T10:12:04.000Z</time>
      </trkpt>
      <trkpt lat="45.82942" lon="-1.22144">
        <ele>43.02</ele>
        <time>2019-08-14T10:12:06.000Z</time>
      </trkpt>
      <trkpt lat="45.8294" lon="-1.22161">
        <ele>43.01</ele>
        <time>2019-08-14T10:12:09.000Z</time>
      </trkpt>
      <trkpt lat="45.82938" lon="-1.22175">
        <ele>43</ele>
        <time>2019-08-14T10:12:12.000Z</time>
      </trkpt>
      <trkpt lat="45.82936" lon="-1.22192">
        <ele>42.93</ele>
        <time>2019-08-14T10:12:15.000Z</time>
      </trkpt>
      <trkpt lat="45.82934" lon="-1.22209">
        <ele>42.91</ele>
        <time>2019-08-14T10:12:18.000Z</time>
      </trkpt>
      <trkpt lat="45.82932" lon="-1.22227">
        <ele>42.81</ele>
        <time>2019-08-14T10:12:21.000Z</time>
      </trkpt>
      <trkpt lat="45.8293" lon="-1.22245">
        <ele>42.73</ele>
        <time>2019-08-14T10:12:24.000Z</time>
      </trkpt>
      <trkpt lat="45.82928" lon="-1.22263">
        <ele>42.58</ele>
        <time>2019-08-14T10:12:27.000Z</time>
      </trkpt>
      <trkpt lat="45.82927" lon="-1.2228">
        <ele>42.54</ele>
        <time>2019-08-14T10:12:30.000Z</time>
      </trkpt>
      <trkpt lat="45.82925" lon="-1.22297">
        <ele>42.49</ele>
        <time>2019-08-14T10:12:33.000Z</time>
      </trkpt>
      <trkpt lat="45.82922" lon="-1.22309">
        <ele>42.45</ele>
        <time>2019-08-14T10:12:36.000Z</time>
      </trkpt>
      <trkpt lat="45.82921" lon="-1.22322">
        <ele>42.42</ele>
        <time>2019-08-14T10:12:38.000Z</time>
      </trkpt>
      <trkpt lat="45.82918" lon="-1.22338">
        <ele>42.36</ele>
        <time>2019-08-14T10:12:40.000Z</time>
      </trkpt>
      <trkpt lat="45.82914" lon="-1.22353">
        <ele>42.3</ele>
        <time>2019-08-14T10:12:42.000Z</time>
      </trkpt>
      <trkpt lat="45.82908" lon="-1.22366">
        <ele>42.25</ele>
        <time>2019-08-14T10:12:44.000Z</time>
      </trkpt>
      <trkpt lat="45.82901" lon="-1.22376">
        <ele>42.25</ele>
        <time>2019-08-14T10:12:46.000Z</time>
      </trkpt>
      <trkpt lat="45.82892" lon="-1.22388">
        <ele>42.16</ele>
        <time>2019-08-14T10:12:49.000Z</time>
      </trkpt>
      <trkpt lat="45.82884" lon="-1.22397">
        <ele>42.08</ele>
        <time>2019-08-14T10:12:51.000Z</time>
      </trkpt>
      <trkpt lat="45.82877" lon="-1.22406">
        <ele>42</ele>
        <time>2019-08-14T10:12:53.000Z</time>
      </trkpt>
      <trkpt lat="45.82866" lon="-1.22417">
        <ele>41.96</ele>
        <time>2019-08-14T10:12:56.000Z</time>
      </trkpt>
      <trkpt lat="45.82856" lon="-1.22429">
        <ele>41.93</ele>
        <time>2019-08-14T10:12:59.000Z</time>
      </trkpt>
      <trkpt lat="45.82849" lon="-1.22437">
        <ele>41.91</ele>
        <time>2019-08-14T10:13:01.000Z</time>
      </trkpt>
      <trkpt lat="45.82841" lon="-1.22446">
        <ele>41.88</ele>
        <time>2019-08-14T10:13:03.000Z</time>
      </trkpt>
      <trkpt lat="45.82831" lon="-1.22456">
        <ele>41.85</ele>
        <time>2019-08-14T10:13:06.000Z</time>
      </trkpt>
      <trkpt lat="45.82821" lon="-1.22468">
        <ele>41.79</ele>
        <time>2019-08-14T10:13:09.000Z</time>
      </trkpt>
      <trkpt lat="45.82811" lon="-1.22478">
        <ele>41.76</ele>
        <time>2019-08-14T10:13:12.000Z</time>
      </trkpt>
      <trkpt lat="45.82802" lon="-1.22489">
        <ele>41.75</ele>
        <time>2019-08-14T10:13:15.000Z</time>
      </trkpt>
      <trkpt lat="45.82795" lon="-1.22496">
        <ele>41.75</ele>
        <time>2019-08-14T10:13:18.000Z</time>
      </trkpt>
      <trkpt lat="45.82785" lon="-1.22499">
        <ele>41.74</ele>
        <time>2019-08-14T10:13:23.000Z</time>
      </trkpt>
      <trkpt lat="45.82779" lon="-1.22489">
        <ele>41.73</ele>
        <time>2019-08-14T10:13:26.000Z</time>
      </trkpt>
      <trkpt lat="45.82769" lon="-1.22478">
        <ele>41.69</ele>
        <time>2019-08-14T10:13:29.000Z</time>
      </trkpt>
      <trkpt lat="45.82761" lon="-1.22463">
        <ele>41.62</ele>
        <time>2019-08-14T10:13:32.000Z</time>
      </trkpt>
      <trkpt lat="45.82756" lon="-1.22452">
        <ele>41.6</ele>
        <time>2019-08-14T10:13:34.000Z</time>
      </trkpt>
      <trkpt lat="45.82749" lon="-1.22434">
        <ele>41.58</ele>
        <time>2019-08-14T10:13:36.999Z</time>
      </trkpt>
      <trkpt lat="45.82744" lon="-1.2242">
        <ele>41.6</ele>
        <time>2019-08-14T10:13:38.999Z</time>
      </trkpt>
      <trkpt lat="45.8274" lon="-1.22406">
        <ele>41.64</ele>
        <time>2019-08-14T10:13:40.999Z</time>
      </trkpt>
      <trkpt lat="45.82735" lon="-1.22392">
        <ele>41.7</ele>
        <time>2019-08-14T10:13:42.999Z</time>
      </trkpt>
      <trkpt lat="45.82731" lon="-1.22379">
        <ele>41.77</ele>
        <time>2019-08-14T10:13:44.999Z</time>
      </trkpt>
      <trkpt lat="45.82726" lon="-1.22366">
        <ele>41.85</ele>
        <time>2019-08-14T10:13:46.999Z</time>
      </trkpt>
      <trkpt lat="45.82721" lon="-1.22354">
        <ele>41.98</ele>
        <time>2019-08-14T10:13:48.999Z</time>
      </trkpt>
      <trkpt lat="45.82717" lon="-1.22341">
        <ele>42.11</ele>
        <time>2019-08-14T10:13:50.999Z</time>
      </trkpt>
      <trkpt lat="45.82713" lon="-1.22327">
        <ele>42.22</ele>
        <time>2019-08-14T10:13:52.999Z</time>
      </trkpt>
      <trkpt lat="45.82709" lon="-1.22315">
        <ele>42.27</ele>
        <time>2019-08-14T10:13:54.999Z</time>
      </trkpt>
      <trkpt lat="45.82704" lon="-1.22298">
        <ele>42.33</ele>
        <time>2019-08-14T10:13:57.999Z</time>
      </trkpt>
      <trkpt lat="45.827" lon="-1.22286">
        <ele>42.37</ele>
        <time>2019-08-14T10:13:59.999Z</time>
      </trkpt>
      <trkpt lat="45.82695" lon="-1.22274">
        <ele>42.4</ele>
        <time>2019-08-14T10:14:01.999Z</time>
      </trkpt>
      <trkpt lat="45.82691" lon="-1.22262">
        <ele>42.46</ele>
        <time>2019-08-14T10:14:03.999Z</time>
      </trkpt>
      <trkpt lat="45.82685" lon="-1.22245">
        <ele>42.54</ele>
        <time>2019-08-14T10:14:06.999Z</time>
      </trkpt>
      <trkpt lat="45.82681" lon="-1.22233">
        <ele>42.59</ele>
        <time>2019-08-14T10:14:08.999Z</time>
      </trkpt>
      <trkpt lat="45.82676" lon="-1.22216">
        <ele>42.68</ele>
        <time>2019-08-14T10:14:11.999Z</time>
      </trkpt>
      <trkpt lat="45.82671" lon="-1.22198">
        <ele>42.76</ele>
        <time>2019-08-14T10:14:14.999Z</time>
      </trkpt>
      <trkpt lat="45.82665" lon="-1.22181">
        <ele>42.83</ele>
        <time>2019-08-14T10:14:17.999Z</time>
      </trkpt>
      <trkpt lat="45.82661" lon="-1.22169">
        <ele>42.87</ele>
        <time>2019-08-14T10:14:19.999Z</time>
      </trkpt>
      <trkpt lat="45.82657" lon="-1.22156">
        <ele>42.9</ele>
        <time>2019-08-14T10:14:21.999Z</time>
      </trkpt>
      <trkpt lat="45.82653" lon="-1.22143">
        <ele>42.9</ele>
        <time>2019-08-14T10:14:23.999Z</time>
      </trkpt>
      <trkpt lat="45.82649" lon="-1.2213">
        <ele>42.9</ele>
        <time>2019-08-14T10:14:25.999Z</time>
      </trkpt>
      <trkpt lat="45.82644" lon="-1.22113">
        <ele>42.91</ele>
        <time>2019-08-14T10:14:28.999Z</time>
      </trkpt>
      <trkpt lat="45.8264" lon="-1.22102">
        <ele>42.93</ele>
        <time>2019-08-14T10:14:30.999Z</time>
      </trkpt>
      <trkpt lat="45.82635" lon="-1.2209">
        <ele>42.95</ele>
        <time>2019-08-14T10:14:32.999Z</time>
      </trkpt>
      <trkpt lat="45.82631" lon="-1.22078">
        <ele>42.98</ele>
        <time>2019-08-14T10:14:34.999Z</time>
      </trkpt>
      <trkpt lat="45.82623" lon="-1.22064">
        <ele>43.05</ele>
        <time>2019-08-14T10:14:37.999Z</time>
      </trkpt>
      <trkpt lat="45.82616" lon="-1.22049">
        <ele>43.12</ele>
        <time>2019-08-14T10:14:40.999Z</time>
      </trkpt>
      <trkpt lat="45.8261" lon="-1.22032">
        <ele>43.2</ele>
        <time>2019-08-14T10:14:43.999Z</time>
      </trkpt>
      <trkpt lat="45.82606" lon="-1.2202">
        <ele>43.24</ele>
        <time>2019-08-14T10:14:45.999Z</time>
      </trkpt>
      <trkpt lat="45.82601" lon="-1.22009">
        <ele>43.27</ele>
        <time>2019-08-14T10:14:47.999Z</time>
      </trkpt>
      <trkpt lat="45.82594" lon="-1.21993">
        <ele>43.3</ele>
        <time>2019-08-14T10:14:50.999Z</time>
      </trkpt>
      <trkpt lat="45.82588" lon="-1.21977">
        <ele>43.31</ele>
        <time>2019-08-14T10:14:53.999Z</time>
      </trkpt>
      <trkpt lat="45.82583" lon="-1.21962">
        <ele>43.34</ele>
        <time>2019-08-14T10:14:56.999Z</time>
      </trkpt>
      <trkpt lat="45.82578" lon="-1.21948">
        <ele>43.35</ele>
        <time>2019-08-14T10:14:59.999Z</time>
      </trkpt>
      <trkpt lat="45.82573" lon="-1.21934">
        <ele>43.36</ele>
        <time>2019-08-14T10:15:02.999Z</time>
      </trkpt>
      <trkpt lat="45.8257" lon="-1.21921">
        <ele>43.38</ele>
        <time>2019-08-14T10:15:05.999Z</time>
      </trkpt>
      <trkpt lat="45.82565" lon="-1.21907">
        <ele>43.44</ele>
        <time>2019-08-14T10:15:10.999Z</time>
      </trkpt>
      <trkpt lat="45.8256" lon="-1.21892">
        <ele>43.48</ele>
        <time>2019-08-14T10:15:14.999Z</time>
      </trkpt>
      <trkpt lat="45.82554" lon="-1.21877">
        <ele>43.67</ele>
        <time>2019-08-14T10:15:17.999Z</time>
      </trkpt>
      <trkpt lat="45.82549" lon="-1.2186">
        <ele>43.85</ele>
        <time>2019-08-14T10:15:20.999Z</time>
      </trkpt>
      <trkpt lat="45.82544" lon="-1.21844">
        <ele>43.99</ele>
        <time>2019-08-14T10:15:23.999Z</time>
      </trkpt>
      <trkpt lat="45.8254" lon="-1.21832">
        <ele>44.09</ele>
        <time>2019-08-14T10:15:25.999Z</time>
      </trkpt>
      <trkpt lat="45.82534" lon="-1.21815">
        <ele>44.24</ele>
        <time>2019-08-14T10:15:28.999Z</time>
      </trkpt>
      <trkpt lat="45.82528" lon="-1.21798">
        <ele>44.36</ele>
        <time>2019-08-14T10:15:31.999Z</time>
      </trkpt>
      <trkpt lat="45.82522" lon="-1.21782">
        <ele>44.5</ele>
        <time>2019-08-14T10:15:34.999Z</time>
      </trkpt>
      <trkpt lat="45.82515" lon="-1.21766">
        <ele>44.67</ele>
        <time>2019-08-14T10:15:37.999Z</time>
      </trkpt>
      <trkpt lat="45.82509" lon="-1.2175">
        <ele>44.84</ele>
        <time>2019-08-14T10:15:40.999Z</time>
      </trkpt>
      <trkpt lat="45.82505" lon="-1.21734">
        <ele>44.97</ele>
        <time>2019-08-14T10:15:43.999Z</time>
      </trkpt>
      <trkpt lat="45.825" lon="-1.21721">
        <ele>44.99</ele>
        <time>2019-08-14T10:15:46.999Z</time>
      </trkpt>
      <trkpt lat="45.82494" lon="-1.21707">
        <ele>45.09</ele>
        <time>2019-08-14T10:15:49.999Z</time>
      </trkpt>
      <trkpt lat="45.82487" lon="-1.21694">
        <ele>45.18</ele>
        <time>2019-08-14T10:15:52.999Z</time>
      </trkpt>
      <trkpt lat="45.82474" lon="-1.21693">
        <ele>45.32</ele>
        <time>2019-08-14T10:15:55.999Z</time>
      </trkpt>
      <trkpt lat="45.82465" lon="-1.21705">
        <ele>45.4</ele>
        <time>2019-08-14T10:15:58.999Z</time>
      </trkpt>
      <trkpt lat="45.82457" lon="-1.21717">
        <ele>45.47</ele>
        <time>2019-08-14T10:16:01.999Z</time>
      </trkpt>
      <trkpt lat="45.8245" lon="-1.21727">
        <ele>45.5</ele>
        <time>2019-08-14T10:16:03.999Z</time>
      </trkpt>
      <trkpt lat="45.82445" lon="-1.21738">
        <ele>45.5</ele>
        <time>2019-08-14T10:16:05.999Z</time>
      </trkpt>
      <trkpt lat="45.82441" lon="-1.21751">
        <ele>45.47</ele>
        <time>2019-08-14T10:16:07.999Z</time>
      </trkpt>
      <trkpt lat="45.82437" lon="-1.21763">
        <ele>45.43</ele>
        <time>2019-08-14T10:16:09.999Z</time>
      </trkpt>
      <trkpt lat="45.8243" lon="-1.21777">
        <ele>45.38</ele>
        <time>2019-08-14T10:16:12.999Z</time>
      </trkpt>
      <trkpt lat="45.82422" lon="-1.21786">
        <ele>45.37</ele>
        <time>2019-08-14T10:16:15.999Z</time>
      </trkpt>
      <trkpt lat="45.82415" lon="-1.21774">
        <ele>45.36</ele>
        <time>2019-08-14T10:16:19.999Z</time>
      </trkpt>
      <trkpt lat="45.82408" lon="-1.21761">
        <ele>45.28</ele>
        <time>2019-08-14T10:16:22.999Z</time>
      </trkpt>
      <trkpt lat="45.82401" lon="-1.21753">
        <ele>45.25</ele>
        <time>2019-08-14T10:16:24.999Z</time>
      </trkpt>
      <trkpt lat="45.82394" lon="-1.21746">
        <ele>45.22</ele>
        <time>2019-08-14T10:16:26.999Z</time>
      </trkpt>
      <trkpt lat="45.82383" lon="-1.21735">
        <ele>45.21</ele>
        <time>2019-08-14T10:16:29.999Z</time>
      </trkpt>
      <trkpt lat="45.82372" lon="-1.21724">
        <ele>45.23</ele>
        <time>2019-08-14T10:16:32.999Z</time>
      </trkpt>
      <trkpt lat="45.82363" lon="-1.21713">
        <ele>45.27</ele>
        <time>2019-08-14T10:16:35.999Z</time>
      </trkpt>
      <trkpt lat="45.82356" lon="-1.21697">
        <ele>45.3</ele>
        <time>2019-08-14T10:16:38.999Z</time>
      </trkpt>
      <trkpt lat="45.82352" lon="-1.21681">
        <ele>45.31</ele>
        <time>2019-08-14T10:16:41.999Z</time>
      </trkpt>
      <trkpt lat="45.82349" lon="-1.21663">
        <ele>45.37</ele>
        <time>2019-08-14T10:16:44.999Z</time>
      </trkpt>
      <trkpt lat="45.82346" lon="-1.21647">
        <ele>45.38</ele>
        <time>2019-08-14T10:16:47.999Z</time>
      </trkpt>
      <trkpt lat="45.82338" lon="-1.21638">
        <ele>45.39</ele>
        <time>2019-08-14T10:16:51.999Z</time>
      </trkpt>
      <trkpt lat="45.82329" lon="-1.21645">
        <ele>45.41</ele>
        <time>2019-08-14T10:16:54.999Z</time>
      </trkpt>
      <trkpt lat="45.82319" lon="-1.21654">
        <ele>45.5</ele>
        <time>2019-08-14T10:16:57.999Z</time>
      </trkpt>
      <trkpt lat="45.82309" lon="-1.21665">
        <ele>45.53</ele>
        <time>2019-08-14T10:17:00.999Z</time>
      </trkpt>
      <trkpt lat="45.82299" lon="-1.21675">
        <ele>45.58</ele>
        <time>2019-08-14T10:17:03.999Z</time>
      </trkpt>
      <trkpt lat="45.82292" lon="-1.21682">
        <ele>45.62</ele>
        <time>2019-08-14T10:17:05.999Z</time>
      </trkpt>
      <trkpt lat="45.8228" lon="-1.21692">
        <ele>45.64</ele>
        <time>2019-08-14T10:17:08.999Z</time>
      </trkpt>
      <trkpt lat="45.8227" lon="-1.21702">
        <ele>45.66</ele>
        <time>2019-08-14T10:17:11.999Z</time>
      </trkpt>
      <trkpt lat="45.82261" lon="-1.21712">
        <ele>45.69</ele>
        <time>2019-08-14T10:17:14.999Z</time>
      </trkpt>
      <trkpt lat="45.82251" lon="-1.21721">
        <ele>45.69</ele>
        <time>2019-08-14T10:17:17.999Z</time>
      </trkpt>
      <trkpt lat="45.82241" lon="-1.21731">
        <ele>45.7</ele>
        <time>2019-08-14T10:17:21.999Z</time>
      </trkpt>
      <trkpt lat="45.82232" lon="-1.21741">
        <ele>45.7</ele>
        <time>2019-08-14T10:17:24.999Z</time>
      </trkpt>
      <trkpt lat="45.82224" lon="-1.21748">
        <ele>45.7</ele>
        <time>2019-08-14T10:17:27.999Z</time>
      </trkpt>
      <trkpt lat="45.82216" lon="-1.21758">
        <ele>45.7</ele>
        <time>2019-08-14T10:17:31.999Z</time>
      </trkpt>
      <trkpt lat="45.82205" lon="-1.21758">
        <ele>45.69</ele>
        <time>2019-08-14T10:17:37.999Z</time>
      </trkpt>
      <trkpt lat="45.82196" lon="-1.21749">
        <ele>45.69</ele>
        <time>2019-08-14T10:17:40.999Z</time>
      </trkpt>
      <trkpt lat="45.82187" lon="-1.21741">
        <ele>45.66</ele>
        <time>2019-08-14T10:17:43.999Z</time>
      </trkpt>
      <trkpt lat="45.82179" lon="-1.21733">
        <ele>45.66</ele>
        <time>2019-08-14T10:17:45.999Z</time>
      </trkpt>
      <trkpt lat="45.82171" lon="-1.21726">
        <ele>45.66</ele>
        <time>2019-08-14T10:17:47.999Z</time>
      </trkpt>
      <trkpt lat="45.82161" lon="-1.21715">
        <ele>45.67</ele>
        <time>2019-08-14T10:17:50.999Z</time>
      </trkpt>
      <trkpt lat="45.82151" lon="-1.21703">
        <ele>45.69</ele>
        <time>2019-08-14T10:17:53.999Z</time>
      </trkpt>
      <trkpt lat="45.82143" lon="-1.21697">
        <ele>45.7</ele>
        <time>2019-08-14T10:17:55.999Z</time>
      </trkpt>
      <trkpt lat="45.82135" lon="-1.21688">
        <ele>45.71</ele>
        <time>2019-08-14T10:17:57.999Z</time>
      </trkpt>
      <trkpt lat="45.82124" lon="-1.21677">
        <ele>45.74</ele>
        <time>2019-08-14T10:18:00.999Z</time>
      </trkpt>
      <trkpt lat="45.82116" lon="-1.2167">
        <ele>45.76</ele>
        <time>2019-08-14T10:18:02.999Z</time>
      </trkpt>
      <trkpt lat="45.82104" lon="-1.21662">
        <ele>45.77</ele>
        <time>2019-08-14T10:18:05.999Z</time>
      </trkpt>
      <trkpt lat="45.82092" lon="-1.21655">
        <ele>45.77</ele>
        <time>2019-08-14T10:18:08.999Z</time>
      </trkpt>
      <trkpt lat="45.82083" lon="-1.21652">
        <ele>45.76</ele>
        <time>2019-08-14T10:18:10.999Z</time>
      </trkpt>
      <trkpt lat="45.82074" lon="-1.21651">
        <ele>45.75</ele>
        <time>2019-08-14T10:18:12.999Z</time>
      </trkpt>
      <trkpt lat="45.82061" lon="-1.21649">
        <ele>45.72</ele>
        <time>2019-08-14T10:18:15.999Z</time>
      </trkpt>
      <trkpt lat="45.82051" lon="-1.21649">
        <ele>45.71</ele>
        <time>2019-08-14T10:18:17.999Z</time>
      </trkpt>
      <trkpt lat="45.82042" lon="-1.21647">
        <ele>45.68</ele>
        <time>2019-08-14T10:18:19.999Z</time>
      </trkpt>
      <trkpt lat="45.82029" lon="-1.21646">
        <ele>45.65</ele>
        <time>2019-08-14T10:18:22.999Z</time>
      </trkpt>
      <trkpt lat="45.82016" lon="-1.21646">
        <ele>45.63</ele>
        <time>2019-08-14T10:18:25.999Z</time>
      </trkpt>
      <trkpt lat="45.82006" lon="-1.21645">
        <ele>45.62</ele>
        <time>2019-08-14T10:18:27.999Z</time>
      </trkpt>
      <trkpt lat="45.81991" lon="-1.21645">
        <ele>45.59</ele>
        <time>2019-08-14T10:18:30.999Z</time>
      </trkpt>
      <trkpt lat="45.81981" lon="-1.21646">
        <ele>45.58</ele>
        <time>2019-08-14T10:18:32.999Z</time>
      </trkpt>
      <trkpt lat="45.81969" lon="-1.21645">
        <ele>45.56</ele>
        <time>2019-08-14T10:18:35.999Z</time>
      </trkpt>
      <trkpt lat="45.81957" lon="-1.21644">
        <ele>45.52</ele>
        <time>2019-08-14T10:18:37.999Z</time>
      </trkpt>
      <trkpt lat="45.81947" lon="-1.21644">
        <ele>45.49</ele>
        <time>2019-08-14T10:18:39.999Z</time>
      </trkpt>
      <trkpt lat="45.81933" lon="-1.21645">
        <ele>45.45</ele>
        <time>2019-08-14T10:18:42.999Z</time>
      </trkpt>
      <trkpt lat="45.81924" lon="-1.21645">
        <ele>45.43</ele>
        <time>2019-08-14T10:18:44.999Z</time>
      </trkpt>
      <trkpt lat="45.81913" lon="-1.21647">
        <ele>45.42</ele>
        <time>2019-08-14T10:18:47.999Z</time>
      </trkpt>
      <trkpt lat="45.81903" lon="-1.21647">
        <ele>45.4</ele>
        <time>2019-08-14T10:18:49.999Z</time>
      </trkpt>
      <trkpt lat="45.81894" lon="-1.21648">
        <ele>45.39</ele>
        <time>2019-08-14T10:18:51.999Z</time>
      </trkpt>
      <trkpt lat="45.81881" lon="-1.21646">
        <ele>45.39</ele>
        <time>2019-08-14T10:18:54.999Z</time>
      </trkpt>
      <trkpt lat="45.81871" lon="-1.21639">
        <ele>45.38</ele>
        <time>2019-08-14T10:18:57.999Z</time>
      </trkpt>
      <trkpt lat="45.81862" lon="-1.21643">
        <ele>45.38</ele>
        <time>2019-08-14T10:19:01.999Z</time>
      </trkpt>
      <trkpt lat="45.81855" lon="-1.21654">
        <ele>45.34</ele>
        <time>2019-08-14T10:19:04.999Z</time>
      </trkpt>
      <trkpt lat="45.81848" lon="-1.21661">
        <ele>45.31</ele>
        <time>2019-08-14T10:19:06.999Z</time>
      </trkpt>
      <trkpt lat="45.81839" lon="-1.21674">
        <ele>45.24</ele>
        <time>2019-08-14T10:19:09.999Z</time>
      </trkpt>
      <trkpt lat="45.8183" lon="-1.21688">
        <ele>45.17</ele>
        <time>2019-08-14T10:19:12.999Z</time>
      </trkpt>
      <trkpt lat="45.81821" lon="-1.21701">
        <ele>45.07</ele>
        <time>2019-08-14T10:19:15.999Z</time>
      </trkpt>
      <trkpt lat="45.8181" lon="-1.21715">
        <ele>44.99</ele>
        <time>2019-08-14T10:19:18.999Z</time>
      </trkpt>
      <trkpt lat="45.81803" lon="-1.21724">
        <ele>44.95</ele>
        <time>2019-08-14T10:19:20.999Z</time>
      </trkpt>
      <trkpt lat="45.81796" lon="-1.21732">
        <ele>44.91</ele>
        <time>2019-08-14T10:19:22.999Z</time>
      </trkpt>
      <trkpt lat="45.81785" lon="-1.21744">
        <ele>44.85</ele>
        <time>2019-08-14T10:19:25.999Z</time>
      </trkpt>
      <trkpt lat="45.81777" lon="-1.21753">
        <ele>44.79</ele>
        <time>2019-08-14T10:19:27.999Z</time>
      </trkpt>
      <trkpt lat="45.81769" lon="-1.21763">
        <ele>44.74</ele>
        <time>2019-08-14T10:19:29.999Z</time>
      </trkpt>
      <trkpt lat="45.81759" lon="-1.21775">
        <ele>44.65</ele>
        <time>2019-08-14T10:19:32.999Z</time>
      </trkpt>
      <trkpt lat="45.81752" lon="-1.21784">
        <ele>44.58</ele>
        <time>2019-08-14T10:19:34.999Z</time>
      </trkpt>
      <trkpt lat="45.81745" lon="-1.21793">
        <ele>44.51</ele>
        <time>2019-08-14T10:19:36.999Z</time>
      </trkpt>
      <trkpt lat="45.81737" lon="-1.21802">
        <ele>44.45</ele>
        <time>2019-08-14T10:19:38.999Z</time>
      </trkpt>
      <trkpt lat="45.8173" lon="-1.21811">
        <ele>44.4</ele>
        <time>2019-08-14T10:19:40.999Z</time>
      </trkpt>
      <trkpt lat="45.81722" lon="-1.2182">
        <ele>44.35</ele>
        <time>2019-08-14T10:19:42.999Z</time>
      </trkpt>
      <trkpt lat="45.81714" lon="-1.21829">
        <ele>44.3</ele>
        <time>2019-08-14T10:19:44.999Z</time>
      </trkpt>
      <trkpt lat="45.81706" lon="-1.21838">
        <ele>44.25</ele>
        <time>2019-08-14T10:19:46.999Z</time>
      </trkpt>
      <trkpt lat="45.81699" lon="-1.21847">
        <ele>44.2</ele>
        <time>2019-08-14T10:19:48.999Z</time>
      </trkpt>
      <trkpt lat="45.81692" lon="-1.21857">
        <ele>44.15</ele>
        <time>2019-08-14T10:19:50.999Z</time>
      </trkpt>
      <trkpt lat="45.81685" lon="-1.21866">
        <ele>44.13</ele>
        <time>2019-08-14T10:19:52.999Z</time>
      </trkpt>
      <trkpt lat="45.81675" lon="-1.21876">
        <ele>44.08</ele>
        <time>2019-08-14T10:19:55.999Z</time>
      </trkpt>
      <trkpt lat="45.81665" lon="-1.21888">
        <ele>44.01</ele>
        <time>2019-08-14T10:19:58.999Z</time>
      </trkpt>
      <trkpt lat="45.81655" lon="-1.21901">
        <ele>43.96</ele>
        <time>2019-08-14T10:20:01.999Z</time>
      </trkpt>
      <trkpt lat="45.81647" lon="-1.21913">
        <ele>43.89</ele>
        <time>2019-08-14T10:20:04.999Z</time>
      </trkpt>
      <trkpt lat="45.81637" lon="-1.21926">
        <ele>43.83</ele>
        <time>2019-08-14T10:20:07.999Z</time>
      </trkpt>
      <trkpt lat="45.81629" lon="-1.21935">
        <ele>43.84</ele>
        <time>2019-08-14T10:20:09.999Z</time>
      </trkpt>
      <trkpt lat="45.8162" lon="-1.21945">
        <ele>43.85</ele>
        <time>2019-08-14T10:20:12.999Z</time>
      </trkpt>
      <trkpt lat="45.81613" lon="-1.21956">
        <ele>43.85</ele>
        <time>2019-08-14T10:20:15.999Z</time>
      </trkpt>
      <trkpt lat="45.81604" lon="-1.21966">
        <ele>43.85</ele>
        <time>2019-08-14T10:20:18.999Z</time>
      </trkpt>
      <trkpt lat="45.81597" lon="-1.21974">
        <ele>43.85</ele>
        <time>2019-08-14T10:20:21.999Z</time>
      </trkpt>
      <trkpt lat="45.81587" lon="-1.2198">
        <ele>43.84</ele>
        <time>2019-08-14T10:20:27.999Z</time>
      </trkpt>
      <trkpt lat="45.81577" lon="-1.21971">
        <ele>43.84</ele>
        <time>2019-08-14T10:20:32.999Z</time>
      </trkpt>
      <trkpt lat="45.8157" lon="-1.21962">
        <ele>43.84</ele>
        <time>2019-08-14T10:20:36.999Z</time>
      </trkpt>
      <trkpt lat="45.81565" lon="-1.21949">
        <ele>43.84</ele>
        <time>2019-08-14T10:20:45.999Z</time>
      </trkpt>
      <trkpt lat="45.81554" lon="-1.21944">
        <ele>43.84</ele>
        <time>2019-08-14T10:20:47.999Z</time>
      </trkpt>
      <trkpt lat="45.81545" lon="-1.2194">
        <ele>43.84</ele>
        <time>2019-08-14T10:20:49.999Z</time>
      </trkpt>
      <trkpt lat="45.81536" lon="-1.21935">
        <ele>43.87</ele>
        <time>2019-08-14T10:20:53.999Z</time>
      </trkpt>
      <trkpt lat="45.81527" lon="-1.21927">
        <ele>43.89</ele>
        <time>2019-08-14T10:20:57.999Z</time>
      </trkpt>
      <trkpt lat="45.8152" lon="-1.21919">
        <ele>43.91</ele>
        <time>2019-08-14T10:21:02.999Z</time>
      </trkpt>
      <trkpt lat="45.8151" lon="-1.2191">
        <ele>43.94</ele>
        <time>2019-08-14T10:21:06.999Z</time>
      </trkpt>
      <trkpt lat="45.81502" lon="-1.21894">
        <ele>43.95</ele>
        <time>2019-08-14T10:21:08.999Z</time>
      </trkpt>
      <trkpt lat="45.81495" lon="-1.21881">
        <ele>44.02</ele>
        <time>2019-08-14T10:21:10.999Z</time>
      </trkpt>
      <trkpt lat="45.81489" lon="-1.21867">
        <ele>44.13</ele>
        <time>2019-08-14T10:21:12.999Z</time>
      </trkpt>
      <trkpt lat="45.8148" lon="-1.21857">
        <ele>44.23</ele>
        <time>2019-08-14T10:21:14.999Z</time>
      </trkpt>
      <trkpt lat="45.81475" lon="-1.21844">
        <ele>44.3</ele>
        <time>2019-08-14T10:21:16.999Z</time>
      </trkpt>
      <trkpt lat="45.81469" lon="-1.21832">
        <ele>44.35</ele>
        <time>2019-08-14T10:21:18.999Z</time>
      </trkpt>
      <trkpt lat="45.8146" lon="-1.21818">
        <ele>44.42</ele>
        <time>2019-08-14T10:21:21.999Z</time>
      </trkpt>
      <trkpt lat="45.81453" lon="-1.21802">
        <ele>44.48</ele>
        <time>2019-08-14T10:21:24.999Z</time>
      </trkpt>
      <trkpt lat="45.81444" lon="-1.21795">
        <ele>44.5</ele>
        <time>2019-08-14T10:21:26.999Z</time>
      </trkpt>
      <trkpt lat="45.81435" lon="-1.21786">
        <ele>44.52</ele>
        <time>2019-08-14T10:21:28.999Z</time>
      </trkpt>
      <trkpt lat="45.81431" lon="-1.21773">
        <ele>44.53</ele>
        <time>2019-08-14T10:21:30.999Z</time>
      </trkpt>
      <trkpt lat="45.81424" lon="-1.21762">
        <ele>44.54</ele>
        <time>2019-08-14T10:21:33.999Z</time>
      </trkpt>
      <trkpt lat="45.81416" lon="-1.21754">
        <ele>44.54</ele>
        <time>2019-08-14T10:21:35.999Z</time>
      </trkpt>
      <trkpt lat="45.81409" lon="-1.21742">
        <ele>44.54</ele>
        <time>2019-08-14T10:21:38.999Z</time>
      </trkpt>
      <trkpt lat="45.81405" lon="-1.21728">
        <ele>44.54</ele>
        <time>2019-08-14T10:21:41.999Z</time>
      </trkpt>
      <trkpt lat="45.814" lon="-1.21717">
        <ele>44.55</ele>
        <time>2019-08-14T10:21:45.999Z</time>
      </trkpt>
    </trkseg>
  </trk>
</gpx>